<?xml version="1.0" encoding="UTF-8" standalone="no" ?>
<gpx xmlns="http://www.topografix.com/GPX/1/1" creator="Cyclopedia.no" version="1.1" xmlns:xsi="http://www.w3.org/2001/XMLSchema-instance" xsi:schemaLocation="http://www.topografix.com/GPX/1/1 http://www.topografix.com/GPX/1/1/gpx.xsd">
	<metadata>
		<link href="http://www.cyclopedia.no"><text>Cyclopedia.no</text></link>
		<time>2026-05-07T16:28:49Z</time>	</metadata>
	<wpt lat="37.711221" lon="-25.502051"><ele>-13</ele><time>0001-01-01T00:00:00Z</time><name>Start</name></wpt>
	<wpt lat="37.716999" lon="-25.431316"><ele>36</ele><time>0001-01-01T00:00:00Z</time><name>Vila Franca do Campo</name></wpt>
	<wpt lat="37.771928" lon="-25.386462"><ele>601</ele><time>0001-01-01T00:00:00Z</time><name>Pico de El-Rei</name></wpt>
	<wpt lat="37.821536" lon="-25.362988"><ele>306</ele><time>0001-01-01T00:00:00Z</time><name>Lomba da Maia</name></wpt>
	<wpt lat="37.850562" lon="-25.247764"><ele>214</ele><time>0001-01-01T00:00:00Z</time><name># Dårlig asfalt</name></wpt>
	<wpt lat="37.836662" lon="-25.148156"><ele>152</ele><time>0001-01-01T00:00:00Z</time><name>Nordeste</name></wpt>
	<wpt lat="37.772791" lon="-25.150869"><ele>426</ele><time>0001-01-01T00:00:00Z</time><name># Dårlig asfalt</name></wpt>
	<wpt lat="37.749848" lon="-25.24376"><ele>17</ele><time>0001-01-01T00:00:00Z</time><name>Povoação</name></wpt>
	<wpt lat="37.773499" lon="-25.31588"><ele>208</ele><time>0001-01-01T00:00:00Z</time><name>Furnas</name></wpt>
	<wpt lat="37.761438" lon="-25.328024"><ele>286</ele><time>0001-01-01T00:00:00Z</time><name># Start brosteinsparti</name></wpt>
	<wpt lat="37.740441" lon="-25.329387"><ele>292</ele><time>0001-01-01T00:00:00Z</time><name>## Slutt brosteinsparti</name></wpt>
	<wpt lat="37.7164" lon="-25.431941"><ele>29</ele><time>0001-01-01T00:00:00Z</time><name>Vila Franca do Campo</name></wpt>
	<wpt lat="37.711024" lon="-25.501654"><ele>35</ele><time>0001-01-01T00:00:00Z</time><name>Slutt</name></wpt>
	<trk>
		<name>Vuelta a Nordeste</name>
		<trkseg>
				<trkpt lat="37.71122" lon="-25.50205">
					<ele>-13</ele>
					<time>0001-01-01T00:00:00Z</time>
				</trkpt>
				<trkpt lat="37.71119" lon="-25.50221">
					<ele>-13</ele>
					<time>0001-01-01T00:00:00Z</time>
				</trkpt>
				<trkpt lat="37.71121" lon="-25.50221">
					<ele>-13</ele>
					<time>0001-01-01T00:00:00Z</time>
				</trkpt>
				<trkpt lat="37.71267" lon="-25.50232">
					<ele>-12</ele>
					<time>0001-01-01T00:00:00Z</time>
				</trkpt>
				<trkpt lat="37.71273" lon="-25.50234">
					<ele>-12</ele>
					<time>0001-01-01T00:00:00Z</time>
				</trkpt>
				<trkpt lat="37.71271" lon="-25.50275">
					<ele>-13</ele>
					<time>0001-01-01T00:00:00Z</time>
				</trkpt>
				<trkpt lat="37.71249" lon="-25.50339">
					<ele>-13</ele>
					<time>0001-01-01T00:00:00Z</time>
				</trkpt>
				<trkpt lat="37.71238" lon="-25.50366">
					<ele>-14</ele>
					<time>0001-01-01T00:00:00Z</time>
				</trkpt>
				<trkpt lat="37.71243" lon="-25.50461">
					<ele>-15</ele>
					<time>0001-01-01T00:00:00Z</time>
				</trkpt>
				<trkpt lat="37.71250" lon="-25.50512">
					<ele>-15</ele>
					<time>0001-01-01T00:00:00Z</time>
				</trkpt>
				<trkpt lat="37.71301" lon="-25.50579">
					<ele>-16</ele>
					<time>0001-01-01T00:00:00Z</time>
				</trkpt>
				<trkpt lat="37.71304" lon="-25.50603">
					<ele>57</ele>
					<time>0001-01-01T00:00:00Z</time>
				</trkpt>
				<trkpt lat="37.71341" lon="-25.50637">
					<ele>63</ele>
					<time>0001-01-01T00:00:00Z</time>
				</trkpt>
				<trkpt lat="37.71378" lon="-25.50679">
					<ele>65</ele>
					<time>0001-01-01T00:00:00Z</time>
				</trkpt>
				<trkpt lat="37.71395" lon="-25.50755">
					<ele>71</ele>
					<time>0001-01-01T00:00:00Z</time>
				</trkpt>
				<trkpt lat="37.71404" lon="-25.50834">
					<ele>74</ele>
					<time>0001-01-01T00:00:00Z</time>
				</trkpt>
				<trkpt lat="37.71420" lon="-25.50929">
					<ele>76</ele>
					<time>0001-01-01T00:00:00Z</time>
				</trkpt>
				<trkpt lat="37.71430" lon="-25.50952">
					<ele>76</ele>
					<time>0001-01-01T00:00:00Z</time>
				</trkpt>
				<trkpt lat="37.71448" lon="-25.50979">
					<ele>75</ele>
					<time>0001-01-01T00:00:00Z</time>
				</trkpt>
				<trkpt lat="37.71515" lon="-25.51055">
					<ele>72</ele>
					<time>0001-01-01T00:00:00Z</time>
				</trkpt>
				<trkpt lat="37.71537" lon="-25.51086">
					<ele>73</ele>
					<time>0001-01-01T00:00:00Z</time>
				</trkpt>
				<trkpt lat="37.71559" lon="-25.51096">
					<ele>74</ele>
					<time>0001-01-01T00:00:00Z</time>
				</trkpt>
				<trkpt lat="37.71592" lon="-25.51091">
					<ele>75</ele>
					<time>0001-01-01T00:00:00Z</time>
				</trkpt>
				<trkpt lat="37.71602" lon="-25.51092">
					<ele>75</ele>
					<time>0001-01-01T00:00:00Z</time>
				</trkpt>
				<trkpt lat="37.71630" lon="-25.51119">
					<ele>75</ele>
					<time>0001-01-01T00:00:00Z</time>
				</trkpt>
				<trkpt lat="37.71653" lon="-25.51161">
					<ele>77</ele>
					<time>0001-01-01T00:00:00Z</time>
				</trkpt>
				<trkpt lat="37.71707" lon="-25.51205">
					<ele>81</ele>
					<time>0001-01-01T00:00:00Z</time>
				</trkpt>
				<trkpt lat="37.71741" lon="-25.51223">
					<ele>83</ele>
					<time>0001-01-01T00:00:00Z</time>
				</trkpt>
				<trkpt lat="37.71781" lon="-25.51227">
					<ele>89</ele>
					<time>0001-01-01T00:00:00Z</time>
				</trkpt>
				<trkpt lat="37.71809" lon="-25.51228">
					<ele>93</ele>
					<time>0001-01-01T00:00:00Z</time>
				</trkpt>
				<trkpt lat="37.71840" lon="-25.51223">
					<ele>97</ele>
					<time>0001-01-01T00:00:00Z</time>
				</trkpt>
				<trkpt lat="37.71858" lon="-25.51219">
					<ele>99</ele>
					<time>0001-01-01T00:00:00Z</time>
				</trkpt>
				<trkpt lat="37.71883" lon="-25.51211">
					<ele>103</ele>
					<time>0001-01-01T00:00:00Z</time>
				</trkpt>
				<trkpt lat="37.71916" lon="-25.51207">
					<ele>105</ele>
					<time>0001-01-01T00:00:00Z</time>
				</trkpt>
				<trkpt lat="37.72019" lon="-25.51130">
					<ele>110</ele>
					<time>0001-01-01T00:00:00Z</time>
				</trkpt>
				<trkpt lat="37.72020" lon="-25.51128">
					<ele>110</ele>
					<time>0001-01-01T00:00:00Z</time>
				</trkpt>
				<trkpt lat="37.72032" lon="-25.51120">
					<ele>109</ele>
					<time>0001-01-01T00:00:00Z</time>
				</trkpt>
				<trkpt lat="37.72050" lon="-25.51097">
					<ele>111</ele>
					<time>0001-01-01T00:00:00Z</time>
				</trkpt>
				<trkpt lat="37.72123" lon="-25.51018">
					<ele>113</ele>
					<time>0001-01-01T00:00:00Z</time>
				</trkpt>
				<trkpt lat="37.72132" lon="-25.51006">
					<ele>113</ele>
					<time>0001-01-01T00:00:00Z</time>
				</trkpt>
				<trkpt lat="37.72133" lon="-25.50983">
					<ele>114</ele>
					<time>0001-01-01T00:00:00Z</time>
				</trkpt>
				<trkpt lat="37.72086" lon="-25.50927">
					<ele>119</ele>
					<time>0001-01-01T00:00:00Z</time>
				</trkpt>
				<trkpt lat="37.72034" lon="-25.50842">
					<ele>118</ele>
					<time>0001-01-01T00:00:00Z</time>
				</trkpt>
				<trkpt lat="37.71983" lon="-25.50723">
					<ele>119</ele>
					<time>0001-01-01T00:00:00Z</time>
				</trkpt>
				<trkpt lat="37.71939" lon="-25.50615">
					<ele>122</ele>
					<time>0001-01-01T00:00:00Z</time>
				</trkpt>
				<trkpt lat="37.71923" lon="-25.50560">
					<ele>124</ele>
					<time>0001-01-01T00:00:00Z</time>
				</trkpt>
				<trkpt lat="37.71894" lon="-25.50518">
					<ele>127</ele>
					<time>0001-01-01T00:00:00Z</time>
				</trkpt>
				<trkpt lat="37.71855" lon="-25.50461">
					<ele>133</ele>
					<time>0001-01-01T00:00:00Z</time>
				</trkpt>
				<trkpt lat="37.71842" lon="-25.50400">
					<ele>140</ele>
					<time>0001-01-01T00:00:00Z</time>
				</trkpt>
				<trkpt lat="37.71835" lon="-25.50358">
					<ele>146</ele>
					<time>0001-01-01T00:00:00Z</time>
				</trkpt>
				<trkpt lat="37.71837" lon="-25.50358">
					<ele>151</ele>
					<time>0001-01-01T00:00:00Z</time>
				</trkpt>
				<trkpt lat="37.71836" lon="-25.50352">
					<ele>152</ele>
					<time>0001-01-01T00:00:00Z</time>
				</trkpt>
				<trkpt lat="37.71821" lon="-25.50292">
					<ele>154</ele>
					<time>0001-01-01T00:00:00Z</time>
				</trkpt>
				<trkpt lat="37.71812" lon="-25.50238">
					<ele>158</ele>
					<time>0001-01-01T00:00:00Z</time>
				</trkpt>
				<trkpt lat="37.71799" lon="-25.50163">
					<ele>159</ele>
					<time>0001-01-01T00:00:00Z</time>
				</trkpt>
				<trkpt lat="37.71765" lon="-25.50089">
					<ele>159</ele>
					<time>0001-01-01T00:00:00Z</time>
				</trkpt>
				<trkpt lat="37.71719" lon="-25.49987">
					<ele>160</ele>
					<time>0001-01-01T00:00:00Z</time>
				</trkpt>
				<trkpt lat="37.71711" lon="-25.49954">
					<ele>160</ele>
					<time>0001-01-01T00:00:00Z</time>
				</trkpt>
				<trkpt lat="37.71715" lon="-25.49780">
					<ele>156</ele>
					<time>0001-01-01T00:00:00Z</time>
				</trkpt>
				<trkpt lat="37.71707" lon="-25.49648">
					<ele>153</ele>
					<time>0001-01-01T00:00:00Z</time>
				</trkpt>
				<trkpt lat="37.71696" lon="-25.49625">
					<ele>152</ele>
					<time>0001-01-01T00:00:00Z</time>
				</trkpt>
				<trkpt lat="37.71681" lon="-25.49604">
					<ele>151</ele>
					<time>0001-01-01T00:00:00Z</time>
				</trkpt>
				<trkpt lat="37.71510" lon="-25.49457">
					<ele>139</ele>
					<time>0001-01-01T00:00:00Z</time>
				</trkpt>
				<trkpt lat="37.71501" lon="-25.49447">
					<ele>137</ele>
					<time>0001-01-01T00:00:00Z</time>
				</trkpt>
				<trkpt lat="37.71476" lon="-25.49365">
					<ele>133</ele>
					<time>0001-01-01T00:00:00Z</time>
				</trkpt>
				<trkpt lat="37.71515" lon="-25.49304">
					<ele>128</ele>
					<time>0001-01-01T00:00:00Z</time>
				</trkpt>
				<trkpt lat="37.71540" lon="-25.49294">
					<ele>125</ele>
					<time>0001-01-01T00:00:00Z</time>
				</trkpt>
				<trkpt lat="37.71576" lon="-25.49298">
					<ele>123</ele>
					<time>0001-01-01T00:00:00Z</time>
				</trkpt>
				<trkpt lat="37.71608" lon="-25.49325">
					<ele>120</ele>
					<time>0001-01-01T00:00:00Z</time>
				</trkpt>
				<trkpt lat="37.71651" lon="-25.49381">
					<ele>116</ele>
					<time>0001-01-01T00:00:00Z</time>
				</trkpt>
				<trkpt lat="37.71698" lon="-25.49398">
					<ele>116</ele>
					<time>0001-01-01T00:00:00Z</time>
				</trkpt>
				<trkpt lat="37.71722" lon="-25.49376">
					<ele>115</ele>
					<time>0001-01-01T00:00:00Z</time>
				</trkpt>
				<trkpt lat="37.71718" lon="-25.49300">
					<ele>103</ele>
					<time>0001-01-01T00:00:00Z</time>
				</trkpt>
				<trkpt lat="37.71710" lon="-25.49287">
					<ele>102</ele>
					<time>0001-01-01T00:00:00Z</time>
				</trkpt>
				<trkpt lat="37.71693" lon="-25.49262">
					<ele>99</ele>
					<time>0001-01-01T00:00:00Z</time>
				</trkpt>
				<trkpt lat="37.71669" lon="-25.49145">
					<ele>89</ele>
					<time>0001-01-01T00:00:00Z</time>
				</trkpt>
				<trkpt lat="37.71667" lon="-25.49115">
					<ele>87</ele>
					<time>0001-01-01T00:00:00Z</time>
				</trkpt>
				<trkpt lat="37.71635" lon="-25.49058">
					<ele>80</ele>
					<time>0001-01-01T00:00:00Z</time>
				</trkpt>
				<trkpt lat="37.71585" lon="-25.49046">
					<ele>77</ele>
					<time>0001-01-01T00:00:00Z</time>
				</trkpt>
				<trkpt lat="37.71541" lon="-25.48989">
					<ele>67</ele>
					<time>0001-01-01T00:00:00Z</time>
				</trkpt>
				<trkpt lat="37.71581" lon="-25.48795">
					<ele>46</ele>
					<time>0001-01-01T00:00:00Z</time>
				</trkpt>
				<trkpt lat="37.71608" lon="-25.48680">
					<ele>40</ele>
					<time>0001-01-01T00:00:00Z</time>
				</trkpt>
				<trkpt lat="37.71629" lon="-25.48650">
					<ele>38</ele>
					<time>0001-01-01T00:00:00Z</time>
				</trkpt>
				<trkpt lat="37.71650" lon="-25.48627">
					<ele>39</ele>
					<time>0001-01-01T00:00:00Z</time>
				</trkpt>
				<trkpt lat="37.71660" lon="-25.48615">
					<ele>38</ele>
					<time>0001-01-01T00:00:00Z</time>
				</trkpt>
				<trkpt lat="37.71693" lon="-25.48542">
					<ele>35</ele>
					<time>0001-01-01T00:00:00Z</time>
				</trkpt>
				<trkpt lat="37.71742" lon="-25.48485">
					<ele>32</ele>
					<time>0001-01-01T00:00:00Z</time>
				</trkpt>
				<trkpt lat="37.71801" lon="-25.48427">
					<ele>30</ele>
					<time>0001-01-01T00:00:00Z</time>
				</trkpt>
				<trkpt lat="37.71831" lon="-25.48375">
					<ele>28</ele>
					<time>0001-01-01T00:00:00Z</time>
				</trkpt>
				<trkpt lat="37.71883" lon="-25.48304">
					<ele>25</ele>
					<time>0001-01-01T00:00:00Z</time>
				</trkpt>
				<trkpt lat="37.71934" lon="-25.48242">
					<ele>24</ele>
					<time>0001-01-01T00:00:00Z</time>
				</trkpt>
				<trkpt lat="37.71942" lon="-25.48229">
					<ele>24</ele>
					<time>0001-01-01T00:00:00Z</time>
				</trkpt>
				<trkpt lat="37.71950" lon="-25.48151">
					<ele>24</ele>
					<time>0001-01-01T00:00:00Z</time>
				</trkpt>
				<trkpt lat="37.71918" lon="-25.48112">
					<ele>25</ele>
					<time>0001-01-01T00:00:00Z</time>
				</trkpt>
				<trkpt lat="37.71845" lon="-25.48066">
					<ele>25</ele>
					<time>0001-01-01T00:00:00Z</time>
				</trkpt>
				<trkpt lat="37.71737" lon="-25.47936">
					<ele>24</ele>
					<time>0001-01-01T00:00:00Z</time>
				</trkpt>
				<trkpt lat="37.71697" lon="-25.47883">
					<ele>24</ele>
					<time>0001-01-01T00:00:00Z</time>
				</trkpt>
				<trkpt lat="37.71682" lon="-25.47812">
					<ele>25</ele>
					<time>0001-01-01T00:00:00Z</time>
				</trkpt>
				<trkpt lat="37.71699" lon="-25.47748">
					<ele>24</ele>
					<time>0001-01-01T00:00:00Z</time>
				</trkpt>
				<trkpt lat="37.71787" lon="-25.47605">
					<ele>11</ele>
					<time>0001-01-01T00:00:00Z</time>
				</trkpt>
				<trkpt lat="37.71791" lon="-25.47583">
					<ele>11</ele>
					<time>0001-01-01T00:00:00Z</time>
				</trkpt>
				<trkpt lat="37.71787" lon="-25.47539">
					<ele>11</ele>
					<time>0001-01-01T00:00:00Z</time>
				</trkpt>
				<trkpt lat="37.71723" lon="-25.47351">
					<ele>14</ele>
					<time>0001-01-01T00:00:00Z</time>
				</trkpt>
				<trkpt lat="37.71673" lon="-25.47211">
					<ele>15</ele>
					<time>0001-01-01T00:00:00Z</time>
				</trkpt>
				<trkpt lat="37.71661" lon="-25.47171">
					<ele>17</ele>
					<time>0001-01-01T00:00:00Z</time>
				</trkpt>
				<trkpt lat="37.71624" lon="-25.47069">
					<ele>25</ele>
					<time>0001-01-01T00:00:00Z</time>
				</trkpt>
				<trkpt lat="37.71592" lon="-25.46979">
					<ele>32</ele>
					<time>0001-01-01T00:00:00Z</time>
				</trkpt>
				<trkpt lat="37.71573" lon="-25.46919">
					<ele>33</ele>
					<time>0001-01-01T00:00:00Z</time>
				</trkpt>
				<trkpt lat="37.71557" lon="-25.46860">
					<ele>38</ele>
					<time>0001-01-01T00:00:00Z</time>
				</trkpt>
				<trkpt lat="37.71557" lon="-25.46852">
					<ele>38</ele>
					<time>0001-01-01T00:00:00Z</time>
				</trkpt>
				<trkpt lat="37.71588" lon="-25.46817">
					<ele>40</ele>
					<time>0001-01-01T00:00:00Z</time>
				</trkpt>
				<trkpt lat="37.71631" lon="-25.46813">
					<ele>42</ele>
					<time>0001-01-01T00:00:00Z</time>
				</trkpt>
				<trkpt lat="37.71689" lon="-25.46809">
					<ele>41</ele>
					<time>0001-01-01T00:00:00Z</time>
				</trkpt>
				<trkpt lat="37.71708" lon="-25.46759">
					<ele>36</ele>
					<time>0001-01-01T00:00:00Z</time>
				</trkpt>
				<trkpt lat="37.71685" lon="-25.46717">
					<ele>41</ele>
					<time>0001-01-01T00:00:00Z</time>
				</trkpt>
				<trkpt lat="37.71641" lon="-25.46689">
					<ele>51</ele>
					<time>0001-01-01T00:00:00Z</time>
				</trkpt>
				<trkpt lat="37.71562" lon="-25.46663">
					<ele>65</ele>
					<time>0001-01-01T00:00:00Z</time>
				</trkpt>
				<trkpt lat="37.71502" lon="-25.46661">
					<ele>74</ele>
					<time>0001-01-01T00:00:00Z</time>
				</trkpt>
				<trkpt lat="37.71471" lon="-25.46626">
					<ele>75</ele>
					<time>0001-01-01T00:00:00Z</time>
				</trkpt>
				<trkpt lat="37.71482" lon="-25.46573">
					<ele>77</ele>
					<time>0001-01-01T00:00:00Z</time>
				</trkpt>
				<trkpt lat="37.71527" lon="-25.46555">
					<ele>82</ele>
					<time>0001-01-01T00:00:00Z</time>
				</trkpt>
				<trkpt lat="37.71592" lon="-25.46557">
					<ele>88</ele>
					<time>0001-01-01T00:00:00Z</time>
				</trkpt>
				<trkpt lat="37.71646" lon="-25.46547">
					<ele>92</ele>
					<time>0001-01-01T00:00:00Z</time>
				</trkpt>
				<trkpt lat="37.71706" lon="-25.46501">
					<ele>94</ele>
					<time>0001-01-01T00:00:00Z</time>
				</trkpt>
				<trkpt lat="37.71745" lon="-25.46459">
					<ele>95</ele>
					<time>0001-01-01T00:00:00Z</time>
				</trkpt>
				<trkpt lat="37.71762" lon="-25.46409">
					<ele>99</ele>
					<time>0001-01-01T00:00:00Z</time>
				</trkpt>
				<trkpt lat="37.71761" lon="-25.46398">
					<ele>101</ele>
					<time>0001-01-01T00:00:00Z</time>
				</trkpt>
				<trkpt lat="37.71758" lon="-25.46371">
					<ele>103</ele>
					<time>0001-01-01T00:00:00Z</time>
				</trkpt>
				<trkpt lat="37.71742" lon="-25.46321">
					<ele>102</ele>
					<time>0001-01-01T00:00:00Z</time>
				</trkpt>
				<trkpt lat="37.71742" lon="-25.46274">
					<ele>99</ele>
					<time>0001-01-01T00:00:00Z</time>
				</trkpt>
				<trkpt lat="37.71763" lon="-25.46192">
					<ele>95</ele>
					<time>0001-01-01T00:00:00Z</time>
				</trkpt>
				<trkpt lat="37.71819" lon="-25.46142">
					<ele>91</ele>
					<time>0001-01-01T00:00:00Z</time>
				</trkpt>
				<trkpt lat="37.71888" lon="-25.46130">
					<ele>87</ele>
					<time>0001-01-01T00:00:00Z</time>
				</trkpt>
				<trkpt lat="37.71931" lon="-25.46093">
					<ele>85</ele>
					<time>0001-01-01T00:00:00Z</time>
				</trkpt>
				<trkpt lat="37.71945" lon="-25.46033">
					<ele>88</ele>
					<time>0001-01-01T00:00:00Z</time>
				</trkpt>
				<trkpt lat="37.71943" lon="-25.45991">
					<ele>87</ele>
					<time>0001-01-01T00:00:00Z</time>
				</trkpt>
				<trkpt lat="37.71937" lon="-25.45884">
					<ele>91</ele>
					<time>0001-01-01T00:00:00Z</time>
				</trkpt>
				<trkpt lat="37.71934" lon="-25.45764">
					<ele>90</ele>
					<time>0001-01-01T00:00:00Z</time>
				</trkpt>
				<trkpt lat="37.71934" lon="-25.45615">
					<ele>85</ele>
					<time>0001-01-01T00:00:00Z</time>
				</trkpt>
				<trkpt lat="37.71932" lon="-25.45443">
					<ele>81</ele>
					<time>0001-01-01T00:00:00Z</time>
				</trkpt>
				<trkpt lat="37.71929" lon="-25.45259">
					<ele>76</ele>
					<time>0001-01-01T00:00:00Z</time>
				</trkpt>
				<trkpt lat="37.71899" lon="-25.45079">
					<ele>78</ele>
					<time>0001-01-01T00:00:00Z</time>
				</trkpt>
				<trkpt lat="37.71845" lon="-25.44913">
					<ele>79</ele>
					<time>0001-01-01T00:00:00Z</time>
				</trkpt>
				<trkpt lat="37.71804" lon="-25.44788">
					<ele>72</ele>
					<time>0001-01-01T00:00:00Z</time>
				</trkpt>
				<trkpt lat="37.71741" lon="-25.44612">
					<ele>65</ele>
					<time>0001-01-01T00:00:00Z</time>
				</trkpt>
				<trkpt lat="37.71677" lon="-25.44417">
					<ele>54</ele>
					<time>0001-01-01T00:00:00Z</time>
				</trkpt>
				<trkpt lat="37.71651" lon="-25.44328">
					<ele>51</ele>
					<time>0001-01-01T00:00:00Z</time>
				</trkpt>
				<trkpt lat="37.71643" lon="-25.44235">
					<ele>49</ele>
					<time>0001-01-01T00:00:00Z</time>
				</trkpt>
				<trkpt lat="37.71643" lon="-25.44191">
					<ele>48</ele>
					<time>0001-01-01T00:00:00Z</time>
				</trkpt>
				<trkpt lat="37.71630" lon="-25.44103">
					<ele>46</ele>
					<time>0001-01-01T00:00:00Z</time>
				</trkpt>
				<trkpt lat="37.71592" lon="-25.43950">
					<ele>36</ele>
					<time>0001-01-01T00:00:00Z</time>
				</trkpt>
				<trkpt lat="37.71579" lon="-25.43904">
					<ele>35</ele>
					<time>0001-01-01T00:00:00Z</time>
				</trkpt>
				<trkpt lat="37.71585" lon="-25.43822">
					<ele>34</ele>
					<time>0001-01-01T00:00:00Z</time>
				</trkpt>
				<trkpt lat="37.71609" lon="-25.43671">
					<ele>37</ele>
					<time>0001-01-01T00:00:00Z</time>
				</trkpt>
				<trkpt lat="37.71631" lon="-25.43493">
					<ele>35</ele>
					<time>0001-01-01T00:00:00Z</time>
				</trkpt>
				<trkpt lat="37.71643" lon="-25.43386">
					<ele>34</ele>
					<time>0001-01-01T00:00:00Z</time>
				</trkpt>
				<trkpt lat="37.71619" lon="-25.43233">
					<ele>34</ele>
					<time>0001-01-01T00:00:00Z</time>
				</trkpt>
				<trkpt lat="37.71631" lon="-25.43194">
					<ele>33</ele>
					<time>0001-01-01T00:00:00Z</time>
				</trkpt>
				<trkpt lat="37.71683" lon="-25.43155">
					<ele>35</ele>
					<time>0001-01-01T00:00:00Z</time>
				</trkpt>
				<trkpt lat="37.71700" lon="-25.43132">
					<ele>36</ele>
					<time>0001-01-01T00:00:00Z</time>
				</trkpt>
				<trkpt lat="37.71777" lon="-25.42993">
					<ele>31</ele>
					<time>0001-01-01T00:00:00Z</time>
				</trkpt>
				<trkpt lat="37.71833" lon="-25.42891">
					<ele>34</ele>
					<time>0001-01-01T00:00:00Z</time>
				</trkpt>
				<trkpt lat="37.71872" lon="-25.42817">
					<ele>35</ele>
					<time>0001-01-01T00:00:00Z</time>
				</trkpt>
				<trkpt lat="37.71885" lon="-25.42792">
					<ele>38</ele>
					<time>0001-01-01T00:00:00Z</time>
				</trkpt>
				<trkpt lat="37.71907" lon="-25.42715">
					<ele>39</ele>
					<time>0001-01-01T00:00:00Z</time>
				</trkpt>
				<trkpt lat="37.71945" lon="-25.42638">
					<ele>43</ele>
					<time>0001-01-01T00:00:00Z</time>
				</trkpt>
				<trkpt lat="37.72002" lon="-25.42584">
					<ele>48</ele>
					<time>0001-01-01T00:00:00Z</time>
				</trkpt>
				<trkpt lat="37.72069" lon="-25.42519">
					<ele>56</ele>
					<time>0001-01-01T00:00:00Z</time>
				</trkpt>
				<trkpt lat="37.72124" lon="-25.42449">
					<ele>62</ele>
					<time>0001-01-01T00:00:00Z</time>
				</trkpt>
				<trkpt lat="37.72164" lon="-25.42339">
					<ele>64</ele>
					<time>0001-01-01T00:00:00Z</time>
				</trkpt>
				<trkpt lat="37.72186" lon="-25.42252">
					<ele>66</ele>
					<time>0001-01-01T00:00:00Z</time>
				</trkpt>
				<trkpt lat="37.72195" lon="-25.42160">
					<ele>67</ele>
					<time>0001-01-01T00:00:00Z</time>
				</trkpt>
				<trkpt lat="37.72204" lon="-25.42081">
					<ele>68</ele>
					<time>0001-01-01T00:00:00Z</time>
				</trkpt>
				<trkpt lat="37.72233" lon="-25.41996">
					<ele>74</ele>
					<time>0001-01-01T00:00:00Z</time>
				</trkpt>
				<trkpt lat="37.72257" lon="-25.41928">
					<ele>80</ele>
					<time>0001-01-01T00:00:00Z</time>
				</trkpt>
				<trkpt lat="37.72322" lon="-25.41761">
					<ele>88</ele>
					<time>0001-01-01T00:00:00Z</time>
				</trkpt>
				<trkpt lat="37.72305" lon="-25.41710">
					<ele>88</ele>
					<time>0001-01-01T00:00:00Z</time>
				</trkpt>
				<trkpt lat="37.72279" lon="-25.41648">
					<ele>90</ele>
					<time>0001-01-01T00:00:00Z</time>
				</trkpt>
				<trkpt lat="37.72282" lon="-25.41545">
					<ele>95</ele>
					<time>0001-01-01T00:00:00Z</time>
				</trkpt>
				<trkpt lat="37.72301" lon="-25.41490">
					<ele>97</ele>
					<time>0001-01-01T00:00:00Z</time>
				</trkpt>
				<trkpt lat="37.72334" lon="-25.41466">
					<ele>101</ele>
					<time>0001-01-01T00:00:00Z</time>
				</trkpt>
				<trkpt lat="37.72363" lon="-25.41497">
					<ele>103</ele>
					<time>0001-01-01T00:00:00Z</time>
				</trkpt>
				<trkpt lat="37.72388" lon="-25.41582">
					<ele>111</ele>
					<time>0001-01-01T00:00:00Z</time>
				</trkpt>
				<trkpt lat="37.72421" lon="-25.41598">
					<ele>112</ele>
					<time>0001-01-01T00:00:00Z</time>
				</trkpt>
				<trkpt lat="37.72442" lon="-25.41567">
					<ele>113</ele>
					<time>0001-01-01T00:00:00Z</time>
				</trkpt>
				<trkpt lat="37.72448" lon="-25.41512">
					<ele>116</ele>
					<time>0001-01-01T00:00:00Z</time>
				</trkpt>
				<trkpt lat="37.72451" lon="-25.41444">
					<ele>121</ele>
					<time>0001-01-01T00:00:00Z</time>
				</trkpt>
				<trkpt lat="37.72456" lon="-25.41379">
					<ele>125</ele>
					<time>0001-01-01T00:00:00Z</time>
				</trkpt>
				<trkpt lat="37.72480" lon="-25.41335">
					<ele>128</ele>
					<time>0001-01-01T00:00:00Z</time>
				</trkpt>
				<trkpt lat="37.72527" lon="-25.41321">
					<ele>133</ele>
					<time>0001-01-01T00:00:00Z</time>
				</trkpt>
				<trkpt lat="37.72569" lon="-25.41292">
					<ele>137</ele>
					<time>0001-01-01T00:00:00Z</time>
				</trkpt>
				<trkpt lat="37.72561" lon="-25.41250">
					<ele>138</ele>
					<time>0001-01-01T00:00:00Z</time>
				</trkpt>
				<trkpt lat="37.72534" lon="-25.41174">
					<ele>141</ele>
					<time>0001-01-01T00:00:00Z</time>
				</trkpt>
				<trkpt lat="37.72564" lon="-25.41112">
					<ele>143</ele>
					<time>0001-01-01T00:00:00Z</time>
				</trkpt>
				<trkpt lat="37.72577" lon="-25.41042">
					<ele>147</ele>
					<time>0001-01-01T00:00:00Z</time>
				</trkpt>
				<trkpt lat="37.72575" lon="-25.40989">
					<ele>149</ele>
					<time>0001-01-01T00:00:00Z</time>
				</trkpt>
				<trkpt lat="37.72563" lon="-25.40956">
					<ele>150</ele>
					<time>0001-01-01T00:00:00Z</time>
				</trkpt>
				<trkpt lat="37.72511" lon="-25.40900">
					<ele>153</ele>
					<time>0001-01-01T00:00:00Z</time>
				</trkpt>
				<trkpt lat="37.72504" lon="-25.40855">
					<ele>156</ele>
					<time>0001-01-01T00:00:00Z</time>
				</trkpt>
				<trkpt lat="37.72534" lon="-25.40812">
					<ele>162</ele>
					<time>0001-01-01T00:00:00Z</time>
				</trkpt>
				<trkpt lat="37.72580" lon="-25.40763">
					<ele>166</ele>
					<time>0001-01-01T00:00:00Z</time>
				</trkpt>
				<trkpt lat="37.72639" lon="-25.40731">
					<ele>178</ele>
					<time>0001-01-01T00:00:00Z</time>
				</trkpt>
				<trkpt lat="37.72697" lon="-25.40706">
					<ele>184</ele>
					<time>0001-01-01T00:00:00Z</time>
				</trkpt>
				<trkpt lat="37.72764" lon="-25.40678">
					<ele>183</ele>
					<time>0001-01-01T00:00:00Z</time>
				</trkpt>
				<trkpt lat="37.72787" lon="-25.40639">
					<ele>187</ele>
					<time>0001-01-01T00:00:00Z</time>
				</trkpt>
				<trkpt lat="37.72778" lon="-25.40585">
					<ele>186</ele>
					<time>0001-01-01T00:00:00Z</time>
				</trkpt>
				<trkpt lat="37.72762" lon="-25.40521">
					<ele>187</ele>
					<time>0001-01-01T00:00:00Z</time>
				</trkpt>
				<trkpt lat="37.72733" lon="-25.40472">
					<ele>191</ele>
					<time>0001-01-01T00:00:00Z</time>
				</trkpt>
				<trkpt lat="37.72676" lon="-25.40400">
					<ele>196</ele>
					<time>0001-01-01T00:00:00Z</time>
				</trkpt>
				<trkpt lat="37.72683" lon="-25.40336">
					<ele>199</ele>
					<time>0001-01-01T00:00:00Z</time>
				</trkpt>
				<trkpt lat="37.72684" lon="-25.40259">
					<ele>203</ele>
					<time>0001-01-01T00:00:00Z</time>
				</trkpt>
				<trkpt lat="37.72633" lon="-25.40194">
					<ele>207</ele>
					<time>0001-01-01T00:00:00Z</time>
				</trkpt>
				<trkpt lat="37.72606" lon="-25.40125">
					<ele>211</ele>
					<time>0001-01-01T00:00:00Z</time>
				</trkpt>
				<trkpt lat="37.72588" lon="-25.40025">
					<ele>215</ele>
					<time>0001-01-01T00:00:00Z</time>
				</trkpt>
				<trkpt lat="37.72570" lon="-25.39921">
					<ele>220</ele>
					<time>0001-01-01T00:00:00Z</time>
				</trkpt>
				<trkpt lat="37.72579" lon="-25.39852">
					<ele>224</ele>
					<time>0001-01-01T00:00:00Z</time>
				</trkpt>
				<trkpt lat="37.72612" lon="-25.39828">
					<ele>227</ele>
					<time>0001-01-01T00:00:00Z</time>
				</trkpt>
				<trkpt lat="37.72643" lon="-25.39807">
					<ele>230</ele>
					<time>0001-01-01T00:00:00Z</time>
				</trkpt>
				<trkpt lat="37.72674" lon="-25.39786">
					<ele>234</ele>
					<time>0001-01-01T00:00:00Z</time>
				</trkpt>
				<trkpt lat="37.72711" lon="-25.39762">
					<ele>239</ele>
					<time>0001-01-01T00:00:00Z</time>
				</trkpt>
				<trkpt lat="37.72736" lon="-25.39747">
					<ele>243</ele>
					<time>0001-01-01T00:00:00Z</time>
				</trkpt>
				<trkpt lat="37.72760" lon="-25.39731">
					<ele>246</ele>
					<time>0001-01-01T00:00:00Z</time>
				</trkpt>
				<trkpt lat="37.72783" lon="-25.39715">
					<ele>249</ele>
					<time>0001-01-01T00:00:00Z</time>
				</trkpt>
				<trkpt lat="37.72809" lon="-25.39701">
					<ele>252</ele>
					<time>0001-01-01T00:00:00Z</time>
				</trkpt>
				<trkpt lat="37.72852" lon="-25.39702">
					<ele>258</ele>
					<time>0001-01-01T00:00:00Z</time>
				</trkpt>
				<trkpt lat="37.72891" lon="-25.39720">
					<ele>264</ele>
					<time>0001-01-01T00:00:00Z</time>
				</trkpt>
				<trkpt lat="37.72914" lon="-25.39757">
					<ele>272</ele>
					<time>0001-01-01T00:00:00Z</time>
				</trkpt>
				<trkpt lat="37.72920" lon="-25.39806">
					<ele>277</ele>
					<time>0001-01-01T00:00:00Z</time>
				</trkpt>
				<trkpt lat="37.72922" lon="-25.39874">
					<ele>281</ele>
					<time>0001-01-01T00:00:00Z</time>
				</trkpt>
				<trkpt lat="37.72945" lon="-25.39920">
					<ele>286</ele>
					<time>0001-01-01T00:00:00Z</time>
				</trkpt>
				<trkpt lat="37.72984" lon="-25.39938">
					<ele>289</ele>
					<time>0001-01-01T00:00:00Z</time>
				</trkpt>
				<trkpt lat="37.73021" lon="-25.39956">
					<ele>292</ele>
					<time>0001-01-01T00:00:00Z</time>
				</trkpt>
				<trkpt lat="37.73052" lon="-25.39976">
					<ele>296</ele>
					<time>0001-01-01T00:00:00Z</time>
				</trkpt>
				<trkpt lat="37.73081" lon="-25.39995">
					<ele>299</ele>
					<time>0001-01-01T00:00:00Z</time>
				</trkpt>
				<trkpt lat="37.73121" lon="-25.40001">
					<ele>303</ele>
					<time>0001-01-01T00:00:00Z</time>
				</trkpt>
				<trkpt lat="37.73150" lon="-25.39974">
					<ele>306</ele>
					<time>0001-01-01T00:00:00Z</time>
				</trkpt>
				<trkpt lat="37.73182" lon="-25.39935">
					<ele>313</ele>
					<time>0001-01-01T00:00:00Z</time>
				</trkpt>
				<trkpt lat="37.73218" lon="-25.39911">
					<ele>316</ele>
					<time>0001-01-01T00:00:00Z</time>
				</trkpt>
				<trkpt lat="37.73263" lon="-25.39911">
					<ele>321</ele>
					<time>0001-01-01T00:00:00Z</time>
				</trkpt>
				<trkpt lat="37.73300" lon="-25.39915">
					<ele>325</ele>
					<time>0001-01-01T00:00:00Z</time>
				</trkpt>
				<trkpt lat="37.73342" lon="-25.39925">
					<ele>329</ele>
					<time>0001-01-01T00:00:00Z</time>
				</trkpt>
				<trkpt lat="37.73382" lon="-25.39947">
					<ele>337</ele>
					<time>0001-01-01T00:00:00Z</time>
				</trkpt>
				<trkpt lat="37.73435" lon="-25.39972">
					<ele>340</ele>
					<time>0001-01-01T00:00:00Z</time>
				</trkpt>
				<trkpt lat="37.73486" lon="-25.39971">
					<ele>344</ele>
					<time>0001-01-01T00:00:00Z</time>
				</trkpt>
				<trkpt lat="37.73521" lon="-25.39969">
					<ele>348</ele>
					<time>0001-01-01T00:00:00Z</time>
				</trkpt>
				<trkpt lat="37.73586" lon="-25.39966">
					<ele>354</ele>
					<time>0001-01-01T00:00:00Z</time>
				</trkpt>
				<trkpt lat="37.73636" lon="-25.39963">
					<ele>357</ele>
					<time>0001-01-01T00:00:00Z</time>
				</trkpt>
				<trkpt lat="37.73679" lon="-25.39961">
					<ele>363</ele>
					<time>0001-01-01T00:00:00Z</time>
				</trkpt>
				<trkpt lat="37.73708" lon="-25.39959">
					<ele>365</ele>
					<time>0001-01-01T00:00:00Z</time>
				</trkpt>
				<trkpt lat="37.73737" lon="-25.39958">
					<ele>367</ele>
					<time>0001-01-01T00:00:00Z</time>
				</trkpt>
				<trkpt lat="37.73777" lon="-25.39955">
					<ele>372</ele>
					<time>0001-01-01T00:00:00Z</time>
				</trkpt>
				<trkpt lat="37.73825" lon="-25.39952">
					<ele>376</ele>
					<time>0001-01-01T00:00:00Z</time>
				</trkpt>
				<trkpt lat="37.73866" lon="-25.39950">
					<ele>382</ele>
					<time>0001-01-01T00:00:00Z</time>
				</trkpt>
				<trkpt lat="37.73896" lon="-25.39948">
					<ele>384</ele>
					<time>0001-01-01T00:00:00Z</time>
				</trkpt>
				<trkpt lat="37.73924" lon="-25.39945">
					<ele>386</ele>
					<time>0001-01-01T00:00:00Z</time>
				</trkpt>
				<trkpt lat="37.73951" lon="-25.39942">
					<ele>389</ele>
					<time>0001-01-01T00:00:00Z</time>
				</trkpt>
				<trkpt lat="37.73985" lon="-25.39933">
					<ele>391</ele>
					<time>0001-01-01T00:00:00Z</time>
				</trkpt>
				<trkpt lat="37.74023" lon="-25.39919">
					<ele>400</ele>
					<time>0001-01-01T00:00:00Z</time>
				</trkpt>
				<trkpt lat="37.74067" lon="-25.39913">
					<ele>403</ele>
					<time>0001-01-01T00:00:00Z</time>
				</trkpt>
				<trkpt lat="37.74124" lon="-25.39916">
					<ele>407</ele>
					<time>0001-01-01T00:00:00Z</time>
				</trkpt>
				<trkpt lat="37.74184" lon="-25.39920">
					<ele>411</ele>
					<time>0001-01-01T00:00:00Z</time>
				</trkpt>
				<trkpt lat="37.74246" lon="-25.39925">
					<ele>415</ele>
					<time>0001-01-01T00:00:00Z</time>
				</trkpt>
				<trkpt lat="37.74296" lon="-25.39942">
					<ele>422</ele>
					<time>0001-01-01T00:00:00Z</time>
				</trkpt>
				<trkpt lat="37.74341" lon="-25.39970">
					<ele>426</ele>
					<time>0001-01-01T00:00:00Z</time>
				</trkpt>
				<trkpt lat="37.74381" lon="-25.39997">
					<ele>429</ele>
					<time>0001-01-01T00:00:00Z</time>
				</trkpt>
				<trkpt lat="37.74402" lon="-25.40015">
					<ele>432</ele>
					<time>0001-01-01T00:00:00Z</time>
				</trkpt>
				<trkpt lat="37.74436" lon="-25.40042">
					<ele>436</ele>
					<time>0001-01-01T00:00:00Z</time>
				</trkpt>
				<trkpt lat="37.74460" lon="-25.40061">
					<ele>438</ele>
					<time>0001-01-01T00:00:00Z</time>
				</trkpt>
				<trkpt lat="37.74501" lon="-25.40089">
					<ele>446</ele>
					<time>0001-01-01T00:00:00Z</time>
				</trkpt>
				<trkpt lat="37.74541" lon="-25.40115">
					<ele>450</ele>
					<time>0001-01-01T00:00:00Z</time>
				</trkpt>
				<trkpt lat="37.74587" lon="-25.40145">
					<ele>454</ele>
					<time>0001-01-01T00:00:00Z</time>
				</trkpt>
				<trkpt lat="37.74632" lon="-25.40174">
					<ele>459</ele>
					<time>0001-01-01T00:00:00Z</time>
				</trkpt>
				<trkpt lat="37.74683" lon="-25.40206">
					<ele>464</ele>
					<time>0001-01-01T00:00:00Z</time>
				</trkpt>
				<trkpt lat="37.74727" lon="-25.40234">
					<ele>468</ele>
					<time>0001-01-01T00:00:00Z</time>
				</trkpt>
				<trkpt lat="37.74780" lon="-25.40258">
					<ele>474</ele>
					<time>0001-01-01T00:00:00Z</time>
				</trkpt>
				<trkpt lat="37.74829" lon="-25.40245">
					<ele>477</ele>
					<time>0001-01-01T00:00:00Z</time>
				</trkpt>
				<trkpt lat="37.74880" lon="-25.40206">
					<ele>480</ele>
					<time>0001-01-01T00:00:00Z</time>
				</trkpt>
				<trkpt lat="37.74936" lon="-25.40162">
					<ele>483</ele>
					<time>0001-01-01T00:00:00Z</time>
				</trkpt>
				<trkpt lat="37.74994" lon="-25.40130">
					<ele>488</ele>
					<time>0001-01-01T00:00:00Z</time>
				</trkpt>
				<trkpt lat="37.75061" lon="-25.40136">
					<ele>492</ele>
					<time>0001-01-01T00:00:00Z</time>
				</trkpt>
				<trkpt lat="37.75138" lon="-25.40147">
					<ele>496</ele>
					<time>0001-01-01T00:00:00Z</time>
				</trkpt>
				<trkpt lat="37.75223" lon="-25.40160">
					<ele>500</ele>
					<time>0001-01-01T00:00:00Z</time>
				</trkpt>
				<trkpt lat="37.75306" lon="-25.40172">
					<ele>504</ele>
					<time>0001-01-01T00:00:00Z</time>
				</trkpt>
				<trkpt lat="37.75399" lon="-25.40186">
					<ele>508</ele>
					<time>0001-01-01T00:00:00Z</time>
				</trkpt>
				<trkpt lat="37.75476" lon="-25.40207">
					<ele>512</ele>
					<time>0001-01-01T00:00:00Z</time>
				</trkpt>
				<trkpt lat="37.75566" lon="-25.40245">
					<ele>514</ele>
					<time>0001-01-01T00:00:00Z</time>
				</trkpt>
				<trkpt lat="37.75641" lon="-25.40278">
					<ele>517</ele>
					<time>0001-01-01T00:00:00Z</time>
				</trkpt>
				<trkpt lat="37.75753" lon="-25.40325">
					<ele>521</ele>
					<time>0001-01-01T00:00:00Z</time>
				</trkpt>
				<trkpt lat="37.75823" lon="-25.40351">
					<ele>525</ele>
					<time>0001-01-01T00:00:00Z</time>
				</trkpt>
				<trkpt lat="37.75872" lon="-25.40323">
					<ele>527</ele>
					<time>0001-01-01T00:00:00Z</time>
				</trkpt>
				<trkpt lat="37.75910" lon="-25.40259">
					<ele>530</ele>
					<time>0001-01-01T00:00:00Z</time>
				</trkpt>
				<trkpt lat="37.75947" lon="-25.40221">
					<ele>532</ele>
					<time>0001-01-01T00:00:00Z</time>
				</trkpt>
				<trkpt lat="37.76002" lon="-25.40169">
					<ele>535</ele>
					<time>0001-01-01T00:00:00Z</time>
				</trkpt>
				<trkpt lat="37.76041" lon="-25.40094">
					<ele>539</ele>
					<time>0001-01-01T00:00:00Z</time>
				</trkpt>
				<trkpt lat="37.76072" lon="-25.40012">
					<ele>543</ele>
					<time>0001-01-01T00:00:00Z</time>
				</trkpt>
				<trkpt lat="37.76099" lon="-25.39941">
					<ele>547</ele>
					<time>0001-01-01T00:00:00Z</time>
				</trkpt>
				<trkpt lat="37.76140" lon="-25.39864">
					<ele>550</ele>
					<time>0001-01-01T00:00:00Z</time>
				</trkpt>
				<trkpt lat="37.76211" lon="-25.39779">
					<ele>553</ele>
					<time>0001-01-01T00:00:00Z</time>
				</trkpt>
				<trkpt lat="37.76220" lon="-25.39768">
					<ele>553</ele>
					<time>0001-01-01T00:00:00Z</time>
				</trkpt>
				<trkpt lat="37.76231" lon="-25.39755">
					<ele>553</ele>
					<time>0001-01-01T00:00:00Z</time>
				</trkpt>
				<trkpt lat="37.76255" lon="-25.39726">
					<ele>554</ele>
					<time>0001-01-01T00:00:00Z</time>
				</trkpt>
				<trkpt lat="37.76294" lon="-25.39654">
					<ele>556</ele>
					<time>0001-01-01T00:00:00Z</time>
				</trkpt>
				<trkpt lat="37.76322" lon="-25.39547">
					<ele>559</ele>
					<time>0001-01-01T00:00:00Z</time>
				</trkpt>
				<trkpt lat="37.76342" lon="-25.39473">
					<ele>562</ele>
					<time>0001-01-01T00:00:00Z</time>
				</trkpt>
				<trkpt lat="37.76380" lon="-25.39412">
					<ele>567</ele>
					<time>0001-01-01T00:00:00Z</time>
				</trkpt>
				<trkpt lat="37.76460" lon="-25.39365">
					<ele>569</ele>
					<time>0001-01-01T00:00:00Z</time>
				</trkpt>
				<trkpt lat="37.76500" lon="-25.39316">
					<ele>572</ele>
					<time>0001-01-01T00:00:00Z</time>
				</trkpt>
				<trkpt lat="37.76537" lon="-25.39220">
					<ele>574</ele>
					<time>0001-01-01T00:00:00Z</time>
				</trkpt>
				<trkpt lat="37.76563" lon="-25.39177">
					<ele>576</ele>
					<time>0001-01-01T00:00:00Z</time>
				</trkpt>
				<trkpt lat="37.76573" lon="-25.39165">
					<ele>576</ele>
					<time>0001-01-01T00:00:00Z</time>
				</trkpt>
				<trkpt lat="37.76622" lon="-25.39105">
					<ele>576</ele>
					<time>0001-01-01T00:00:00Z</time>
				</trkpt>
				<trkpt lat="37.76691" lon="-25.38996">
					<ele>575</ele>
					<time>0001-01-01T00:00:00Z</time>
				</trkpt>
				<trkpt lat="37.76709" lon="-25.38888">
					<ele>576</ele>
					<time>0001-01-01T00:00:00Z</time>
				</trkpt>
				<trkpt lat="37.76737" lon="-25.38777">
					<ele>579</ele>
					<time>0001-01-01T00:00:00Z</time>
				</trkpt>
				<trkpt lat="37.76744" lon="-25.38764">
					<ele>580</ele>
					<time>0001-01-01T00:00:00Z</time>
				</trkpt>
				<trkpt lat="37.76803" lon="-25.38706">
					<ele>582</ele>
					<time>0001-01-01T00:00:00Z</time>
				</trkpt>
				<trkpt lat="37.76857" lon="-25.38658">
					<ele>585</ele>
					<time>0001-01-01T00:00:00Z</time>
				</trkpt>
				<trkpt lat="37.76922" lon="-25.38613">
					<ele>588</ele>
					<time>0001-01-01T00:00:00Z</time>
				</trkpt>
				<trkpt lat="37.76979" lon="-25.38621">
					<ele>590</ele>
					<time>0001-01-01T00:00:00Z</time>
				</trkpt>
				<trkpt lat="37.77055" lon="-25.38643">
					<ele>597</ele>
					<time>0001-01-01T00:00:00Z</time>
				</trkpt>
				<trkpt lat="37.77124" lon="-25.38650">
					<ele>602</ele>
					<time>0001-01-01T00:00:00Z</time>
				</trkpt>
				<trkpt lat="37.77193" lon="-25.38646">
					<ele>601</ele>
					<time>0001-01-01T00:00:00Z</time>
				</trkpt>
				<trkpt lat="37.77315" lon="-25.38624">
					<ele>600</ele>
					<time>0001-01-01T00:00:00Z</time>
				</trkpt>
				<trkpt lat="37.77469" lon="-25.38638">
					<ele>598</ele>
					<time>0001-01-01T00:00:00Z</time>
				</trkpt>
				<trkpt lat="37.77552" lon="-25.38679">
					<ele>596</ele>
					<time>0001-01-01T00:00:00Z</time>
				</trkpt>
				<trkpt lat="37.77698" lon="-25.38774">
					<ele>594</ele>
					<time>0001-01-01T00:00:00Z</time>
				</trkpt>
				<trkpt lat="37.77774" lon="-25.38853">
					<ele>594</ele>
					<time>0001-01-01T00:00:00Z</time>
				</trkpt>
				<trkpt lat="37.77832" lon="-25.38958">
					<ele>593</ele>
					<time>0001-01-01T00:00:00Z</time>
				</trkpt>
				<trkpt lat="37.77913" lon="-25.39104">
					<ele>594</ele>
					<time>0001-01-01T00:00:00Z</time>
				</trkpt>
				<trkpt lat="37.77986" lon="-25.39166">
					<ele>593</ele>
					<time>0001-01-01T00:00:00Z</time>
				</trkpt>
				<trkpt lat="37.78087" lon="-25.39185">
					<ele>590</ele>
					<time>0001-01-01T00:00:00Z</time>
				</trkpt>
				<trkpt lat="37.78192" lon="-25.39197">
					<ele>590</ele>
					<time>0001-01-01T00:00:00Z</time>
				</trkpt>
				<trkpt lat="37.78220" lon="-25.39183">
					<ele>592</ele>
					<time>0001-01-01T00:00:00Z</time>
				</trkpt>
				<trkpt lat="37.78230" lon="-25.39174">
					<ele>592</ele>
					<time>0001-01-01T00:00:00Z</time>
				</trkpt>
				<trkpt lat="37.78356" lon="-25.38998">
					<ele>593</ele>
					<time>0001-01-01T00:00:00Z</time>
				</trkpt>
				<trkpt lat="37.78360" lon="-25.38941">
					<ele>592</ele>
					<time>0001-01-01T00:00:00Z</time>
				</trkpt>
				<trkpt lat="37.78304" lon="-25.38756">
					<ele>592</ele>
					<time>0001-01-01T00:00:00Z</time>
				</trkpt>
				<trkpt lat="37.78298" lon="-25.38732">
					<ele>591</ele>
					<time>0001-01-01T00:00:00Z</time>
				</trkpt>
				<trkpt lat="37.78305" lon="-25.38697">
					<ele>590</ele>
					<time>0001-01-01T00:00:00Z</time>
				</trkpt>
				<trkpt lat="37.78352" lon="-25.38605">
					<ele>590</ele>
					<time>0001-01-01T00:00:00Z</time>
				</trkpt>
				<trkpt lat="37.78344" lon="-25.38477">
					<ele>585</ele>
					<time>0001-01-01T00:00:00Z</time>
				</trkpt>
				<trkpt lat="37.78343" lon="-25.38451">
					<ele>584</ele>
					<time>0001-01-01T00:00:00Z</time>
				</trkpt>
				<trkpt lat="37.78359" lon="-25.38393">
					<ele>582</ele>
					<time>0001-01-01T00:00:00Z</time>
				</trkpt>
				<trkpt lat="37.78389" lon="-25.38349">
					<ele>580</ele>
					<time>0001-01-01T00:00:00Z</time>
				</trkpt>
				<trkpt lat="37.78440" lon="-25.38329">
					<ele>576</ele>
					<time>0001-01-01T00:00:00Z</time>
				</trkpt>
				<trkpt lat="37.78484" lon="-25.38324">
					<ele>574</ele>
					<time>0001-01-01T00:00:00Z</time>
				</trkpt>
				<trkpt lat="37.78511" lon="-25.38298">
					<ele>572</ele>
					<time>0001-01-01T00:00:00Z</time>
				</trkpt>
				<trkpt lat="37.78577" lon="-25.38149">
					<ele>566</ele>
					<time>0001-01-01T00:00:00Z</time>
				</trkpt>
				<trkpt lat="37.78614" lon="-25.38000">
					<ele>561</ele>
					<time>0001-01-01T00:00:00Z</time>
				</trkpt>
				<trkpt lat="37.78619" lon="-25.37839">
					<ele>558</ele>
					<time>0001-01-01T00:00:00Z</time>
				</trkpt>
				<trkpt lat="37.78598" lon="-25.37767">
					<ele>557</ele>
					<time>0001-01-01T00:00:00Z</time>
				</trkpt>
				<trkpt lat="37.78603" lon="-25.37704">
					<ele>556</ele>
					<time>0001-01-01T00:00:00Z</time>
				</trkpt>
				<trkpt lat="37.78627" lon="-25.37691">
					<ele>557</ele>
					<time>0001-01-01T00:00:00Z</time>
				</trkpt>
				<trkpt lat="37.78731" lon="-25.37683">
					<ele>556</ele>
					<time>0001-01-01T00:00:00Z</time>
				</trkpt>
				<trkpt lat="37.78761" lon="-25.37668">
					<ele>555</ele>
					<time>0001-01-01T00:00:00Z</time>
				</trkpt>
				<trkpt lat="37.78800" lon="-25.37637">
					<ele>554</ele>
					<time>0001-01-01T00:00:00Z</time>
				</trkpt>
				<trkpt lat="37.78809" lon="-25.37585">
					<ele>553</ele>
					<time>0001-01-01T00:00:00Z</time>
				</trkpt>
				<trkpt lat="37.78806" lon="-25.37576">
					<ele>553</ele>
					<time>0001-01-01T00:00:00Z</time>
				</trkpt>
				<trkpt lat="37.78792" lon="-25.37540">
					<ele>554</ele>
					<time>0001-01-01T00:00:00Z</time>
				</trkpt>
				<trkpt lat="37.78796" lon="-25.37492">
					<ele>553</ele>
					<time>0001-01-01T00:00:00Z</time>
				</trkpt>
				<trkpt lat="37.78810" lon="-25.37367">
					<ele>547</ele>
					<time>0001-01-01T00:00:00Z</time>
				</trkpt>
				<trkpt lat="37.78804" lon="-25.37272">
					<ele>545</ele>
					<time>0001-01-01T00:00:00Z</time>
				</trkpt>
				<trkpt lat="37.78827" lon="-25.37202">
					<ele>545</ele>
					<time>0001-01-01T00:00:00Z</time>
				</trkpt>
				<trkpt lat="37.78900" lon="-25.37107">
					<ele>543</ele>
					<time>0001-01-01T00:00:00Z</time>
				</trkpt>
				<trkpt lat="37.78904" lon="-25.37048">
					<ele>542</ele>
					<time>0001-01-01T00:00:00Z</time>
				</trkpt>
				<trkpt lat="37.78889" lon="-25.37035">
					<ele>542</ele>
					<time>0001-01-01T00:00:00Z</time>
				</trkpt>
				<trkpt lat="37.78842" lon="-25.37003">
					<ele>540</ele>
					<time>0001-01-01T00:00:00Z</time>
				</trkpt>
				<trkpt lat="37.78828" lon="-25.36944">
					<ele>540</ele>
					<time>0001-01-01T00:00:00Z</time>
				</trkpt>
				<trkpt lat="37.78830" lon="-25.36933">
					<ele>540</ele>
					<time>0001-01-01T00:00:00Z</time>
				</trkpt>
				<trkpt lat="37.78878" lon="-25.36790">
					<ele>536</ele>
					<time>0001-01-01T00:00:00Z</time>
				</trkpt>
				<trkpt lat="37.78927" lon="-25.36650">
					<ele>530</ele>
					<time>0001-01-01T00:00:00Z</time>
				</trkpt>
				<trkpt lat="37.78944" lon="-25.36641">
					<ele>529</ele>
					<time>0001-01-01T00:00:00Z</time>
				</trkpt>
				<trkpt lat="37.78991" lon="-25.36719">
					<ele>528</ele>
					<time>0001-01-01T00:00:00Z</time>
				</trkpt>
				<trkpt lat="37.79090" lon="-25.36820">
					<ele>527</ele>
					<time>0001-01-01T00:00:00Z</time>
				</trkpt>
				<trkpt lat="37.79229" lon="-25.36901">
					<ele>522</ele>
					<time>0001-01-01T00:00:00Z</time>
				</trkpt>
				<trkpt lat="37.79254" lon="-25.36911">
					<ele>520</ele>
					<time>0001-01-01T00:00:00Z</time>
				</trkpt>
				<trkpt lat="37.79431" lon="-25.36960">
					<ele>513</ele>
					<time>0001-01-01T00:00:00Z</time>
				</trkpt>
				<trkpt lat="37.79471" lon="-25.36987">
					<ele>512</ele>
					<time>0001-01-01T00:00:00Z</time>
				</trkpt>
				<trkpt lat="37.79488" lon="-25.37001">
					<ele>511</ele>
					<time>0001-01-01T00:00:00Z</time>
				</trkpt>
				<trkpt lat="37.79552" lon="-25.37046">
					<ele>507</ele>
					<time>0001-01-01T00:00:00Z</time>
				</trkpt>
				<trkpt lat="37.79618" lon="-25.37067">
					<ele>499</ele>
					<time>0001-01-01T00:00:00Z</time>
				</trkpt>
				<trkpt lat="37.79630" lon="-25.37064">
					<ele>496</ele>
					<time>0001-01-01T00:00:00Z</time>
				</trkpt>
				<trkpt lat="37.79652" lon="-25.37047">
					<ele>492</ele>
					<time>0001-01-01T00:00:00Z</time>
				</trkpt>
				<trkpt lat="37.79677" lon="-25.37024">
					<ele>489</ele>
					<time>0001-01-01T00:00:00Z</time>
				</trkpt>
				<trkpt lat="37.79713" lon="-25.37012">
					<ele>486</ele>
					<time>0001-01-01T00:00:00Z</time>
				</trkpt>
				<trkpt lat="37.79869" lon="-25.37011">
					<ele>472</ele>
					<time>0001-01-01T00:00:00Z</time>
				</trkpt>
				<trkpt lat="37.80083" lon="-25.37010">
					<ele>454</ele>
					<time>0001-01-01T00:00:00Z</time>
				</trkpt>
				<trkpt lat="37.80292" lon="-25.36995">
					<ele>442</ele>
					<time>0001-01-01T00:00:00Z</time>
				</trkpt>
				<trkpt lat="37.80440" lon="-25.36983">
					<ele>431</ele>
					<time>0001-01-01T00:00:00Z</time>
				</trkpt>
				<trkpt lat="37.80499" lon="-25.36968">
					<ele>426</ele>
					<time>0001-01-01T00:00:00Z</time>
				</trkpt>
				<trkpt lat="37.80552" lon="-25.36919">
					<ele>420</ele>
					<time>0001-01-01T00:00:00Z</time>
				</trkpt>
				<trkpt lat="37.80685" lon="-25.36729">
					<ele>407</ele>
					<time>0001-01-01T00:00:00Z</time>
				</trkpt>
				<trkpt lat="37.80744" lon="-25.36649">
					<ele>404</ele>
					<time>0001-01-01T00:00:00Z</time>
				</trkpt>
				<trkpt lat="37.80959" lon="-25.36582">
					<ele>397</ele>
					<time>0001-01-01T00:00:00Z</time>
				</trkpt>
				<trkpt lat="37.81043" lon="-25.36517">
					<ele>394</ele>
					<time>0001-01-01T00:00:00Z</time>
				</trkpt>
				<trkpt lat="37.81068" lon="-25.36501">
					<ele>393</ele>
					<time>0001-01-01T00:00:00Z</time>
				</trkpt>
				<trkpt lat="37.81144" lon="-25.36489">
					<ele>392</ele>
					<time>0001-01-01T00:00:00Z</time>
				</trkpt>
				<trkpt lat="37.81196" lon="-25.36465">
					<ele>390</ele>
					<time>0001-01-01T00:00:00Z</time>
				</trkpt>
				<trkpt lat="37.81267" lon="-25.36391">
					<ele>383</ele>
					<time>0001-01-01T00:00:00Z</time>
				</trkpt>
				<trkpt lat="37.81317" lon="-25.36375">
					<ele>379</ele>
					<time>0001-01-01T00:00:00Z</time>
				</trkpt>
				<trkpt lat="37.81505" lon="-25.36373">
					<ele>359</ele>
					<time>0001-01-01T00:00:00Z</time>
				</trkpt>
				<trkpt lat="37.81550" lon="-25.36345">
					<ele>354</ele>
					<time>0001-01-01T00:00:00Z</time>
				</trkpt>
				<trkpt lat="37.81573" lon="-25.36322">
					<ele>352</ele>
					<time>0001-01-01T00:00:00Z</time>
				</trkpt>
				<trkpt lat="37.81637" lon="-25.36320">
					<ele>346</ele>
					<time>0001-01-01T00:00:00Z</time>
				</trkpt>
				<trkpt lat="37.81673" lon="-25.36337">
					<ele>344</ele>
					<time>0001-01-01T00:00:00Z</time>
				</trkpt>
				<trkpt lat="37.81723" lon="-25.36332">
					<ele>339</ele>
					<time>0001-01-01T00:00:00Z</time>
				</trkpt>
				<trkpt lat="37.81914" lon="-25.36245">
					<ele>318</ele>
					<time>0001-01-01T00:00:00Z</time>
				</trkpt>
				<trkpt lat="37.81950" lon="-25.36256">
					<ele>316</ele>
					<time>0001-01-01T00:00:00Z</time>
				</trkpt>
				<trkpt lat="37.81967" lon="-25.36268">
					<ele>314</ele>
					<time>0001-01-01T00:00:00Z</time>
				</trkpt>
				<trkpt lat="37.82003" lon="-25.36282">
					<ele>312</ele>
					<time>0001-01-01T00:00:00Z</time>
				</trkpt>
				<trkpt lat="37.82057" lon="-25.36277">
					<ele>310</ele>
					<time>0001-01-01T00:00:00Z</time>
				</trkpt>
				<trkpt lat="37.82082" lon="-25.36267">
					<ele>310</ele>
					<time>0001-01-01T00:00:00Z</time>
				</trkpt>
				<trkpt lat="37.82113" lon="-25.36271">
					<ele>309</ele>
					<time>0001-01-01T00:00:00Z</time>
				</trkpt>
				<trkpt lat="37.82154" lon="-25.36299">
					<ele>306</ele>
					<time>0001-01-01T00:00:00Z</time>
				</trkpt>
				<trkpt lat="37.82207" lon="-25.36313">
					<ele>303</ele>
					<time>0001-01-01T00:00:00Z</time>
				</trkpt>
				<trkpt lat="37.82293" lon="-25.36388">
					<ele>295</ele>
					<time>0001-01-01T00:00:00Z</time>
				</trkpt>
				<trkpt lat="37.82400" lon="-25.36442">
					<ele>282</ele>
					<time>0001-01-01T00:00:00Z</time>
				</trkpt>
				<trkpt lat="37.82441" lon="-25.36443">
					<ele>277</ele>
					<time>0001-01-01T00:00:00Z</time>
				</trkpt>
				<trkpt lat="37.82487" lon="-25.36407">
					<ele>272</ele>
					<time>0001-01-01T00:00:00Z</time>
				</trkpt>
				<trkpt lat="37.82517" lon="-25.36391">
					<ele>268</ele>
					<time>0001-01-01T00:00:00Z</time>
				</trkpt>
				<trkpt lat="37.82536" lon="-25.36391">
					<ele>267</ele>
					<time>0001-01-01T00:00:00Z</time>
				</trkpt>
				<trkpt lat="37.82651" lon="-25.36359">
					<ele>266</ele>
					<time>0001-01-01T00:00:00Z</time>
				</trkpt>
				<trkpt lat="37.82713" lon="-25.36296">
					<ele>266</ele>
					<time>0001-01-01T00:00:00Z</time>
				</trkpt>
				<trkpt lat="37.82756" lon="-25.36238">
					<ele>262</ele>
					<time>0001-01-01T00:00:00Z</time>
				</trkpt>
				<trkpt lat="37.82770" lon="-25.36193">
					<ele>259</ele>
					<time>0001-01-01T00:00:00Z</time>
				</trkpt>
				<trkpt lat="37.82812" lon="-25.36161">
					<ele>253</ele>
					<time>0001-01-01T00:00:00Z</time>
				</trkpt>
				<trkpt lat="37.82822" lon="-25.36162">
					<ele>252</ele>
					<time>0001-01-01T00:00:00Z</time>
				</trkpt>
				<trkpt lat="37.82907" lon="-25.36159">
					<ele>244</ele>
					<time>0001-01-01T00:00:00Z</time>
				</trkpt>
				<trkpt lat="37.82925" lon="-25.36136">
					<ele>244</ele>
					<time>0001-01-01T00:00:00Z</time>
				</trkpt>
				<trkpt lat="37.82910" lon="-25.36054">
					<ele>249</ele>
					<time>0001-01-01T00:00:00Z</time>
				</trkpt>
				<trkpt lat="37.82896" lon="-25.35993">
					<ele>252</ele>
					<time>0001-01-01T00:00:00Z</time>
				</trkpt>
				<trkpt lat="37.82857" lon="-25.35905">
					<ele>253</ele>
					<time>0001-01-01T00:00:00Z</time>
				</trkpt>
				<trkpt lat="37.82836" lon="-25.35865">
					<ele>253</ele>
					<time>0001-01-01T00:00:00Z</time>
				</trkpt>
				<trkpt lat="37.82846" lon="-25.35813">
					<ele>251</ele>
					<time>0001-01-01T00:00:00Z</time>
				</trkpt>
				<trkpt lat="37.82860" lon="-25.35803">
					<ele>251</ele>
					<time>0001-01-01T00:00:00Z</time>
				</trkpt>
				<trkpt lat="37.82913" lon="-25.35774">
					<ele>251</ele>
					<time>0001-01-01T00:00:00Z</time>
				</trkpt>
				<trkpt lat="37.82933" lon="-25.35742">
					<ele>252</ele>
					<time>0001-01-01T00:00:00Z</time>
				</trkpt>
				<trkpt lat="37.82947" lon="-25.35675">
					<ele>255</ele>
					<time>0001-01-01T00:00:00Z</time>
				</trkpt>
				<trkpt lat="37.82956" lon="-25.35655">
					<ele>255</ele>
					<time>0001-01-01T00:00:00Z</time>
				</trkpt>
				<trkpt lat="37.83001" lon="-25.35601">
					<ele>253</ele>
					<time>0001-01-01T00:00:00Z</time>
				</trkpt>
				<trkpt lat="37.83009" lon="-25.35512">
					<ele>249</ele>
					<time>0001-01-01T00:00:00Z</time>
				</trkpt>
				<trkpt lat="37.83000" lon="-25.35495">
					<ele>249</ele>
					<time>0001-01-01T00:00:00Z</time>
				</trkpt>
				<trkpt lat="37.82938" lon="-25.35426">
					<ele>249</ele>
					<time>0001-01-01T00:00:00Z</time>
				</trkpt>
				<trkpt lat="37.82928" lon="-25.35375">
					<ele>252</ele>
					<time>0001-01-01T00:00:00Z</time>
				</trkpt>
				<trkpt lat="37.82944" lon="-25.35360">
					<ele>252</ele>
					<time>0001-01-01T00:00:00Z</time>
				</trkpt>
				<trkpt lat="37.83008" lon="-25.35339">
					<ele>255</ele>
					<time>0001-01-01T00:00:00Z</time>
				</trkpt>
				<trkpt lat="37.83041" lon="-25.35277">
					<ele>256</ele>
					<time>0001-01-01T00:00:00Z</time>
				</trkpt>
				<trkpt lat="37.83055" lon="-25.35256">
					<ele>255</ele>
					<time>0001-01-01T00:00:00Z</time>
				</trkpt>
				<trkpt lat="37.83111" lon="-25.35179">
					<ele>256</ele>
					<time>0001-01-01T00:00:00Z</time>
				</trkpt>
				<trkpt lat="37.83131" lon="-25.35146">
					<ele>257</ele>
					<time>0001-01-01T00:00:00Z</time>
				</trkpt>
				<trkpt lat="37.83141" lon="-25.35110">
					<ele>256</ele>
					<time>0001-01-01T00:00:00Z</time>
				</trkpt>
				<trkpt lat="37.83180" lon="-25.35086">
					<ele>254</ele>
					<time>0001-01-01T00:00:00Z</time>
				</trkpt>
				<trkpt lat="37.83187" lon="-25.35088">
					<ele>253</ele>
					<time>0001-01-01T00:00:00Z</time>
				</trkpt>
				<trkpt lat="37.83218" lon="-25.35097">
					<ele>251</ele>
					<time>0001-01-01T00:00:00Z</time>
				</trkpt>
				<trkpt lat="37.83261" lon="-25.35074">
					<ele>248</ele>
					<time>0001-01-01T00:00:00Z</time>
				</trkpt>
				<trkpt lat="37.83258" lon="-25.35023">
					<ele>247</ele>
					<time>0001-01-01T00:00:00Z</time>
				</trkpt>
				<trkpt lat="37.83252" lon="-25.35014">
					<ele>246</ele>
					<time>0001-01-01T00:00:00Z</time>
				</trkpt>
				<trkpt lat="37.83178" lon="-25.34940">
					<ele>244</ele>
					<time>0001-01-01T00:00:00Z</time>
				</trkpt>
				<trkpt lat="37.83134" lon="-25.34833">
					<ele>242</ele>
					<time>0001-01-01T00:00:00Z</time>
				</trkpt>
				<trkpt lat="37.83114" lon="-25.34750">
					<ele>240</ele>
					<time>0001-01-01T00:00:00Z</time>
				</trkpt>
				<trkpt lat="37.83079" lon="-25.34682">
					<ele>240</ele>
					<time>0001-01-01T00:00:00Z</time>
				</trkpt>
				<trkpt lat="37.82981" lon="-25.34587">
					<ele>239</ele>
					<time>0001-01-01T00:00:00Z</time>
				</trkpt>
				<trkpt lat="37.82985" lon="-25.34538">
					<ele>239</ele>
					<time>0001-01-01T00:00:00Z</time>
				</trkpt>
				<trkpt lat="37.82999" lon="-25.34539">
					<ele>238</ele>
					<time>0001-01-01T00:00:00Z</time>
				</trkpt>
				<trkpt lat="37.83071" lon="-25.34559">
					<ele>238</ele>
					<time>0001-01-01T00:00:00Z</time>
				</trkpt>
				<trkpt lat="37.83152" lon="-25.34586">
					<ele>238</ele>
					<time>0001-01-01T00:00:00Z</time>
				</trkpt>
				<trkpt lat="37.83206" lon="-25.34646">
					<ele>238</ele>
					<time>0001-01-01T00:00:00Z</time>
				</trkpt>
				<trkpt lat="37.83273" lon="-25.34730">
					<ele>237</ele>
					<time>0001-01-01T00:00:00Z</time>
				</trkpt>
				<trkpt lat="37.83304" lon="-25.34762">
					<ele>236</ele>
					<time>0001-01-01T00:00:00Z</time>
				</trkpt>
				<trkpt lat="37.83326" lon="-25.34757">
					<ele>236</ele>
					<time>0001-01-01T00:00:00Z</time>
				</trkpt>
				<trkpt lat="37.83389" lon="-25.34737">
					<ele>236</ele>
					<time>0001-01-01T00:00:00Z</time>
				</trkpt>
				<trkpt lat="37.83438" lon="-25.34767">
					<ele>236</ele>
					<time>0001-01-01T00:00:00Z</time>
				</trkpt>
				<trkpt lat="37.83462" lon="-25.34758">
					<ele>237</ele>
					<time>0001-01-01T00:00:00Z</time>
				</trkpt>
				<trkpt lat="37.83488" lon="-25.34682">
					<ele>245</ele>
					<time>0001-01-01T00:00:00Z</time>
				</trkpt>
				<trkpt lat="37.83516" lon="-25.34589">
					<ele>252</ele>
					<time>0001-01-01T00:00:00Z</time>
				</trkpt>
				<trkpt lat="37.83529" lon="-25.34528">
					<ele>255</ele>
					<time>0001-01-01T00:00:00Z</time>
				</trkpt>
				<trkpt lat="37.83513" lon="-25.34496">
					<ele>256</ele>
					<time>0001-01-01T00:00:00Z</time>
				</trkpt>
				<trkpt lat="37.83442" lon="-25.34390">
					<ele>259</ele>
					<time>0001-01-01T00:00:00Z</time>
				</trkpt>
				<trkpt lat="37.83398" lon="-25.34296">
					<ele>262</ele>
					<time>0001-01-01T00:00:00Z</time>
				</trkpt>
				<trkpt lat="37.83391" lon="-25.34252">
					<ele>263</ele>
					<time>0001-01-01T00:00:00Z</time>
				</trkpt>
				<trkpt lat="37.83392" lon="-25.34239">
					<ele>263</ele>
					<time>0001-01-01T00:00:00Z</time>
				</trkpt>
				<trkpt lat="37.83432" lon="-25.34222">
					<ele>263</ele>
					<time>0001-01-01T00:00:00Z</time>
				</trkpt>
				<trkpt lat="37.83437" lon="-25.34224">
					<ele>263</ele>
					<time>0001-01-01T00:00:00Z</time>
				</trkpt>
				<trkpt lat="37.83456" lon="-25.34234">
					<ele>263</ele>
					<time>0001-01-01T00:00:00Z</time>
				</trkpt>
				<trkpt lat="37.83476" lon="-25.34254">
					<ele>263</ele>
					<time>0001-01-01T00:00:00Z</time>
				</trkpt>
				<trkpt lat="37.83510" lon="-25.34293">
					<ele>263</ele>
					<time>0001-01-01T00:00:00Z</time>
				</trkpt>
				<trkpt lat="37.83520" lon="-25.34299">
					<ele>263</ele>
					<time>0001-01-01T00:00:00Z</time>
				</trkpt>
				<trkpt lat="37.83532" lon="-25.34300">
					<ele>263</ele>
					<time>0001-01-01T00:00:00Z</time>
				</trkpt>
				<trkpt lat="37.83644" lon="-25.34252">
					<ele>259</ele>
					<time>0001-01-01T00:00:00Z</time>
				</trkpt>
				<trkpt lat="37.83772" lon="-25.34183">
					<ele>254</ele>
					<time>0001-01-01T00:00:00Z</time>
				</trkpt>
				<trkpt lat="37.83800" lon="-25.34122">
					<ele>252</ele>
					<time>0001-01-01T00:00:00Z</time>
				</trkpt>
				<trkpt lat="37.83840" lon="-25.34113">
					<ele>252</ele>
					<time>0001-01-01T00:00:00Z</time>
				</trkpt>
				<trkpt lat="37.83846" lon="-25.34120">
					<ele>252</ele>
					<time>0001-01-01T00:00:00Z</time>
				</trkpt>
				<trkpt lat="37.83895" lon="-25.34154">
					<ele>249</ele>
					<time>0001-01-01T00:00:00Z</time>
				</trkpt>
				<trkpt lat="37.83912" lon="-25.34149">
					<ele>247</ele>
					<time>0001-01-01T00:00:00Z</time>
				</trkpt>
				<trkpt lat="37.84104" lon="-25.34043">
					<ele>236</ele>
					<time>0001-01-01T00:00:00Z</time>
				</trkpt>
				<trkpt lat="37.84217" lon="-25.33961">
					<ele>228</ele>
					<time>0001-01-01T00:00:00Z</time>
				</trkpt>
				<trkpt lat="37.84329" lon="-25.33890">
					<ele>222</ele>
					<time>0001-01-01T00:00:00Z</time>
				</trkpt>
				<trkpt lat="37.84353" lon="-25.33819">
					<ele>220</ele>
					<time>0001-01-01T00:00:00Z</time>
				</trkpt>
				<trkpt lat="37.84344" lon="-25.33675">
					<ele>219</ele>
					<time>0001-01-01T00:00:00Z</time>
				</trkpt>
				<trkpt lat="37.84349" lon="-25.33643">
					<ele>219</ele>
					<time>0001-01-01T00:00:00Z</time>
				</trkpt>
				<trkpt lat="37.84405" lon="-25.33506">
					<ele>217</ele>
					<time>0001-01-01T00:00:00Z</time>
				</trkpt>
				<trkpt lat="37.84430" lon="-25.33364">
					<ele>214</ele>
					<time>0001-01-01T00:00:00Z</time>
				</trkpt>
				<trkpt lat="37.84459" lon="-25.33223">
					<ele>215</ele>
					<time>0001-01-01T00:00:00Z</time>
				</trkpt>
				<trkpt lat="37.84488" lon="-25.33085">
					<ele>217</ele>
					<time>0001-01-01T00:00:00Z</time>
				</trkpt>
				<trkpt lat="37.84518" lon="-25.32948">
					<ele>218</ele>
					<time>0001-01-01T00:00:00Z</time>
				</trkpt>
				<trkpt lat="37.84542" lon="-25.32842">
					<ele>212</ele>
					<time>0001-01-01T00:00:00Z</time>
				</trkpt>
				<trkpt lat="37.84580" lon="-25.32670">
					<ele>200</ele>
					<time>0001-01-01T00:00:00Z</time>
				</trkpt>
				<trkpt lat="37.84635" lon="-25.32425">
					<ele>194</ele>
					<time>0001-01-01T00:00:00Z</time>
				</trkpt>
				<trkpt lat="37.84662" lon="-25.32306">
					<ele>196</ele>
					<time>0001-01-01T00:00:00Z</time>
				</trkpt>
				<trkpt lat="37.84692" lon="-25.32174">
					<ele>199</ele>
					<time>0001-01-01T00:00:00Z</time>
				</trkpt>
				<trkpt lat="37.84698" lon="-25.32058">
					<ele>200</ele>
					<time>0001-01-01T00:00:00Z</time>
				</trkpt>
				<trkpt lat="37.84679" lon="-25.31976">
					<ele>200</ele>
					<time>0001-01-01T00:00:00Z</time>
				</trkpt>
				<trkpt lat="37.84692" lon="-25.31931">
					<ele>200</ele>
					<time>0001-01-01T00:00:00Z</time>
				</trkpt>
				<trkpt lat="37.84699" lon="-25.31918">
					<ele>200</ele>
					<time>0001-01-01T00:00:00Z</time>
				</trkpt>
				<trkpt lat="37.84704" lon="-25.31861">
					<ele>200</ele>
					<time>0001-01-01T00:00:00Z</time>
				</trkpt>
				<trkpt lat="37.84694" lon="-25.31831">
					<ele>199</ele>
					<time>0001-01-01T00:00:00Z</time>
				</trkpt>
				<trkpt lat="37.84672" lon="-25.31781">
					<ele>197</ele>
					<time>0001-01-01T00:00:00Z</time>
				</trkpt>
				<trkpt lat="37.84661" lon="-25.31765">
					<ele>197</ele>
					<time>0001-01-01T00:00:00Z</time>
				</trkpt>
				<trkpt lat="37.84618" lon="-25.31723">
					<ele>197</ele>
					<time>0001-01-01T00:00:00Z</time>
				</trkpt>
				<trkpt lat="37.84564" lon="-25.31731">
					<ele>195</ele>
					<time>0001-01-01T00:00:00Z</time>
				</trkpt>
				<trkpt lat="37.84485" lon="-25.31768">
					<ele>190</ele>
					<time>0001-01-01T00:00:00Z</time>
				</trkpt>
				<trkpt lat="37.84371" lon="-25.31717">
					<ele>189</ele>
					<time>0001-01-01T00:00:00Z</time>
				</trkpt>
				<trkpt lat="37.84376" lon="-25.31668">
					<ele>189</ele>
					<time>0001-01-01T00:00:00Z</time>
				</trkpt>
				<trkpt lat="37.84439" lon="-25.31665">
					<ele>189</ele>
					<time>0001-01-01T00:00:00Z</time>
				</trkpt>
				<trkpt lat="37.84460" lon="-25.31658">
					<ele>189</ele>
					<time>0001-01-01T00:00:00Z</time>
				</trkpt>
				<trkpt lat="37.84539" lon="-25.31607">
					<ele>188</ele>
					<time>0001-01-01T00:00:00Z</time>
				</trkpt>
				<trkpt lat="37.84600" lon="-25.31563">
					<ele>190</ele>
					<time>0001-01-01T00:00:00Z</time>
				</trkpt>
				<trkpt lat="37.84661" lon="-25.31585">
					<ele>190</ele>
					<time>0001-01-01T00:00:00Z</time>
				</trkpt>
				<trkpt lat="37.84717" lon="-25.31627">
					<ele>189</ele>
					<time>0001-01-01T00:00:00Z</time>
				</trkpt>
				<trkpt lat="37.84743" lon="-25.31630">
					<ele>189</ele>
					<time>0001-01-01T00:00:00Z</time>
				</trkpt>
				<trkpt lat="37.84782" lon="-25.31621">
					<ele>189</ele>
					<time>0001-01-01T00:00:00Z</time>
				</trkpt>
				<trkpt lat="37.84807" lon="-25.31597">
					<ele>189</ele>
					<time>0001-01-01T00:00:00Z</time>
				</trkpt>
				<trkpt lat="37.84814" lon="-25.31583">
					<ele>189</ele>
					<time>0001-01-01T00:00:00Z</time>
				</trkpt>
				<trkpt lat="37.84808" lon="-25.31547">
					<ele>189</ele>
					<time>0001-01-01T00:00:00Z</time>
				</trkpt>
				<trkpt lat="37.84751" lon="-25.31498">
					<ele>189</ele>
					<time>0001-01-01T00:00:00Z</time>
				</trkpt>
				<trkpt lat="37.84748" lon="-25.31451">
					<ele>189</ele>
					<time>0001-01-01T00:00:00Z</time>
				</trkpt>
				<trkpt lat="37.84761" lon="-25.31446">
					<ele>189</ele>
					<time>0001-01-01T00:00:00Z</time>
				</trkpt>
				<trkpt lat="37.84825" lon="-25.31439">
					<ele>186</ele>
					<time>0001-01-01T00:00:00Z</time>
				</trkpt>
				<trkpt lat="37.84893" lon="-25.31348">
					<ele>185</ele>
					<time>0001-01-01T00:00:00Z</time>
				</trkpt>
				<trkpt lat="37.84966" lon="-25.31211">
					<ele>184</ele>
					<time>0001-01-01T00:00:00Z</time>
				</trkpt>
				<trkpt lat="37.85004" lon="-25.31139">
					<ele>183</ele>
					<time>0001-01-01T00:00:00Z</time>
				</trkpt>
				<trkpt lat="37.85013" lon="-25.31100">
					<ele>182</ele>
					<time>0001-01-01T00:00:00Z</time>
				</trkpt>
				<trkpt lat="37.85013" lon="-25.31075">
					<ele>181</ele>
					<time>0001-01-01T00:00:00Z</time>
				</trkpt>
				<trkpt lat="37.85011" lon="-25.31056">
					<ele>180</ele>
					<time>0001-01-01T00:00:00Z</time>
				</trkpt>
				<trkpt lat="37.84956" lon="-25.30945">
					<ele>175</ele>
					<time>0001-01-01T00:00:00Z</time>
				</trkpt>
				<trkpt lat="37.84951" lon="-25.30938">
					<ele>175</ele>
					<time>0001-01-01T00:00:00Z</time>
				</trkpt>
				<trkpt lat="37.84908" lon="-25.30922">
					<ele>172</ele>
					<time>0001-01-01T00:00:00Z</time>
				</trkpt>
				<trkpt lat="37.84885" lon="-25.30888">
					<ele>171</ele>
					<time>0001-01-01T00:00:00Z</time>
				</trkpt>
				<trkpt lat="37.84912" lon="-25.30858">
					<ele>169</ele>
					<time>0001-01-01T00:00:00Z</time>
				</trkpt>
				<trkpt lat="37.84988" lon="-25.30850">
					<ele>167</ele>
					<time>0001-01-01T00:00:00Z</time>
				</trkpt>
				<trkpt lat="37.85054" lon="-25.30807">
					<ele>166</ele>
					<time>0001-01-01T00:00:00Z</time>
				</trkpt>
				<trkpt lat="37.85041" lon="-25.30760">
					<ele>166</ele>
					<time>0001-01-01T00:00:00Z</time>
				</trkpt>
				<trkpt lat="37.85031" lon="-25.30752">
					<ele>166</ele>
					<time>0001-01-01T00:00:00Z</time>
				</trkpt>
				<trkpt lat="37.84982" lon="-25.30720">
					<ele>166</ele>
					<time>0001-01-01T00:00:00Z</time>
				</trkpt>
				<trkpt lat="37.84960" lon="-25.30698">
					<ele>166</ele>
					<time>0001-01-01T00:00:00Z</time>
				</trkpt>
				<trkpt lat="37.84902" lon="-25.30591">
					<ele>165</ele>
					<time>0001-01-01T00:00:00Z</time>
				</trkpt>
				<trkpt lat="37.84838" lon="-25.30540">
					<ele>164</ele>
					<time>0001-01-01T00:00:00Z</time>
				</trkpt>
				<trkpt lat="37.84672" lon="-25.30615">
					<ele>162</ele>
					<time>0001-01-01T00:00:00Z</time>
				</trkpt>
				<trkpt lat="37.84653" lon="-25.30616">
					<ele>162</ele>
					<time>0001-01-01T00:00:00Z</time>
				</trkpt>
				<trkpt lat="37.84623" lon="-25.30605">
					<ele>161</ele>
					<time>0001-01-01T00:00:00Z</time>
				</trkpt>
				<trkpt lat="37.84604" lon="-25.30593">
					<ele>161</ele>
					<time>0001-01-01T00:00:00Z</time>
				</trkpt>
				<trkpt lat="37.84586" lon="-25.30577">
					<ele>161</ele>
					<time>0001-01-01T00:00:00Z</time>
				</trkpt>
				<trkpt lat="37.84552" lon="-25.30551">
					<ele>161</ele>
					<time>0001-01-01T00:00:00Z</time>
				</trkpt>
				<trkpt lat="37.84393" lon="-25.30585">
					<ele>159</ele>
					<time>0001-01-01T00:00:00Z</time>
				</trkpt>
				<trkpt lat="37.84391" lon="-25.30570">
					<ele>159</ele>
					<time>0001-01-01T00:00:00Z</time>
				</trkpt>
				<trkpt lat="37.84400" lon="-25.30545">
					<ele>158</ele>
					<time>0001-01-01T00:00:00Z</time>
				</trkpt>
				<trkpt lat="37.84429" lon="-25.30516">
					<ele>154</ele>
					<time>0001-01-01T00:00:00Z</time>
				</trkpt>
				<trkpt lat="37.84581" lon="-25.30441">
					<ele>140</ele>
					<time>0001-01-01T00:00:00Z</time>
				</trkpt>
				<trkpt lat="37.84639" lon="-25.30460">
					<ele>138</ele>
					<time>0001-01-01T00:00:00Z</time>
				</trkpt>
				<trkpt lat="37.84685" lon="-25.30436">
					<ele>140</ele>
					<time>0001-01-01T00:00:00Z</time>
				</trkpt>
				<trkpt lat="37.84749" lon="-25.30369">
					<ele>143</ele>
					<time>0001-01-01T00:00:00Z</time>
				</trkpt>
				<trkpt lat="37.84806" lon="-25.30350">
					<ele>143</ele>
					<time>0001-01-01T00:00:00Z</time>
				</trkpt>
				<trkpt lat="37.84890" lon="-25.30347">
					<ele>148</ele>
					<time>0001-01-01T00:00:00Z</time>
				</trkpt>
				<trkpt lat="37.84965" lon="-25.30349">
					<ele>153</ele>
					<time>0001-01-01T00:00:00Z</time>
				</trkpt>
				<trkpt lat="37.85029" lon="-25.30368">
					<ele>156</ele>
					<time>0001-01-01T00:00:00Z</time>
				</trkpt>
				<trkpt lat="37.85077" lon="-25.30393">
					<ele>158</ele>
					<time>0001-01-01T00:00:00Z</time>
				</trkpt>
				<trkpt lat="37.85119" lon="-25.30363">
					<ele>162</ele>
					<time>0001-01-01T00:00:00Z</time>
				</trkpt>
				<trkpt lat="37.85137" lon="-25.30306">
					<ele>167</ele>
					<time>0001-01-01T00:00:00Z</time>
				</trkpt>
				<trkpt lat="37.85123" lon="-25.30240">
					<ele>176</ele>
					<time>0001-01-01T00:00:00Z</time>
				</trkpt>
				<trkpt lat="37.85088" lon="-25.30149">
					<ele>186</ele>
					<time>0001-01-01T00:00:00Z</time>
				</trkpt>
				<trkpt lat="37.85058" lon="-25.30071">
					<ele>191</ele>
					<time>0001-01-01T00:00:00Z</time>
				</trkpt>
				<trkpt lat="37.85031" lon="-25.29967">
					<ele>194</ele>
					<time>0001-01-01T00:00:00Z</time>
				</trkpt>
				<trkpt lat="37.85027" lon="-25.29919">
					<ele>193</ele>
					<time>0001-01-01T00:00:00Z</time>
				</trkpt>
				<trkpt lat="37.85023" lon="-25.29907">
					<ele>193</ele>
					<time>0001-01-01T00:00:00Z</time>
				</trkpt>
				<trkpt lat="37.84992" lon="-25.29876">
					<ele>191</ele>
					<time>0001-01-01T00:00:00Z</time>
				</trkpt>
				<trkpt lat="37.84888" lon="-25.29834">
					<ele>187</ele>
					<time>0001-01-01T00:00:00Z</time>
				</trkpt>
				<trkpt lat="37.84880" lon="-25.29784">
					<ele>187</ele>
					<time>0001-01-01T00:00:00Z</time>
				</trkpt>
				<trkpt lat="37.84908" lon="-25.29761">
					<ele>187</ele>
					<time>0001-01-01T00:00:00Z</time>
				</trkpt>
				<trkpt lat="37.84935" lon="-25.29750">
					<ele>186</ele>
					<time>0001-01-01T00:00:00Z</time>
				</trkpt>
				<trkpt lat="37.84962" lon="-25.29715">
					<ele>187</ele>
					<time>0001-01-01T00:00:00Z</time>
				</trkpt>
				<trkpt lat="37.84971" lon="-25.29696">
					<ele>187</ele>
					<time>0001-01-01T00:00:00Z</time>
				</trkpt>
				<trkpt lat="37.84961" lon="-25.29613">
					<ele>188</ele>
					<time>0001-01-01T00:00:00Z</time>
				</trkpt>
				<trkpt lat="37.84901" lon="-25.29522">
					<ele>186</ele>
					<time>0001-01-01T00:00:00Z</time>
				</trkpt>
				<trkpt lat="37.84860" lon="-25.29503">
					<ele>185</ele>
					<time>0001-01-01T00:00:00Z</time>
				</trkpt>
				<trkpt lat="37.84791" lon="-25.29496">
					<ele>183</ele>
					<time>0001-01-01T00:00:00Z</time>
				</trkpt>
				<trkpt lat="37.84637" lon="-25.29372">
					<ele>182</ele>
					<time>0001-01-01T00:00:00Z</time>
				</trkpt>
				<trkpt lat="37.84674" lon="-25.29402">
					<ele>178</ele>
					<time>0001-01-01T00:00:00Z</time>
				</trkpt>
				<trkpt lat="37.84680" lon="-25.29399">
					<ele>177</ele>
					<time>0001-01-01T00:00:00Z</time>
				</trkpt>
				<trkpt lat="37.84698" lon="-25.29393">
					<ele>176</ele>
					<time>0001-01-01T00:00:00Z</time>
				</trkpt>
				<trkpt lat="37.84730" lon="-25.29403">
					<ele>175</ele>
					<time>0001-01-01T00:00:00Z</time>
				</trkpt>
				<trkpt lat="37.84776" lon="-25.29436">
					<ele>174</ele>
					<time>0001-01-01T00:00:00Z</time>
				</trkpt>
				<trkpt lat="37.84795" lon="-25.29440">
					<ele>173</ele>
					<time>0001-01-01T00:00:00Z</time>
				</trkpt>
				<trkpt lat="37.84859" lon="-25.29393">
					<ele>171</ele>
					<time>0001-01-01T00:00:00Z</time>
				</trkpt>
				<trkpt lat="37.84886" lon="-25.29377">
					<ele>171</ele>
					<time>0001-01-01T00:00:00Z</time>
				</trkpt>
				<trkpt lat="37.84912" lon="-25.29370">
					<ele>172</ele>
					<time>0001-01-01T00:00:00Z</time>
				</trkpt>
				<trkpt lat="37.84942" lon="-25.29374">
					<ele>172</ele>
					<time>0001-01-01T00:00:00Z</time>
				</trkpt>
				<trkpt lat="37.84971" lon="-25.29360">
					<ele>172</ele>
					<time>0001-01-01T00:00:00Z</time>
				</trkpt>
				<trkpt lat="37.85018" lon="-25.29292">
					<ele>174</ele>
					<time>0001-01-01T00:00:00Z</time>
				</trkpt>
				<trkpt lat="37.85022" lon="-25.29260">
					<ele>175</ele>
					<time>0001-01-01T00:00:00Z</time>
				</trkpt>
				<trkpt lat="37.84988" lon="-25.29245">
					<ele>181</ele>
					<time>0001-01-01T00:00:00Z</time>
				</trkpt>
				<trkpt lat="37.84931" lon="-25.29230">
					<ele>186</ele>
					<time>0001-01-01T00:00:00Z</time>
				</trkpt>
				<trkpt lat="37.84867" lon="-25.29209">
					<ele>189</ele>
					<time>0001-01-01T00:00:00Z</time>
				</trkpt>
				<trkpt lat="37.84774" lon="-25.29180">
					<ele>192</ele>
					<time>0001-01-01T00:00:00Z</time>
				</trkpt>
				<trkpt lat="37.84692" lon="-25.29152">
					<ele>197</ele>
					<time>0001-01-01T00:00:00Z</time>
				</trkpt>
				<trkpt lat="37.84674" lon="-25.29142">
					<ele>197</ele>
					<time>0001-01-01T00:00:00Z</time>
				</trkpt>
				<trkpt lat="37.84698" lon="-25.29100">
					<ele>198</ele>
					<time>0001-01-01T00:00:00Z</time>
				</trkpt>
				<trkpt lat="37.84746" lon="-25.29083">
					<ele>200</ele>
					<time>0001-01-01T00:00:00Z</time>
				</trkpt>
				<trkpt lat="37.84783" lon="-25.29076">
					<ele>200</ele>
					<time>0001-01-01T00:00:00Z</time>
				</trkpt>
				<trkpt lat="37.84814" lon="-25.29036">
					<ele>198</ele>
					<time>0001-01-01T00:00:00Z</time>
				</trkpt>
				<trkpt lat="37.84848" lon="-25.28916">
					<ele>191</ele>
					<time>0001-01-01T00:00:00Z</time>
				</trkpt>
				<trkpt lat="37.84898" lon="-25.28743">
					<ele>182</ele>
					<time>0001-01-01T00:00:00Z</time>
				</trkpt>
				<trkpt lat="37.84922" lon="-25.28699">
					<ele>179</ele>
					<time>0001-01-01T00:00:00Z</time>
				</trkpt>
				<trkpt lat="37.84964" lon="-25.28649">
					<ele>179</ele>
					<time>0001-01-01T00:00:00Z</time>
				</trkpt>
				<trkpt lat="37.85002" lon="-25.28551">
					<ele>181</ele>
					<time>0001-01-01T00:00:00Z</time>
				</trkpt>
				<trkpt lat="37.85024" lon="-25.28489">
					<ele>182</ele>
					<time>0001-01-01T00:00:00Z</time>
				</trkpt>
				<trkpt lat="37.85050" lon="-25.28404">
					<ele>187</ele>
					<time>0001-01-01T00:00:00Z</time>
				</trkpt>
				<trkpt lat="37.85029" lon="-25.28362">
					<ele>190</ele>
					<time>0001-01-01T00:00:00Z</time>
				</trkpt>
				<trkpt lat="37.84979" lon="-25.28341">
					<ele>192</ele>
					<time>0001-01-01T00:00:00Z</time>
				</trkpt>
				<trkpt lat="37.84942" lon="-25.28298">
					<ele>194</ele>
					<time>0001-01-01T00:00:00Z</time>
				</trkpt>
				<trkpt lat="37.84906" lon="-25.28199">
					<ele>194</ele>
					<time>0001-01-01T00:00:00Z</time>
				</trkpt>
				<trkpt lat="37.84899" lon="-25.28160">
					<ele>194</ele>
					<time>0001-01-01T00:00:00Z</time>
				</trkpt>
				<trkpt lat="37.84903" lon="-25.28021">
					<ele>194</ele>
					<time>0001-01-01T00:00:00Z</time>
				</trkpt>
				<trkpt lat="37.84895" lon="-25.27978">
					<ele>195</ele>
					<time>0001-01-01T00:00:00Z</time>
				</trkpt>
				<trkpt lat="37.84887" lon="-25.27959">
					<ele>195</ele>
					<time>0001-01-01T00:00:00Z</time>
				</trkpt>
				<trkpt lat="37.84862" lon="-25.27931">
					<ele>196</ele>
					<time>0001-01-01T00:00:00Z</time>
				</trkpt>
				<trkpt lat="37.84800" lon="-25.27902">
					<ele>197</ele>
					<time>0001-01-01T00:00:00Z</time>
				</trkpt>
				<trkpt lat="37.84784" lon="-25.27882">
					<ele>198</ele>
					<time>0001-01-01T00:00:00Z</time>
				</trkpt>
				<trkpt lat="37.84781" lon="-25.27846">
					<ele>198</ele>
					<time>0001-01-01T00:00:00Z</time>
				</trkpt>
				<trkpt lat="37.84754" lon="-25.27806">
					<ele>199</ele>
					<time>0001-01-01T00:00:00Z</time>
				</trkpt>
				<trkpt lat="37.84738" lon="-25.27809">
					<ele>200</ele>
					<time>0001-01-01T00:00:00Z</time>
				</trkpt>
				<trkpt lat="37.84694" lon="-25.27822">
					<ele>203</ele>
					<time>0001-01-01T00:00:00Z</time>
				</trkpt>
				<trkpt lat="37.84674" lon="-25.27820">
					<ele>204</ele>
					<time>0001-01-01T00:00:00Z</time>
				</trkpt>
				<trkpt lat="37.84605" lon="-25.27760">
					<ele>208</ele>
					<time>0001-01-01T00:00:00Z</time>
				</trkpt>
				<trkpt lat="37.84591" lon="-25.27752">
					<ele>209</ele>
					<time>0001-01-01T00:00:00Z</time>
				</trkpt>
				<trkpt lat="37.84490" lon="-25.27774">
					<ele>206</ele>
					<time>0001-01-01T00:00:00Z</time>
				</trkpt>
				<trkpt lat="37.84437" lon="-25.27817">
					<ele>205</ele>
					<time>0001-01-01T00:00:00Z</time>
				</trkpt>
				<trkpt lat="37.84421" lon="-25.27885">
					<ele>202</ele>
					<time>0001-01-01T00:00:00Z</time>
				</trkpt>
				<trkpt lat="37.84379" lon="-25.27913">
					<ele>203</ele>
					<time>0001-01-01T00:00:00Z</time>
				</trkpt>
				<trkpt lat="37.84371" lon="-25.27891">
					<ele>203</ele>
					<time>0001-01-01T00:00:00Z</time>
				</trkpt>
				<trkpt lat="37.84374" lon="-25.27870">
					<ele>202</ele>
					<time>0001-01-01T00:00:00Z</time>
				</trkpt>
				<trkpt lat="37.84387" lon="-25.27809">
					<ele>202</ele>
					<time>0001-01-01T00:00:00Z</time>
				</trkpt>
				<trkpt lat="37.84391" lon="-25.27810">
					<ele>205</ele>
					<time>0001-01-01T00:00:00Z</time>
				</trkpt>
				<trkpt lat="37.84393" lon="-25.27807">
					<ele>207</ele>
					<time>0001-01-01T00:00:00Z</time>
				</trkpt>
				<trkpt lat="37.84390" lon="-25.27793">
					<ele>209</ele>
					<time>0001-01-01T00:00:00Z</time>
				</trkpt>
				<trkpt lat="37.84393" lon="-25.27786">
					<ele>207</ele>
					<time>0001-01-01T00:00:00Z</time>
				</trkpt>
				<trkpt lat="37.84393" lon="-25.27785">
					<ele>207</ele>
					<time>0001-01-01T00:00:00Z</time>
				</trkpt>
				<trkpt lat="37.84395" lon="-25.27777">
					<ele>206</ele>
					<time>0001-01-01T00:00:00Z</time>
				</trkpt>
				<trkpt lat="37.84400" lon="-25.27726">
					<ele>206</ele>
					<time>0001-01-01T00:00:00Z</time>
				</trkpt>
				<trkpt lat="37.84410" lon="-25.27657">
					<ele>208</ele>
					<time>0001-01-01T00:00:00Z</time>
				</trkpt>
				<trkpt lat="37.84402" lon="-25.27579">
					<ele>212</ele>
					<time>0001-01-01T00:00:00Z</time>
				</trkpt>
				<trkpt lat="37.84349" lon="-25.27524">
					<ele>211</ele>
					<time>0001-01-01T00:00:00Z</time>
				</trkpt>
				<trkpt lat="37.84342" lon="-25.27514">
					<ele>211</ele>
					<time>0001-01-01T00:00:00Z</time>
				</trkpt>
				<trkpt lat="37.84311" lon="-25.27451">
					<ele>209</ele>
					<time>0001-01-01T00:00:00Z</time>
				</trkpt>
				<trkpt lat="37.84273" lon="-25.27413">
					<ele>209</ele>
					<time>0001-01-01T00:00:00Z</time>
				</trkpt>
				<trkpt lat="37.84240" lon="-25.27364">
					<ele>208</ele>
					<time>0001-01-01T00:00:00Z</time>
				</trkpt>
				<trkpt lat="37.84249" lon="-25.27352">
					<ele>208</ele>
					<time>0001-01-01T00:00:00Z</time>
				</trkpt>
				<trkpt lat="37.84350" lon="-25.27343">
					<ele>210</ele>
					<time>0001-01-01T00:00:00Z</time>
				</trkpt>
				<trkpt lat="37.84395" lon="-25.27330">
					<ele>211</ele>
					<time>0001-01-01T00:00:00Z</time>
				</trkpt>
				<trkpt lat="37.84422" lon="-25.27277">
					<ele>214</ele>
					<time>0001-01-01T00:00:00Z</time>
				</trkpt>
				<trkpt lat="37.84420" lon="-25.27247">
					<ele>216</ele>
					<time>0001-01-01T00:00:00Z</time>
				</trkpt>
				<trkpt lat="37.84384" lon="-25.27151">
					<ele>218</ele>
					<time>0001-01-01T00:00:00Z</time>
				</trkpt>
				<trkpt lat="37.84377" lon="-25.27134">
					<ele>218</ele>
					<time>0001-01-01T00:00:00Z</time>
				</trkpt>
				<trkpt lat="37.84358" lon="-25.27022">
					<ele>216</ele>
					<time>0001-01-01T00:00:00Z</time>
				</trkpt>
				<trkpt lat="37.84303" lon="-25.26982">
					<ele>215</ele>
					<time>0001-01-01T00:00:00Z</time>
				</trkpt>
				<trkpt lat="37.84288" lon="-25.26941">
					<ele>214</ele>
					<time>0001-01-01T00:00:00Z</time>
				</trkpt>
				<trkpt lat="37.84291" lon="-25.26853">
					<ele>214</ele>
					<time>0001-01-01T00:00:00Z</time>
				</trkpt>
				<trkpt lat="37.84254" lon="-25.26823">
					<ele>212</ele>
					<time>0001-01-01T00:00:00Z</time>
				</trkpt>
				<trkpt lat="37.84194" lon="-25.26805">
					<ele>209</ele>
					<time>0001-01-01T00:00:00Z</time>
				</trkpt>
				<trkpt lat="37.84194" lon="-25.26804">
					<ele>210</ele>
					<time>0001-01-01T00:00:00Z</time>
				</trkpt>
				<trkpt lat="37.84189" lon="-25.26789">
					<ele>205</ele>
					<time>0001-01-01T00:00:00Z</time>
				</trkpt>
				<trkpt lat="37.84189" lon="-25.26793">
					<ele>196</ele>
					<time>0001-01-01T00:00:00Z</time>
				</trkpt>
				<trkpt lat="37.84157" lon="-25.26780">
					<ele>196</ele>
					<time>0001-01-01T00:00:00Z</time>
				</trkpt>
				<trkpt lat="37.84156" lon="-25.26777">
					<ele>196</ele>
					<time>0001-01-01T00:00:00Z</time>
				</trkpt>
				<trkpt lat="37.84180" lon="-25.26748">
					<ele>195</ele>
					<time>0001-01-01T00:00:00Z</time>
				</trkpt>
				<trkpt lat="37.84241" lon="-25.26736">
					<ele>196</ele>
					<time>0001-01-01T00:00:00Z</time>
				</trkpt>
				<trkpt lat="37.84291" lon="-25.26726">
					<ele>198</ele>
					<time>0001-01-01T00:00:00Z</time>
				</trkpt>
				<trkpt lat="37.84296" lon="-25.26730">
					<ele>199</ele>
					<time>0001-01-01T00:00:00Z</time>
				</trkpt>
				<trkpt lat="37.84303" lon="-25.26730">
					<ele>201</ele>
					<time>0001-01-01T00:00:00Z</time>
				</trkpt>
				<trkpt lat="37.84314" lon="-25.26728">
					<ele>200</ele>
					<time>0001-01-01T00:00:00Z</time>
				</trkpt>
				<trkpt lat="37.84340" lon="-25.26735">
					<ele>201</ele>
					<time>0001-01-01T00:00:00Z</time>
				</trkpt>
				<trkpt lat="37.84384" lon="-25.26801">
					<ele>203</ele>
					<time>0001-01-01T00:00:00Z</time>
				</trkpt>
				<trkpt lat="37.84425" lon="-25.26830">
					<ele>209</ele>
					<time>0001-01-01T00:00:00Z</time>
				</trkpt>
				<trkpt lat="37.84481" lon="-25.26860">
					<ele>210</ele>
					<time>0001-01-01T00:00:00Z</time>
				</trkpt>
				<trkpt lat="37.84539" lon="-25.26900">
					<ele>213</ele>
					<time>0001-01-01T00:00:00Z</time>
				</trkpt>
				<trkpt lat="37.84557" lon="-25.26903">
					<ele>213</ele>
					<time>0001-01-01T00:00:00Z</time>
				</trkpt>
				<trkpt lat="37.84580" lon="-25.26896">
					<ele>214</ele>
					<time>0001-01-01T00:00:00Z</time>
				</trkpt>
				<trkpt lat="37.84588" lon="-25.26890">
					<ele>214</ele>
					<time>0001-01-01T00:00:00Z</time>
				</trkpt>
				<trkpt lat="37.84603" lon="-25.26867">
					<ele>214</ele>
					<time>0001-01-01T00:00:00Z</time>
				</trkpt>
				<trkpt lat="37.84643" lon="-25.26743">
					<ele>217</ele>
					<time>0001-01-01T00:00:00Z</time>
				</trkpt>
				<trkpt lat="37.84648" lon="-25.26725">
					<ele>217</ele>
					<time>0001-01-01T00:00:00Z</time>
				</trkpt>
				<trkpt lat="37.84639" lon="-25.26687">
					<ele>218</ele>
					<time>0001-01-01T00:00:00Z</time>
				</trkpt>
				<trkpt lat="37.84630" lon="-25.26662">
					<ele>218</ele>
					<time>0001-01-01T00:00:00Z</time>
				</trkpt>
				<trkpt lat="37.84644" lon="-25.26609">
					<ele>219</ele>
					<time>0001-01-01T00:00:00Z</time>
				</trkpt>
				<trkpt lat="37.84689" lon="-25.26580">
					<ele>220</ele>
					<time>0001-01-01T00:00:00Z</time>
				</trkpt>
				<trkpt lat="37.84707" lon="-25.26546">
					<ele>221</ele>
					<time>0001-01-01T00:00:00Z</time>
				</trkpt>
				<trkpt lat="37.84707" lon="-25.26474">
					<ele>224</ele>
					<time>0001-01-01T00:00:00Z</time>
				</trkpt>
				<trkpt lat="37.84664" lon="-25.26426">
					<ele>227</ele>
					<time>0001-01-01T00:00:00Z</time>
				</trkpt>
				<trkpt lat="37.84664" lon="-25.26369">
					<ele>229</ele>
					<time>0001-01-01T00:00:00Z</time>
				</trkpt>
				<trkpt lat="37.84700" lon="-25.26263">
					<ele>234</ele>
					<time>0001-01-01T00:00:00Z</time>
				</trkpt>
				<trkpt lat="37.84717" lon="-25.26176">
					<ele>237</ele>
					<time>0001-01-01T00:00:00Z</time>
				</trkpt>
				<trkpt lat="37.84683" lon="-25.26130">
					<ele>239</ele>
					<time>0001-01-01T00:00:00Z</time>
				</trkpt>
				<trkpt lat="37.84597" lon="-25.26067">
					<ele>242</ele>
					<time>0001-01-01T00:00:00Z</time>
				</trkpt>
				<trkpt lat="37.84580" lon="-25.26050">
					<ele>244</ele>
					<time>0001-01-01T00:00:00Z</time>
				</trkpt>
				<trkpt lat="37.84569" lon="-25.26021">
					<ele>245</ele>
					<time>0001-01-01T00:00:00Z</time>
				</trkpt>
				<trkpt lat="37.84555" lon="-25.25889">
					<ele>245</ele>
					<time>0001-01-01T00:00:00Z</time>
				</trkpt>
				<trkpt lat="37.84544" lon="-25.25872">
					<ele>245</ele>
					<time>0001-01-01T00:00:00Z</time>
				</trkpt>
				<trkpt lat="37.84443" lon="-25.25799">
					<ele>244</ele>
					<time>0001-01-01T00:00:00Z</time>
				</trkpt>
				<trkpt lat="37.84390" lon="-25.25742">
					<ele>242</ele>
					<time>0001-01-01T00:00:00Z</time>
				</trkpt>
				<trkpt lat="37.84346" lon="-25.25734">
					<ele>241</ele>
					<time>0001-01-01T00:00:00Z</time>
				</trkpt>
				<trkpt lat="37.84314" lon="-25.25700">
					<ele>240</ele>
					<time>0001-01-01T00:00:00Z</time>
				</trkpt>
				<trkpt lat="37.84323" lon="-25.25666">
					<ele>239</ele>
					<time>0001-01-01T00:00:00Z</time>
				</trkpt>
				<trkpt lat="37.84356" lon="-25.25638">
					<ele>239</ele>
					<time>0001-01-01T00:00:00Z</time>
				</trkpt>
				<trkpt lat="37.84427" lon="-25.25611">
					<ele>239</ele>
					<time>0001-01-01T00:00:00Z</time>
				</trkpt>
				<trkpt lat="37.84450" lon="-25.25625">
					<ele>240</ele>
					<time>0001-01-01T00:00:00Z</time>
				</trkpt>
				<trkpt lat="37.84459" lon="-25.25634">
					<ele>240</ele>
					<time>0001-01-01T00:00:00Z</time>
				</trkpt>
				<trkpt lat="37.84509" lon="-25.25686">
					<ele>240</ele>
					<time>0001-01-01T00:00:00Z</time>
				</trkpt>
				<trkpt lat="37.84611" lon="-25.25717">
					<ele>239</ele>
					<time>0001-01-01T00:00:00Z</time>
				</trkpt>
				<trkpt lat="37.84619" lon="-25.25719">
					<ele>239</ele>
					<time>0001-01-01T00:00:00Z</time>
				</trkpt>
				<trkpt lat="37.84649" lon="-25.25741">
					<ele>238</ele>
					<time>0001-01-01T00:00:00Z</time>
				</trkpt>
				<trkpt lat="37.84693" lon="-25.25765">
					<ele>237</ele>
					<time>0001-01-01T00:00:00Z</time>
				</trkpt>
				<trkpt lat="37.84766" lon="-25.25786">
					<ele>234</ele>
					<time>0001-01-01T00:00:00Z</time>
				</trkpt>
				<trkpt lat="37.84794" lon="-25.25810">
					<ele>230</ele>
					<time>0001-01-01T00:00:00Z</time>
				</trkpt>
				<trkpt lat="37.84856" lon="-25.25845">
					<ele>227</ele>
					<time>0001-01-01T00:00:00Z</time>
				</trkpt>
				<trkpt lat="37.84938" lon="-25.25836">
					<ele>222</ele>
					<time>0001-01-01T00:00:00Z</time>
				</trkpt>
				<trkpt lat="37.84980" lon="-25.25769">
					<ele>217</ele>
					<time>0001-01-01T00:00:00Z</time>
				</trkpt>
				<trkpt lat="37.85011" lon="-25.25586">
					<ele>211</ele>
					<time>0001-01-01T00:00:00Z</time>
				</trkpt>
				<trkpt lat="37.85001" lon="-25.25503">
					<ele>211</ele>
					<time>0001-01-01T00:00:00Z</time>
				</trkpt>
				<trkpt lat="37.85004" lon="-25.25465">
					<ele>212</ele>
					<time>0001-01-01T00:00:00Z</time>
				</trkpt>
				<trkpt lat="37.84987" lon="-25.25396">
					<ele>214</ele>
					<time>0001-01-01T00:00:00Z</time>
				</trkpt>
				<trkpt lat="37.84982" lon="-25.25334">
					<ele>216</ele>
					<time>0001-01-01T00:00:00Z</time>
				</trkpt>
				<trkpt lat="37.84982" lon="-25.25289">
					<ele>215</ele>
					<time>0001-01-01T00:00:00Z</time>
				</trkpt>
				<trkpt lat="37.84948" lon="-25.25173">
					<ele>214</ele>
					<time>0001-01-01T00:00:00Z</time>
				</trkpt>
				<trkpt lat="37.84935" lon="-25.25135">
					<ele>214</ele>
					<time>0001-01-01T00:00:00Z</time>
				</trkpt>
				<trkpt lat="37.84893" lon="-25.25102">
					<ele>213</ele>
					<time>0001-01-01T00:00:00Z</time>
				</trkpt>
				<trkpt lat="37.84820" lon="-25.25099">
					<ele>211</ele>
					<time>0001-01-01T00:00:00Z</time>
				</trkpt>
				<trkpt lat="37.84792" lon="-25.25068">
					<ele>209</ele>
					<time>0001-01-01T00:00:00Z</time>
				</trkpt>
				<trkpt lat="37.84796" lon="-25.25037">
					<ele>209</ele>
					<time>0001-01-01T00:00:00Z</time>
				</trkpt>
				<trkpt lat="37.85005" lon="-25.24996">
					<ele>209</ele>
					<time>0001-01-01T00:00:00Z</time>
				</trkpt>
				<trkpt lat="37.85056" lon="-25.25036">
					<ele>212</ele>
					<time>0001-01-01T00:00:00Z</time>
				</trkpt>
				<trkpt lat="37.85068" lon="-25.25042">
					<ele>212</ele>
					<time>0001-01-01T00:00:00Z</time>
				</trkpt>
				<trkpt lat="37.85096" lon="-25.25034">
					<ele>214</ele>
					<time>0001-01-01T00:00:00Z</time>
				</trkpt>
				<trkpt lat="37.85106" lon="-25.25017">
					<ele>214</ele>
					<time>0001-01-01T00:00:00Z</time>
				</trkpt>
				<trkpt lat="37.85115" lon="-25.24990">
					<ele>214</ele>
					<time>0001-01-01T00:00:00Z</time>
				</trkpt>
				<trkpt lat="37.85093" lon="-25.24941">
					<ele>213</ele>
					<time>0001-01-01T00:00:00Z</time>
				</trkpt>
				<trkpt lat="37.85036" lon="-25.24891">
					<ele>211</ele>
					<time>0001-01-01T00:00:00Z</time>
				</trkpt>
				<trkpt lat="37.85039" lon="-25.24844">
					<ele>211</ele>
					<time>0001-01-01T00:00:00Z</time>
				</trkpt>
				<trkpt lat="37.85052" lon="-25.24819">
					<ele>212</ele>
					<time>0001-01-01T00:00:00Z</time>
				</trkpt>
				<trkpt lat="37.85057" lon="-25.24808">
					<ele>212</ele>
					<time>0001-01-01T00:00:00Z</time>
				</trkpt>
				<trkpt lat="37.85056" lon="-25.24785">
					<ele>212</ele>
					<time>0001-01-01T00:00:00Z</time>
				</trkpt>
				<trkpt lat="37.85054" lon="-25.24783">
					<ele>214</ele>
					<time>0001-01-01T00:00:00Z</time>
				</trkpt>
				<trkpt lat="37.85056" lon="-25.24776">
					<ele>214</ele>
					<time>0001-01-01T00:00:00Z</time>
				</trkpt>
				<trkpt lat="37.85075" lon="-25.24769">
					<ele>214</ele>
					<time>0001-01-01T00:00:00Z</time>
				</trkpt>
				<trkpt lat="37.85079" lon="-25.24751">
					<ele>214</ele>
					<time>0001-01-01T00:00:00Z</time>
				</trkpt>
				<trkpt lat="37.85079" lon="-25.24626">
					<ele>216</ele>
					<time>0001-01-01T00:00:00Z</time>
				</trkpt>
				<trkpt lat="37.85053" lon="-25.24590">
					<ele>217</ele>
					<time>0001-01-01T00:00:00Z</time>
				</trkpt>
				<trkpt lat="37.85024" lon="-25.24577">
					<ele>219</ele>
					<time>0001-01-01T00:00:00Z</time>
				</trkpt>
				<trkpt lat="37.85003" lon="-25.24549">
					<ele>220</ele>
					<time>0001-01-01T00:00:00Z</time>
				</trkpt>
				<trkpt lat="37.84979" lon="-25.24446">
					<ele>222</ele>
					<time>0001-01-01T00:00:00Z</time>
				</trkpt>
				<trkpt lat="37.84976" lon="-25.24436">
					<ele>222</ele>
					<time>0001-01-01T00:00:00Z</time>
				</trkpt>
				<trkpt lat="37.84963" lon="-25.24416">
					<ele>223</ele>
					<time>0001-01-01T00:00:00Z</time>
				</trkpt>
				<trkpt lat="37.84897" lon="-25.24352">
					<ele>225</ele>
					<time>0001-01-01T00:00:00Z</time>
				</trkpt>
				<trkpt lat="37.84832" lon="-25.24263">
					<ele>220</ele>
					<time>0001-01-01T00:00:00Z</time>
				</trkpt>
				<trkpt lat="37.84803" lon="-25.24234">
					<ele>219</ele>
					<time>0001-01-01T00:00:00Z</time>
				</trkpt>
				<trkpt lat="37.84791" lon="-25.24188">
					<ele>219</ele>
					<time>0001-01-01T00:00:00Z</time>
				</trkpt>
				<trkpt lat="37.84728" lon="-25.24063">
					<ele>214</ele>
					<time>0001-01-01T00:00:00Z</time>
				</trkpt>
				<trkpt lat="37.84707" lon="-25.24031">
					<ele>213</ele>
					<time>0001-01-01T00:00:00Z</time>
				</trkpt>
				<trkpt lat="37.84695" lon="-25.24021">
					<ele>212</ele>
					<time>0001-01-01T00:00:00Z</time>
				</trkpt>
				<trkpt lat="37.84690" lon="-25.23960">
					<ele>211</ele>
					<time>0001-01-01T00:00:00Z</time>
				</trkpt>
				<trkpt lat="37.84689" lon="-25.23927">
					<ele>212</ele>
					<time>0001-01-01T00:00:00Z</time>
				</trkpt>
				<trkpt lat="37.84630" lon="-25.23881">
					<ele>213</ele>
					<time>0001-01-01T00:00:00Z</time>
				</trkpt>
				<trkpt lat="37.84620" lon="-25.23882">
					<ele>213</ele>
					<time>0001-01-01T00:00:00Z</time>
				</trkpt>
				<trkpt lat="37.84596" lon="-25.23879">
					<ele>214</ele>
					<time>0001-01-01T00:00:00Z</time>
				</trkpt>
				<trkpt lat="37.84574" lon="-25.23870">
					<ele>216</ele>
					<time>0001-01-01T00:00:00Z</time>
				</trkpt>
				<trkpt lat="37.84560" lon="-25.23859">
					<ele>217</ele>
					<time>0001-01-01T00:00:00Z</time>
				</trkpt>
				<trkpt lat="37.84548" lon="-25.23831">
					<ele>216</ele>
					<time>0001-01-01T00:00:00Z</time>
				</trkpt>
				<trkpt lat="37.84539" lon="-25.23800">
					<ele>216</ele>
					<time>0001-01-01T00:00:00Z</time>
				</trkpt>
				<trkpt lat="37.84568" lon="-25.23763">
					<ele>214</ele>
					<time>0001-01-01T00:00:00Z</time>
				</trkpt>
				<trkpt lat="37.84621" lon="-25.23779">
					<ele>214</ele>
					<time>0001-01-01T00:00:00Z</time>
				</trkpt>
				<trkpt lat="37.84664" lon="-25.23774">
					<ele>215</ele>
					<time>0001-01-01T00:00:00Z</time>
				</trkpt>
				<trkpt lat="37.84693" lon="-25.23776">
					<ele>217</ele>
					<time>0001-01-01T00:00:00Z</time>
				</trkpt>
				<trkpt lat="37.84906" lon="-25.23876">
					<ele>222</ele>
					<time>0001-01-01T00:00:00Z</time>
				</trkpt>
				<trkpt lat="37.84960" lon="-25.23925">
					<ele>225</ele>
					<time>0001-01-01T00:00:00Z</time>
				</trkpt>
				<trkpt lat="37.84969" lon="-25.23932">
					<ele>225</ele>
					<time>0001-01-01T00:00:00Z</time>
				</trkpt>
				<trkpt lat="37.84999" lon="-25.23922">
					<ele>227</ele>
					<time>0001-01-01T00:00:00Z</time>
				</trkpt>
				<trkpt lat="37.85067" lon="-25.23820">
					<ele>231</ele>
					<time>0001-01-01T00:00:00Z</time>
				</trkpt>
				<trkpt lat="37.85132" lon="-25.23719">
					<ele>236</ele>
					<time>0001-01-01T00:00:00Z</time>
				</trkpt>
				<trkpt lat="37.85137" lon="-25.23698">
					<ele>237</ele>
					<time>0001-01-01T00:00:00Z</time>
				</trkpt>
				<trkpt lat="37.85137" lon="-25.23671">
					<ele>238</ele>
					<time>0001-01-01T00:00:00Z</time>
				</trkpt>
				<trkpt lat="37.85127" lon="-25.23640">
					<ele>239</ele>
					<time>0001-01-01T00:00:00Z</time>
				</trkpt>
				<trkpt lat="37.85115" lon="-25.23623">
					<ele>240</ele>
					<time>0001-01-01T00:00:00Z</time>
				</trkpt>
				<trkpt lat="37.85105" lon="-25.23613">
					<ele>241</ele>
					<time>0001-01-01T00:00:00Z</time>
				</trkpt>
				<trkpt lat="37.85015" lon="-25.23562">
					<ele>243</ele>
					<time>0001-01-01T00:00:00Z</time>
				</trkpt>
				<trkpt lat="37.84926" lon="-25.23514">
					<ele>247</ele>
					<time>0001-01-01T00:00:00Z</time>
				</trkpt>
				<trkpt lat="37.84875" lon="-25.23473">
					<ele>252</ele>
					<time>0001-01-01T00:00:00Z</time>
				</trkpt>
				<trkpt lat="37.84858" lon="-25.23418">
					<ele>258</ele>
					<time>0001-01-01T00:00:00Z</time>
				</trkpt>
				<trkpt lat="37.84867" lon="-25.23359">
					<ele>262</ele>
					<time>0001-01-01T00:00:00Z</time>
				</trkpt>
				<trkpt lat="37.84890" lon="-25.23298">
					<ele>268</ele>
					<time>0001-01-01T00:00:00Z</time>
				</trkpt>
				<trkpt lat="37.84904" lon="-25.23225">
					<ele>269</ele>
					<time>0001-01-01T00:00:00Z</time>
				</trkpt>
				<trkpt lat="37.84891" lon="-25.23175">
					<ele>269</ele>
					<time>0001-01-01T00:00:00Z</time>
				</trkpt>
				<trkpt lat="37.84840" lon="-25.23083">
					<ele>264</ele>
					<time>0001-01-01T00:00:00Z</time>
				</trkpt>
				<trkpt lat="37.84843" lon="-25.23020">
					<ele>260</ele>
					<time>0001-01-01T00:00:00Z</time>
				</trkpt>
				<trkpt lat="37.84848" lon="-25.23010">
					<ele>259</ele>
					<time>0001-01-01T00:00:00Z</time>
				</trkpt>
				<trkpt lat="37.84879" lon="-25.22951">
					<ele>256</ele>
					<time>0001-01-01T00:00:00Z</time>
				</trkpt>
				<trkpt lat="37.84890" lon="-25.22895">
					<ele>252</ele>
					<time>0001-01-01T00:00:00Z</time>
				</trkpt>
				<trkpt lat="37.84891" lon="-25.22845">
					<ele>248</ele>
					<time>0001-01-01T00:00:00Z</time>
				</trkpt>
				<trkpt lat="37.84921" lon="-25.22802">
					<ele>244</ele>
					<time>0001-01-01T00:00:00Z</time>
				</trkpt>
				<trkpt lat="37.84931" lon="-25.22801">
					<ele>243</ele>
					<time>0001-01-01T00:00:00Z</time>
				</trkpt>
				<trkpt lat="37.84951" lon="-25.22799">
					<ele>241</ele>
					<time>0001-01-01T00:00:00Z</time>
				</trkpt>
				<trkpt lat="37.84989" lon="-25.22755">
					<ele>238</ele>
					<time>0001-01-01T00:00:00Z</time>
				</trkpt>
				<trkpt lat="37.84991" lon="-25.22744">
					<ele>237</ele>
					<time>0001-01-01T00:00:00Z</time>
				</trkpt>
				<trkpt lat="37.85029" lon="-25.22687">
					<ele>233</ele>
					<time>0001-01-01T00:00:00Z</time>
				</trkpt>
				<trkpt lat="37.85038" lon="-25.22686">
					<ele>233</ele>
					<time>0001-01-01T00:00:00Z</time>
				</trkpt>
				<trkpt lat="37.85149" lon="-25.22649">
					<ele>227</ele>
					<time>0001-01-01T00:00:00Z</time>
				</trkpt>
				<trkpt lat="37.85292" lon="-25.22561">
					<ele>219</ele>
					<time>0001-01-01T00:00:00Z</time>
				</trkpt>
				<trkpt lat="37.85311" lon="-25.22521">
					<ele>217</ele>
					<time>0001-01-01T00:00:00Z</time>
				</trkpt>
				<trkpt lat="37.85337" lon="-25.22426">
					<ele>211</ele>
					<time>0001-01-01T00:00:00Z</time>
				</trkpt>
				<trkpt lat="37.85318" lon="-25.22381">
					<ele>208</ele>
					<time>0001-01-01T00:00:00Z</time>
				</trkpt>
				<trkpt lat="37.85303" lon="-25.22381">
					<ele>205</ele>
					<time>0001-01-01T00:00:00Z</time>
				</trkpt>
				<trkpt lat="37.85302" lon="-25.22383">
					<ele>202</ele>
					<time>0001-01-01T00:00:00Z</time>
				</trkpt>
				<trkpt lat="37.85298" lon="-25.22388">
					<ele>203</ele>
					<time>0001-01-01T00:00:00Z</time>
				</trkpt>
				<trkpt lat="37.85280" lon="-25.22396">
					<ele>200</ele>
					<time>0001-01-01T00:00:00Z</time>
				</trkpt>
				<trkpt lat="37.85229" lon="-25.22413">
					<ele>194</ele>
					<time>0001-01-01T00:00:00Z</time>
				</trkpt>
				<trkpt lat="37.85181" lon="-25.22398">
					<ele>186</ele>
					<time>0001-01-01T00:00:00Z</time>
				</trkpt>
				<trkpt lat="37.85115" lon="-25.22382">
					<ele>181</ele>
					<time>0001-01-01T00:00:00Z</time>
				</trkpt>
				<trkpt lat="37.85023" lon="-25.22350">
					<ele>168</ele>
					<time>0001-01-01T00:00:00Z</time>
				</trkpt>
				<trkpt lat="37.84978" lon="-25.22317">
					<ele>162</ele>
					<time>0001-01-01T00:00:00Z</time>
				</trkpt>
				<trkpt lat="37.84931" lon="-25.22273">
					<ele>154</ele>
					<time>0001-01-01T00:00:00Z</time>
				</trkpt>
				<trkpt lat="37.84863" lon="-25.22282">
					<ele>145</ele>
					<time>0001-01-01T00:00:00Z</time>
				</trkpt>
				<trkpt lat="37.84854" lon="-25.22291">
					<ele>144</ele>
					<time>0001-01-01T00:00:00Z</time>
				</trkpt>
				<trkpt lat="37.84829" lon="-25.22320">
					<ele>140</ele>
					<time>0001-01-01T00:00:00Z</time>
				</trkpt>
				<trkpt lat="37.84778" lon="-25.22315">
					<ele>136</ele>
					<time>0001-01-01T00:00:00Z</time>
				</trkpt>
				<trkpt lat="37.84769" lon="-25.22257">
					<ele>134</ele>
					<time>0001-01-01T00:00:00Z</time>
				</trkpt>
				<trkpt lat="37.84770" lon="-25.22248">
					<ele>134</ele>
					<time>0001-01-01T00:00:00Z</time>
				</trkpt>
				<trkpt lat="37.84842" lon="-25.22108">
					<ele>133</ele>
					<time>0001-01-01T00:00:00Z</time>
				</trkpt>
				<trkpt lat="37.84857" lon="-25.22099">
					<ele>135</ele>
					<time>0001-01-01T00:00:00Z</time>
				</trkpt>
				<trkpt lat="37.84936" lon="-25.22066">
					<ele>138</ele>
					<time>0001-01-01T00:00:00Z</time>
				</trkpt>
				<trkpt lat="37.84991" lon="-25.22052">
					<ele>140</ele>
					<time>0001-01-01T00:00:00Z</time>
				</trkpt>
				<trkpt lat="37.85036" lon="-25.22081">
					<ele>152</ele>
					<time>0001-01-01T00:00:00Z</time>
				</trkpt>
				<trkpt lat="37.85069" lon="-25.22074">
					<ele>159</ele>
					<time>0001-01-01T00:00:00Z</time>
				</trkpt>
				<trkpt lat="37.85096" lon="-25.22055">
					<ele>161</ele>
					<time>0001-01-01T00:00:00Z</time>
				</trkpt>
				<trkpt lat="37.85112" lon="-25.22036">
					<ele>162</ele>
					<time>0001-01-01T00:00:00Z</time>
				</trkpt>
				<trkpt lat="37.85131" lon="-25.22013">
					<ele>165</ele>
					<time>0001-01-01T00:00:00Z</time>
				</trkpt>
				<trkpt lat="37.85185" lon="-25.21987">
					<ele>171</ele>
					<time>0001-01-01T00:00:00Z</time>
				</trkpt>
				<trkpt lat="37.85181" lon="-25.21944">
					<ele>173</ele>
					<time>0001-01-01T00:00:00Z</time>
				</trkpt>
				<trkpt lat="37.85213" lon="-25.21913">
					<ele>177</ele>
					<time>0001-01-01T00:00:00Z</time>
				</trkpt>
				<trkpt lat="37.85247" lon="-25.21888">
					<ele>186</ele>
					<time>0001-01-01T00:00:00Z</time>
				</trkpt>
				<trkpt lat="37.85277" lon="-25.21862">
					<ele>192</ele>
					<time>0001-01-01T00:00:00Z</time>
				</trkpt>
				<trkpt lat="37.85299" lon="-25.21829">
					<ele>193</ele>
					<time>0001-01-01T00:00:00Z</time>
				</trkpt>
				<trkpt lat="37.85351" lon="-25.21812">
					<ele>205</ele>
					<time>0001-01-01T00:00:00Z</time>
				</trkpt>
				<trkpt lat="37.85406" lon="-25.21798">
					<ele>214</ele>
					<time>0001-01-01T00:00:00Z</time>
				</trkpt>
				<trkpt lat="37.85437" lon="-25.21754">
					<ele>218</ele>
					<time>0001-01-01T00:00:00Z</time>
				</trkpt>
				<trkpt lat="37.85448" lon="-25.21696">
					<ele>219</ele>
					<time>0001-01-01T00:00:00Z</time>
				</trkpt>
				<trkpt lat="37.85448" lon="-25.21690">
					<ele>218</ele>
					<time>0001-01-01T00:00:00Z</time>
				</trkpt>
				<trkpt lat="37.85440" lon="-25.21576">
					<ele>215</ele>
					<time>0001-01-01T00:00:00Z</time>
				</trkpt>
				<trkpt lat="37.85430" lon="-25.21469">
					<ele>209</ele>
					<time>0001-01-01T00:00:00Z</time>
				</trkpt>
				<trkpt lat="37.85413" lon="-25.21423">
					<ele>207</ele>
					<time>0001-01-01T00:00:00Z</time>
				</trkpt>
				<trkpt lat="37.85337" lon="-25.21332">
					<ele>207</ele>
					<time>0001-01-01T00:00:00Z</time>
				</trkpt>
				<trkpt lat="37.85312" lon="-25.21290">
					<ele>208</ele>
					<time>0001-01-01T00:00:00Z</time>
				</trkpt>
				<trkpt lat="37.85282" lon="-25.21167">
					<ele>207</ele>
					<time>0001-01-01T00:00:00Z</time>
				</trkpt>
				<trkpt lat="37.85254" lon="-25.21059">
					<ele>205</ele>
					<time>0001-01-01T00:00:00Z</time>
				</trkpt>
				<trkpt lat="37.85240" lon="-25.20990">
					<ele>201</ele>
					<time>0001-01-01T00:00:00Z</time>
				</trkpt>
				<trkpt lat="37.85244" lon="-25.20920">
					<ele>201</ele>
					<time>0001-01-01T00:00:00Z</time>
				</trkpt>
				<trkpt lat="37.85222" lon="-25.20833">
					<ele>195</ele>
					<time>0001-01-01T00:00:00Z</time>
				</trkpt>
				<trkpt lat="37.85229" lon="-25.20802">
					<ele>194</ele>
					<time>0001-01-01T00:00:00Z</time>
				</trkpt>
				<trkpt lat="37.85282" lon="-25.20775">
					<ele>189</ele>
					<time>0001-01-01T00:00:00Z</time>
				</trkpt>
				<trkpt lat="37.85297" lon="-25.20763">
					<ele>189</ele>
					<time>0001-01-01T00:00:00Z</time>
				</trkpt>
				<trkpt lat="37.85328" lon="-25.20708">
					<ele>186</ele>
					<time>0001-01-01T00:00:00Z</time>
				</trkpt>
				<trkpt lat="37.85347" lon="-25.20682">
					<ele>184</ele>
					<time>0001-01-01T00:00:00Z</time>
				</trkpt>
				<trkpt lat="37.85353" lon="-25.20628">
					<ele>181</ele>
					<time>0001-01-01T00:00:00Z</time>
				</trkpt>
				<trkpt lat="37.85316" lon="-25.20625">
					<ele>178</ele>
					<time>0001-01-01T00:00:00Z</time>
				</trkpt>
				<trkpt lat="37.85275" lon="-25.20637">
					<ele>176</ele>
					<time>0001-01-01T00:00:00Z</time>
				</trkpt>
				<trkpt lat="37.85204" lon="-25.20639">
					<ele>170</ele>
					<time>0001-01-01T00:00:00Z</time>
				</trkpt>
				<trkpt lat="37.85195" lon="-25.20643">
					<ele>169</ele>
					<time>0001-01-01T00:00:00Z</time>
				</trkpt>
				<trkpt lat="37.85156" lon="-25.20660">
					<ele>166</ele>
					<time>0001-01-01T00:00:00Z</time>
				</trkpt>
				<trkpt lat="37.85070" lon="-25.20669">
					<ele>161</ele>
					<time>0001-01-01T00:00:00Z</time>
				</trkpt>
				<trkpt lat="37.85031" lon="-25.20624">
					<ele>161</ele>
					<time>0001-01-01T00:00:00Z</time>
				</trkpt>
				<trkpt lat="37.85050" lon="-25.20577">
					<ele>162</ele>
					<time>0001-01-01T00:00:00Z</time>
				</trkpt>
				<trkpt lat="37.85107" lon="-25.20507">
					<ele>165</ele>
					<time>0001-01-01T00:00:00Z</time>
				</trkpt>
				<trkpt lat="37.85127" lon="-25.20437">
					<ele>169</ele>
					<time>0001-01-01T00:00:00Z</time>
				</trkpt>
				<trkpt lat="37.85091" lon="-25.20413">
					<ele>168</ele>
					<time>0001-01-01T00:00:00Z</time>
				</trkpt>
				<trkpt lat="37.85019" lon="-25.20385">
					<ele>162</ele>
					<time>0001-01-01T00:00:00Z</time>
				</trkpt>
				<trkpt lat="37.84935" lon="-25.20360">
					<ele>158</ele>
					<time>0001-01-01T00:00:00Z</time>
				</trkpt>
				<trkpt lat="37.84915" lon="-25.20315">
					<ele>155</ele>
					<time>0001-01-01T00:00:00Z</time>
				</trkpt>
				<trkpt lat="37.84940" lon="-25.20290">
					<ele>154</ele>
					<time>0001-01-01T00:00:00Z</time>
				</trkpt>
				<trkpt lat="37.84956" lon="-25.20281">
					<ele>154</ele>
					<time>0001-01-01T00:00:00Z</time>
				</trkpt>
				<trkpt lat="37.85039" lon="-25.20266">
					<ele>155</ele>
					<time>0001-01-01T00:00:00Z</time>
				</trkpt>
				<trkpt lat="37.85103" lon="-25.20253">
					<ele>157</ele>
					<time>0001-01-01T00:00:00Z</time>
				</trkpt>
				<trkpt lat="37.85152" lon="-25.20205">
					<ele>162</ele>
					<time>0001-01-01T00:00:00Z</time>
				</trkpt>
				<trkpt lat="37.85153" lon="-25.20149">
					<ele>165</ele>
					<time>0001-01-01T00:00:00Z</time>
				</trkpt>
				<trkpt lat="37.85156" lon="-25.20072">
					<ele>172</ele>
					<time>0001-01-01T00:00:00Z</time>
				</trkpt>
				<trkpt lat="37.85191" lon="-25.20016">
					<ele>176</ele>
					<time>0001-01-01T00:00:00Z</time>
				</trkpt>
				<trkpt lat="37.85202" lon="-25.19917">
					<ele>179</ele>
					<time>0001-01-01T00:00:00Z</time>
				</trkpt>
				<trkpt lat="37.85194" lon="-25.19834">
					<ele>185</ele>
					<time>0001-01-01T00:00:00Z</time>
				</trkpt>
				<trkpt lat="37.85169" lon="-25.19767">
					<ele>189</ele>
					<time>0001-01-01T00:00:00Z</time>
				</trkpt>
				<trkpt lat="37.85151" lon="-25.19720">
					<ele>194</ele>
					<time>0001-01-01T00:00:00Z</time>
				</trkpt>
				<trkpt lat="37.85138" lon="-25.19677">
					<ele>199</ele>
					<time>0001-01-01T00:00:00Z</time>
				</trkpt>
				<trkpt lat="37.85127" lon="-25.19625">
					<ele>201</ele>
					<time>0001-01-01T00:00:00Z</time>
				</trkpt>
				<trkpt lat="37.85107" lon="-25.19529">
					<ele>206</ele>
					<time>0001-01-01T00:00:00Z</time>
				</trkpt>
				<trkpt lat="37.85106" lon="-25.19443">
					<ele>210</ele>
					<time>0001-01-01T00:00:00Z</time>
				</trkpt>
				<trkpt lat="37.85117" lon="-25.19343">
					<ele>214</ele>
					<time>0001-01-01T00:00:00Z</time>
				</trkpt>
				<trkpt lat="37.85084" lon="-25.19317">
					<ele>216</ele>
					<time>0001-01-01T00:00:00Z</time>
				</trkpt>
				<trkpt lat="37.85018" lon="-25.19306">
					<ele>221</ele>
					<time>0001-01-01T00:00:00Z</time>
				</trkpt>
				<trkpt lat="37.84935" lon="-25.19287">
					<ele>227</ele>
					<time>0001-01-01T00:00:00Z</time>
				</trkpt>
				<trkpt lat="37.84915" lon="-25.19269">
					<ele>228</ele>
					<time>0001-01-01T00:00:00Z</time>
				</trkpt>
				<trkpt lat="37.84897" lon="-25.19194">
					<ele>227</ele>
					<time>0001-01-01T00:00:00Z</time>
				</trkpt>
				<trkpt lat="37.84889" lon="-25.19170">
					<ele>227</ele>
					<time>0001-01-01T00:00:00Z</time>
				</trkpt>
				<trkpt lat="37.84847" lon="-25.19146">
					<ele>225</ele>
					<time>0001-01-01T00:00:00Z</time>
				</trkpt>
				<trkpt lat="37.84801" lon="-25.19150">
					<ele>221</ele>
					<time>0001-01-01T00:00:00Z</time>
				</trkpt>
				<trkpt lat="37.84760" lon="-25.19097">
					<ele>217</ele>
					<time>0001-01-01T00:00:00Z</time>
				</trkpt>
				<trkpt lat="37.84766" lon="-25.19075">
					<ele>216</ele>
					<time>0001-01-01T00:00:00Z</time>
				</trkpt>
				<trkpt lat="37.84830" lon="-25.19030">
					<ele>216</ele>
					<time>0001-01-01T00:00:00Z</time>
				</trkpt>
				<trkpt lat="37.84908" lon="-25.18983">
					<ele>219</ele>
					<time>0001-01-01T00:00:00Z</time>
				</trkpt>
				<trkpt lat="37.84930" lon="-25.18968">
					<ele>220</ele>
					<time>0001-01-01T00:00:00Z</time>
				</trkpt>
				<trkpt lat="37.84942" lon="-25.18948">
					<ele>221</ele>
					<time>0001-01-01T00:00:00Z</time>
				</trkpt>
				<trkpt lat="37.84950" lon="-25.18921">
					<ele>220</ele>
					<time>0001-01-01T00:00:00Z</time>
				</trkpt>
				<trkpt lat="37.84971" lon="-25.18787">
					<ele>216</ele>
					<time>0001-01-01T00:00:00Z</time>
				</trkpt>
				<trkpt lat="37.84994" lon="-25.18625">
					<ele>209</ele>
					<time>0001-01-01T00:00:00Z</time>
				</trkpt>
				<trkpt lat="37.85023" lon="-25.18430">
					<ele>203</ele>
					<time>0001-01-01T00:00:00Z</time>
				</trkpt>
				<trkpt lat="37.85036" lon="-25.18343">
					<ele>207</ele>
					<time>0001-01-01T00:00:00Z</time>
				</trkpt>
				<trkpt lat="37.85045" lon="-25.18233">
					<ele>205</ele>
					<time>0001-01-01T00:00:00Z</time>
				</trkpt>
				<trkpt lat="37.85043" lon="-25.18217">
					<ele>205</ele>
					<time>0001-01-01T00:00:00Z</time>
				</trkpt>
				<trkpt lat="37.84992" lon="-25.18129">
					<ele>203</ele>
					<time>0001-01-01T00:00:00Z</time>
				</trkpt>
				<trkpt lat="37.84968" lon="-25.18097">
					<ele>202</ele>
					<time>0001-01-01T00:00:00Z</time>
				</trkpt>
				<trkpt lat="37.84942" lon="-25.18087">
					<ele>202</ele>
					<time>0001-01-01T00:00:00Z</time>
				</trkpt>
				<trkpt lat="37.84921" lon="-25.18085">
					<ele>202</ele>
					<time>0001-01-01T00:00:00Z</time>
				</trkpt>
				<trkpt lat="37.84892" lon="-25.18044">
					<ele>204</ele>
					<time>0001-01-01T00:00:00Z</time>
				</trkpt>
				<trkpt lat="37.84892" lon="-25.18021">
					<ele>204</ele>
					<time>0001-01-01T00:00:00Z</time>
				</trkpt>
				<trkpt lat="37.84899" lon="-25.18001">
					<ele>205</ele>
					<time>0001-01-01T00:00:00Z</time>
				</trkpt>
				<trkpt lat="37.84958" lon="-25.17965">
					<ele>205</ele>
					<time>0001-01-01T00:00:00Z</time>
				</trkpt>
				<trkpt lat="37.84980" lon="-25.17965">
					<ele>206</ele>
					<time>0001-01-01T00:00:00Z</time>
				</trkpt>
				<trkpt lat="37.85048" lon="-25.18016">
					<ele>207</ele>
					<time>0001-01-01T00:00:00Z</time>
				</trkpt>
				<trkpt lat="37.85073" lon="-25.18003">
					<ele>210</ele>
					<time>0001-01-01T00:00:00Z</time>
				</trkpt>
				<trkpt lat="37.85096" lon="-25.17900">
					<ele>213</ele>
					<time>0001-01-01T00:00:00Z</time>
				</trkpt>
				<trkpt lat="37.85112" lon="-25.17796">
					<ele>216</ele>
					<time>0001-01-01T00:00:00Z</time>
				</trkpt>
				<trkpt lat="37.85114" lon="-25.17694">
					<ele>217</ele>
					<time>0001-01-01T00:00:00Z</time>
				</trkpt>
				<trkpt lat="37.85102" lon="-25.17583">
					<ele>210</ele>
					<time>0001-01-01T00:00:00Z</time>
				</trkpt>
				<trkpt lat="37.85079" lon="-25.17386">
					<ele>199</ele>
					<time>0001-01-01T00:00:00Z</time>
				</trkpt>
				<trkpt lat="37.85070" lon="-25.17318">
					<ele>198</ele>
					<time>0001-01-01T00:00:00Z</time>
				</trkpt>
				<trkpt lat="37.85022" lon="-25.17208">
					<ele>195</ele>
					<time>0001-01-01T00:00:00Z</time>
				</trkpt>
				<trkpt lat="37.85018" lon="-25.17165">
					<ele>194</ele>
					<time>0001-01-01T00:00:00Z</time>
				</trkpt>
				<trkpt lat="37.85031" lon="-25.16991">
					<ele>188</ele>
					<time>0001-01-01T00:00:00Z</time>
				</trkpt>
				<trkpt lat="37.85035" lon="-25.16947">
					<ele>186</ele>
					<time>0001-01-01T00:00:00Z</time>
				</trkpt>
				<trkpt lat="37.85000" lon="-25.16874">
					<ele>178</ele>
					<time>0001-01-01T00:00:00Z</time>
				</trkpt>
				<trkpt lat="37.84970" lon="-25.16851">
					<ele>176</ele>
					<time>0001-01-01T00:00:00Z</time>
				</trkpt>
				<trkpt lat="37.84942" lon="-25.16779">
					<ele>172</ele>
					<time>0001-01-01T00:00:00Z</time>
				</trkpt>
				<trkpt lat="37.84946" lon="-25.16657">
					<ele>166</ele>
					<time>0001-01-01T00:00:00Z</time>
				</trkpt>
				<trkpt lat="37.84924" lon="-25.16620">
					<ele>165</ele>
					<time>0001-01-01T00:00:00Z</time>
				</trkpt>
				<trkpt lat="37.84908" lon="-25.16608">
					<ele>164</ele>
					<time>0001-01-01T00:00:00Z</time>
				</trkpt>
				<trkpt lat="37.84876" lon="-25.16557">
					<ele>163</ele>
					<time>0001-01-01T00:00:00Z</time>
				</trkpt>
				<trkpt lat="37.84845" lon="-25.16535">
					<ele>161</ele>
					<time>0001-01-01T00:00:00Z</time>
				</trkpt>
				<trkpt lat="37.84805" lon="-25.16523">
					<ele>159</ele>
					<time>0001-01-01T00:00:00Z</time>
				</trkpt>
				<trkpt lat="37.84738" lon="-25.16484">
					<ele>154</ele>
					<time>0001-01-01T00:00:00Z</time>
				</trkpt>
				<trkpt lat="37.84677" lon="-25.16468">
					<ele>153</ele>
					<time>0001-01-01T00:00:00Z</time>
				</trkpt>
				<trkpt lat="37.84628" lon="-25.16480">
					<ele>150</ele>
					<time>0001-01-01T00:00:00Z</time>
				</trkpt>
				<trkpt lat="37.84577" lon="-25.16448">
					<ele>149</ele>
					<time>0001-01-01T00:00:00Z</time>
				</trkpt>
				<trkpt lat="37.84556" lon="-25.16423">
					<ele>149</ele>
					<time>0001-01-01T00:00:00Z</time>
				</trkpt>
				<trkpt lat="37.84506" lon="-25.16354">
					<ele>149</ele>
					<time>0001-01-01T00:00:00Z</time>
				</trkpt>
				<trkpt lat="37.84505" lon="-25.16343">
					<ele>149</ele>
					<time>0001-01-01T00:00:00Z</time>
				</trkpt>
				<trkpt lat="37.84515" lon="-25.16239">
					<ele>151</ele>
					<time>0001-01-01T00:00:00Z</time>
				</trkpt>
				<trkpt lat="37.84491" lon="-25.16125">
					<ele>148</ele>
					<time>0001-01-01T00:00:00Z</time>
				</trkpt>
				<trkpt lat="37.84481" lon="-25.16073">
					<ele>145</ele>
					<time>0001-01-01T00:00:00Z</time>
				</trkpt>
				<trkpt lat="37.84430" lon="-25.15955">
					<ele>137</ele>
					<time>0001-01-01T00:00:00Z</time>
				</trkpt>
				<trkpt lat="37.84372" lon="-25.15825">
					<ele>139</ele>
					<time>0001-01-01T00:00:00Z</time>
				</trkpt>
				<trkpt lat="37.84296" lon="-25.15730">
					<ele>138</ele>
					<time>0001-01-01T00:00:00Z</time>
				</trkpt>
				<trkpt lat="37.84276" lon="-25.15671">
					<ele>138</ele>
					<time>0001-01-01T00:00:00Z</time>
				</trkpt>
				<trkpt lat="37.84267" lon="-25.15580">
					<ele>140</ele>
					<time>0001-01-01T00:00:00Z</time>
				</trkpt>
				<trkpt lat="37.84236" lon="-25.15551">
					<ele>140</ele>
					<time>0001-01-01T00:00:00Z</time>
				</trkpt>
				<trkpt lat="37.84171" lon="-25.15544">
					<ele>141</ele>
					<time>0001-01-01T00:00:00Z</time>
				</trkpt>
				<trkpt lat="37.84139" lon="-25.15512">
					<ele>142</ele>
					<time>0001-01-01T00:00:00Z</time>
				</trkpt>
				<trkpt lat="37.84101" lon="-25.15419">
					<ele>144</ele>
					<time>0001-01-01T00:00:00Z</time>
				</trkpt>
				<trkpt lat="37.84063" lon="-25.15407">
					<ele>143</ele>
					<time>0001-01-01T00:00:00Z</time>
				</trkpt>
				<trkpt lat="37.83997" lon="-25.15434">
					<ele>137</ele>
					<time>0001-01-01T00:00:00Z</time>
				</trkpt>
				<trkpt lat="37.83947" lon="-25.15477">
					<ele>133</ele>
					<time>0001-01-01T00:00:00Z</time>
				</trkpt>
				<trkpt lat="37.83907" lon="-25.15493">
					<ele>130</ele>
					<time>0001-01-01T00:00:00Z</time>
				</trkpt>
				<trkpt lat="37.83877" lon="-25.15524">
					<ele>129</ele>
					<time>0001-01-01T00:00:00Z</time>
				</trkpt>
				<trkpt lat="37.83856" lon="-25.15555">
					<ele>127</ele>
					<time>0001-01-01T00:00:00Z</time>
				</trkpt>
				<trkpt lat="37.83759" lon="-25.15618">
					<ele>119</ele>
					<time>0001-01-01T00:00:00Z</time>
				</trkpt>
				<trkpt lat="37.83734" lon="-25.15625">
					<ele>118</ele>
					<time>0001-01-01T00:00:00Z</time>
				</trkpt>
				<trkpt lat="37.83630" lon="-25.15634">
					<ele>110</ele>
					<time>0001-01-01T00:00:00Z</time>
				</trkpt>
				<trkpt lat="37.83568" lon="-25.15662">
					<ele>107</ele>
					<time>0001-01-01T00:00:00Z</time>
				</trkpt>
				<trkpt lat="37.83480" lon="-25.15638">
					<ele>103</ele>
					<time>0001-01-01T00:00:00Z</time>
				</trkpt>
				<trkpt lat="37.83458" lon="-25.15628">
					<ele>102</ele>
					<time>0001-01-01T00:00:00Z</time>
				</trkpt>
				<trkpt lat="37.83426" lon="-25.15596">
					<ele>100</ele>
					<time>0001-01-01T00:00:00Z</time>
				</trkpt>
				<trkpt lat="37.83394" lon="-25.15580">
					<ele>99</ele>
					<time>0001-01-01T00:00:00Z</time>
				</trkpt>
				<trkpt lat="37.83370" lon="-25.15603">
					<ele>100</ele>
					<time>0001-01-01T00:00:00Z</time>
				</trkpt>
				<trkpt lat="37.83344" lon="-25.15592">
					<ele>100</ele>
					<time>0001-01-01T00:00:00Z</time>
				</trkpt>
				<trkpt lat="37.83342" lon="-25.15575">
					<ele>101</ele>
					<time>0001-01-01T00:00:00Z</time>
				</trkpt>
				<trkpt lat="37.83358" lon="-25.15558">
					<ele>102</ele>
					<time>0001-01-01T00:00:00Z</time>
				</trkpt>
				<trkpt lat="37.83437" lon="-25.15532">
					<ele>105</ele>
					<time>0001-01-01T00:00:00Z</time>
				</trkpt>
				<trkpt lat="37.83530" lon="-25.15510">
					<ele>108</ele>
					<time>0001-01-01T00:00:00Z</time>
				</trkpt>
				<trkpt lat="37.83563" lon="-25.15455">
					<ele>110</ele>
					<time>0001-01-01T00:00:00Z</time>
				</trkpt>
				<trkpt lat="37.83606" lon="-25.15394">
					<ele>113</ele>
					<time>0001-01-01T00:00:00Z</time>
				</trkpt>
				<trkpt lat="37.83688" lon="-25.15379">
					<ele>116</ele>
					<time>0001-01-01T00:00:00Z</time>
				</trkpt>
				<trkpt lat="37.83691" lon="-25.15378">
					<ele>116</ele>
					<time>0001-01-01T00:00:00Z</time>
				</trkpt>
				<trkpt lat="37.83721" lon="-25.15339">
					<ele>121</ele>
					<time>0001-01-01T00:00:00Z</time>
				</trkpt>
				<trkpt lat="37.83730" lon="-25.15327">
					<ele>124</ele>
					<time>0001-01-01T00:00:00Z</time>
				</trkpt>
				<trkpt lat="37.83745" lon="-25.15289">
					<ele>125</ele>
					<time>0001-01-01T00:00:00Z</time>
				</trkpt>
				<trkpt lat="37.83754" lon="-25.15270">
					<ele>126</ele>
					<time>0001-01-01T00:00:00Z</time>
				</trkpt>
				<trkpt lat="37.83836" lon="-25.15206">
					<ele>130</ele>
					<time>0001-01-01T00:00:00Z</time>
				</trkpt>
				<trkpt lat="37.83844" lon="-25.15202">
					<ele>131</ele>
					<time>0001-01-01T00:00:00Z</time>
				</trkpt>
				<trkpt lat="37.83858" lon="-25.15190">
					<ele>132</ele>
					<time>0001-01-01T00:00:00Z</time>
				</trkpt>
				<trkpt lat="37.83875" lon="-25.15167">
					<ele>133</ele>
					<time>0001-01-01T00:00:00Z</time>
				</trkpt>
				<trkpt lat="37.83881" lon="-25.15153">
					<ele>134</ele>
					<time>0001-01-01T00:00:00Z</time>
				</trkpt>
				<trkpt lat="37.83892" lon="-25.15054">
					<ele>140</ele>
					<time>0001-01-01T00:00:00Z</time>
				</trkpt>
				<trkpt lat="37.83903" lon="-25.14974">
					<ele>144</ele>
					<time>0001-01-01T00:00:00Z</time>
				</trkpt>
				<trkpt lat="37.83898" lon="-25.14924">
					<ele>145</ele>
					<time>0001-01-01T00:00:00Z</time>
				</trkpt>
				<trkpt lat="37.83825" lon="-25.14836">
					<ele>149</ele>
					<time>0001-01-01T00:00:00Z</time>
				</trkpt>
				<trkpt lat="37.83776" lon="-25.14804">
					<ele>149</ele>
					<time>0001-01-01T00:00:00Z</time>
				</trkpt>
				<trkpt lat="37.83747" lon="-25.14802">
					<ele>149</ele>
					<time>0001-01-01T00:00:00Z</time>
				</trkpt>
				<trkpt lat="37.83666" lon="-25.14816">
					<ele>152</ele>
					<time>0001-01-01T00:00:00Z</time>
				</trkpt>
				<trkpt lat="37.83567" lon="-25.14828">
					<ele>153</ele>
					<time>0001-01-01T00:00:00Z</time>
				</trkpt>
				<trkpt lat="37.83548" lon="-25.14825">
					<ele>154</ele>
					<time>0001-01-01T00:00:00Z</time>
				</trkpt>
				<trkpt lat="37.83530" lon="-25.14810">
					<ele>153</ele>
					<time>0001-01-01T00:00:00Z</time>
				</trkpt>
				<trkpt lat="37.83478" lon="-25.14758">
					<ele>152</ele>
					<time>0001-01-01T00:00:00Z</time>
				</trkpt>
				<trkpt lat="37.83443" lon="-25.14753">
					<ele>152</ele>
					<time>0001-01-01T00:00:00Z</time>
				</trkpt>
				<trkpt lat="37.83375" lon="-25.14767">
					<ele>148</ele>
					<time>0001-01-01T00:00:00Z</time>
				</trkpt>
				<trkpt lat="37.83341" lon="-25.14773">
					<ele>147</ele>
					<time>0001-01-01T00:00:00Z</time>
				</trkpt>
				<trkpt lat="37.83304" lon="-25.14748">
					<ele>145</ele>
					<time>0001-01-01T00:00:00Z</time>
				</trkpt>
				<trkpt lat="37.83255" lon="-25.14674">
					<ele>142</ele>
					<time>0001-01-01T00:00:00Z</time>
				</trkpt>
				<trkpt lat="37.83234" lon="-25.14664">
					<ele>142</ele>
					<time>0001-01-01T00:00:00Z</time>
				</trkpt>
				<trkpt lat="37.83226" lon="-25.14653">
					<ele>144</ele>
					<time>0001-01-01T00:00:00Z</time>
				</trkpt>
				<trkpt lat="37.83262" lon="-25.14666">
					<ele>148</ele>
					<time>0001-01-01T00:00:00Z</time>
				</trkpt>
				<trkpt lat="37.83261" lon="-25.14667">
					<ele>150</ele>
					<time>0001-01-01T00:00:00Z</time>
				</trkpt>
				<trkpt lat="37.83259" lon="-25.14661">
					<ele>148</ele>
					<time>0001-01-01T00:00:00Z</time>
				</trkpt>
				<trkpt lat="37.83265" lon="-25.14665">
					<ele>162</ele>
					<time>0001-01-01T00:00:00Z</time>
				</trkpt>
				<trkpt lat="37.83253" lon="-25.14673">
					<ele>147</ele>
					<time>0001-01-01T00:00:00Z</time>
				</trkpt>
				<trkpt lat="37.83224" lon="-25.14667">
					<ele>147</ele>
					<time>0001-01-01T00:00:00Z</time>
				</trkpt>
				<trkpt lat="37.83065" lon="-25.14598">
					<ele>150</ele>
					<time>0001-01-01T00:00:00Z</time>
				</trkpt>
				<trkpt lat="37.82997" lon="-25.14567">
					<ele>152</ele>
					<time>0001-01-01T00:00:00Z</time>
				</trkpt>
				<trkpt lat="37.82884" lon="-25.14495">
					<ele>151</ele>
					<time>0001-01-01T00:00:00Z</time>
				</trkpt>
				<trkpt lat="37.82835" lon="-25.14468">
					<ele>150</ele>
					<time>0001-01-01T00:00:00Z</time>
				</trkpt>
				<trkpt lat="37.82772" lon="-25.14395">
					<ele>151</ele>
					<time>0001-01-01T00:00:00Z</time>
				</trkpt>
				<trkpt lat="37.82755" lon="-25.14376">
					<ele>151</ele>
					<time>0001-01-01T00:00:00Z</time>
				</trkpt>
				<trkpt lat="37.82739" lon="-25.14365">
					<ele>151</ele>
					<time>0001-01-01T00:00:00Z</time>
				</trkpt>
				<trkpt lat="37.82702" lon="-25.14355">
					<ele>150</ele>
					<time>0001-01-01T00:00:00Z</time>
				</trkpt>
				<trkpt lat="37.82680" lon="-25.14343">
					<ele>150</ele>
					<time>0001-01-01T00:00:00Z</time>
				</trkpt>
				<trkpt lat="37.82638" lon="-25.14309">
					<ele>152</ele>
					<time>0001-01-01T00:00:00Z</time>
				</trkpt>
				<trkpt lat="37.82551" lon="-25.14298">
					<ele>149</ele>
					<time>0001-01-01T00:00:00Z</time>
				</trkpt>
				<trkpt lat="37.82538" lon="-25.14275">
					<ele>149</ele>
					<time>0001-01-01T00:00:00Z</time>
				</trkpt>
				<trkpt lat="37.82508" lon="-25.14148">
					<ele>152</ele>
					<time>0001-01-01T00:00:00Z</time>
				</trkpt>
				<trkpt lat="37.82476" lon="-25.14088">
					<ele>155</ele>
					<time>0001-01-01T00:00:00Z</time>
				</trkpt>
				<trkpt lat="37.82472" lon="-25.14077">
					<ele>156</ele>
					<time>0001-01-01T00:00:00Z</time>
				</trkpt>
				<trkpt lat="37.82444" lon="-25.13992">
					<ele>161</ele>
					<time>0001-01-01T00:00:00Z</time>
				</trkpt>
				<trkpt lat="37.82441" lon="-25.13982">
					<ele>162</ele>
					<time>0001-01-01T00:00:00Z</time>
				</trkpt>
				<trkpt lat="37.82430" lon="-25.13965">
					<ele>163</ele>
					<time>0001-01-01T00:00:00Z</time>
				</trkpt>
				<trkpt lat="37.82355" lon="-25.13949">
					<ele>164</ele>
					<time>0001-01-01T00:00:00Z</time>
				</trkpt>
				<trkpt lat="37.82306" lon="-25.14018">
					<ele>165</ele>
					<time>0001-01-01T00:00:00Z</time>
				</trkpt>
				<trkpt lat="37.82248" lon="-25.14080">
					<ele>168</ele>
					<time>0001-01-01T00:00:00Z</time>
				</trkpt>
				<trkpt lat="37.82155" lon="-25.14138">
					<ele>171</ele>
					<time>0001-01-01T00:00:00Z</time>
				</trkpt>
				<trkpt lat="37.82072" lon="-25.14199">
					<ele>178</ele>
					<time>0001-01-01T00:00:00Z</time>
				</trkpt>
				<trkpt lat="37.82039" lon="-25.14260">
					<ele>181</ele>
					<time>0001-01-01T00:00:00Z</time>
				</trkpt>
				<trkpt lat="37.81995" lon="-25.14324">
					<ele>184</ele>
					<time>0001-01-01T00:00:00Z</time>
				</trkpt>
				<trkpt lat="37.81942" lon="-25.14337">
					<ele>188</ele>
					<time>0001-01-01T00:00:00Z</time>
				</trkpt>
				<trkpt lat="37.81884" lon="-25.14302">
					<ele>193</ele>
					<time>0001-01-01T00:00:00Z</time>
				</trkpt>
				<trkpt lat="37.81900" lon="-25.14255">
					<ele>194</ele>
					<time>0001-01-01T00:00:00Z</time>
				</trkpt>
				<trkpt lat="37.81926" lon="-25.14201">
					<ele>196</ele>
					<time>0001-01-01T00:00:00Z</time>
				</trkpt>
				<trkpt lat="37.81943" lon="-25.14123">
					<ele>200</ele>
					<time>0001-01-01T00:00:00Z</time>
				</trkpt>
				<trkpt lat="37.81942" lon="-25.14082">
					<ele>201</ele>
					<time>0001-01-01T00:00:00Z</time>
				</trkpt>
				<trkpt lat="37.81934" lon="-25.14062">
					<ele>201</ele>
					<time>0001-01-01T00:00:00Z</time>
				</trkpt>
				<trkpt lat="37.81919" lon="-25.14042">
					<ele>202</ele>
					<time>0001-01-01T00:00:00Z</time>
				</trkpt>
				<trkpt lat="37.81902" lon="-25.14033">
					<ele>202</ele>
					<time>0001-01-01T00:00:00Z</time>
				</trkpt>
				<trkpt lat="37.81823" lon="-25.14017">
					<ele>206</ele>
					<time>0001-01-01T00:00:00Z</time>
				</trkpt>
				<trkpt lat="37.81741" lon="-25.14000">
					<ele>212</ele>
					<time>0001-01-01T00:00:00Z</time>
				</trkpt>
				<trkpt lat="37.81635" lon="-25.13962">
					<ele>216</ele>
					<time>0001-01-01T00:00:00Z</time>
				</trkpt>
				<trkpt lat="37.81558" lon="-25.13952">
					<ele>221</ele>
					<time>0001-01-01T00:00:00Z</time>
				</trkpt>
				<trkpt lat="37.81480" lon="-25.13946">
					<ele>226</ele>
					<time>0001-01-01T00:00:00Z</time>
				</trkpt>
				<trkpt lat="37.81385" lon="-25.13969">
					<ele>231</ele>
					<time>0001-01-01T00:00:00Z</time>
				</trkpt>
				<trkpt lat="37.81306" lon="-25.13991">
					<ele>231</ele>
					<time>0001-01-01T00:00:00Z</time>
				</trkpt>
				<trkpt lat="37.81287" lon="-25.14004">
					<ele>231</ele>
					<time>0001-01-01T00:00:00Z</time>
				</trkpt>
				<trkpt lat="37.81227" lon="-25.14101">
					<ele>232</ele>
					<time>0001-01-01T00:00:00Z</time>
				</trkpt>
				<trkpt lat="37.81146" lon="-25.14249">
					<ele>236</ele>
					<time>0001-01-01T00:00:00Z</time>
				</trkpt>
				<trkpt lat="37.81063" lon="-25.14391">
					<ele>237</ele>
					<time>0001-01-01T00:00:00Z</time>
				</trkpt>
				<trkpt lat="37.81060" lon="-25.14396">
					<ele>238</ele>
					<time>0001-01-01T00:00:00Z</time>
				</trkpt>
				<trkpt lat="37.81022" lon="-25.14397">
					<ele>239</ele>
					<time>0001-01-01T00:00:00Z</time>
				</trkpt>
				<trkpt lat="37.80971" lon="-25.14377">
					<ele>241</ele>
					<time>0001-01-01T00:00:00Z</time>
				</trkpt>
				<trkpt lat="37.80941" lon="-25.14384">
					<ele>242</ele>
					<time>0001-01-01T00:00:00Z</time>
				</trkpt>
				<trkpt lat="37.80805" lon="-25.14463">
					<ele>246</ele>
					<time>0001-01-01T00:00:00Z</time>
				</trkpt>
				<trkpt lat="37.80752" lon="-25.14495">
					<ele>247</ele>
					<time>0001-01-01T00:00:00Z</time>
				</trkpt>
				<trkpt lat="37.80735" lon="-25.14510">
					<ele>248</ele>
					<time>0001-01-01T00:00:00Z</time>
				</trkpt>
				<trkpt lat="37.80675" lon="-25.14609">
					<ele>253</ele>
					<time>0001-01-01T00:00:00Z</time>
				</trkpt>
				<trkpt lat="37.80656" lon="-25.14689">
					<ele>253</ele>
					<time>0001-01-01T00:00:00Z</time>
				</trkpt>
				<trkpt lat="37.80640" lon="-25.14755">
					<ele>255</ele>
					<time>0001-01-01T00:00:00Z</time>
				</trkpt>
				<trkpt lat="37.80623" lon="-25.14777">
					<ele>255</ele>
					<time>0001-01-01T00:00:00Z</time>
				</trkpt>
				<trkpt lat="37.80601" lon="-25.14781">
					<ele>256</ele>
					<time>0001-01-01T00:00:00Z</time>
				</trkpt>
				<trkpt lat="37.80593" lon="-25.14780">
					<ele>256</ele>
					<time>0001-01-01T00:00:00Z</time>
				</trkpt>
				<trkpt lat="37.80563" lon="-25.14739">
					<ele>257</ele>
					<time>0001-01-01T00:00:00Z</time>
				</trkpt>
				<trkpt lat="37.80564" lon="-25.14687">
					<ele>258</ele>
					<time>0001-01-01T00:00:00Z</time>
				</trkpt>
				<trkpt lat="37.80563" lon="-25.14677">
					<ele>258</ele>
					<time>0001-01-01T00:00:00Z</time>
				</trkpt>
				<trkpt lat="37.80546" lon="-25.14616">
					<ele>260</ele>
					<time>0001-01-01T00:00:00Z</time>
				</trkpt>
				<trkpt lat="37.80538" lon="-25.14604">
					<ele>261</ele>
					<time>0001-01-01T00:00:00Z</time>
				</trkpt>
				<trkpt lat="37.80478" lon="-25.14571">
					<ele>265</ele>
					<time>0001-01-01T00:00:00Z</time>
				</trkpt>
				<trkpt lat="37.80425" lon="-25.14561">
					<ele>268</ele>
					<time>0001-01-01T00:00:00Z</time>
				</trkpt>
				<trkpt lat="37.80406" lon="-25.14567">
					<ele>270</ele>
					<time>0001-01-01T00:00:00Z</time>
				</trkpt>
				<trkpt lat="37.80384" lon="-25.14591">
					<ele>272</ele>
					<time>0001-01-01T00:00:00Z</time>
				</trkpt>
				<trkpt lat="37.80377" lon="-25.14615">
					<ele>273</ele>
					<time>0001-01-01T00:00:00Z</time>
				</trkpt>
				<trkpt lat="37.80378" lon="-25.14641">
					<ele>275</ele>
					<time>0001-01-01T00:00:00Z</time>
				</trkpt>
				<trkpt lat="37.80371" lon="-25.14627">
					<ele>274</ele>
					<time>0001-01-01T00:00:00Z</time>
				</trkpt>
				<trkpt lat="37.80372" lon="-25.14611">
					<ele>273</ele>
					<time>0001-01-01T00:00:00Z</time>
				</trkpt>
				<trkpt lat="37.80376" lon="-25.14618">
					<ele>273</ele>
					<time>0001-01-01T00:00:00Z</time>
				</trkpt>
				<trkpt lat="37.80379" lon="-25.14655">
					<ele>275</ele>
					<time>0001-01-01T00:00:00Z</time>
				</trkpt>
				<trkpt lat="37.80380" lon="-25.14724">
					<ele>279</ele>
					<time>0001-01-01T00:00:00Z</time>
				</trkpt>
				<trkpt lat="37.80330" lon="-25.14802">
					<ele>284</ele>
					<time>0001-01-01T00:00:00Z</time>
				</trkpt>
				<trkpt lat="37.80302" lon="-25.14799">
					<ele>284</ele>
					<time>0001-01-01T00:00:00Z</time>
				</trkpt>
				<trkpt lat="37.80268" lon="-25.14778">
					<ele>285</ele>
					<time>0001-01-01T00:00:00Z</time>
				</trkpt>
				<trkpt lat="37.80259" lon="-25.14776">
					<ele>285</ele>
					<time>0001-01-01T00:00:00Z</time>
				</trkpt>
				<trkpt lat="37.80247" lon="-25.14774">
					<ele>286</ele>
					<time>0001-01-01T00:00:00Z</time>
				</trkpt>
				<trkpt lat="37.80207" lon="-25.14784">
					<ele>286</ele>
					<time>0001-01-01T00:00:00Z</time>
				</trkpt>
				<trkpt lat="37.80194" lon="-25.14798">
					<ele>285</ele>
					<time>0001-01-01T00:00:00Z</time>
				</trkpt>
				<trkpt lat="37.80188" lon="-25.14806">
					<ele>286</ele>
					<time>0001-01-01T00:00:00Z</time>
				</trkpt>
				<trkpt lat="37.80153" lon="-25.14870">
					<ele>285</ele>
					<time>0001-01-01T00:00:00Z</time>
				</trkpt>
				<trkpt lat="37.80143" lon="-25.14883">
					<ele>285</ele>
					<time>0001-01-01T00:00:00Z</time>
				</trkpt>
				<trkpt lat="37.80104" lon="-25.14867">
					<ele>286</ele>
					<time>0001-01-01T00:00:00Z</time>
				</trkpt>
				<trkpt lat="37.80099" lon="-25.14852">
					<ele>286</ele>
					<time>0001-01-01T00:00:00Z</time>
				</trkpt>
				<trkpt lat="37.80078" lon="-25.14739">
					<ele>289</ele>
					<time>0001-01-01T00:00:00Z</time>
				</trkpt>
				<trkpt lat="37.80048" lon="-25.14674">
					<ele>293</ele>
					<time>0001-01-01T00:00:00Z</time>
				</trkpt>
				<trkpt lat="37.80045" lon="-25.14673">
					<ele>293</ele>
					<time>0001-01-01T00:00:00Z</time>
				</trkpt>
				<trkpt lat="37.79964" lon="-25.14687">
					<ele>296</ele>
					<time>0001-01-01T00:00:00Z</time>
				</trkpt>
				<trkpt lat="37.79948" lon="-25.14690">
					<ele>297</ele>
					<time>0001-01-01T00:00:00Z</time>
				</trkpt>
				<trkpt lat="37.79933" lon="-25.14690">
					<ele>298</ele>
					<time>0001-01-01T00:00:00Z</time>
				</trkpt>
				<trkpt lat="37.79853" lon="-25.14655">
					<ele>297</ele>
					<time>0001-01-01T00:00:00Z</time>
				</trkpt>
				<trkpt lat="37.79822" lon="-25.14637">
					<ele>295</ele>
					<time>0001-01-01T00:00:00Z</time>
				</trkpt>
				<trkpt lat="37.79786" lon="-25.14629">
					<ele>294</ele>
					<time>0001-01-01T00:00:00Z</time>
				</trkpt>
				<trkpt lat="37.79741" lon="-25.14647">
					<ele>292</ele>
					<time>0001-01-01T00:00:00Z</time>
				</trkpt>
				<trkpt lat="37.79716" lon="-25.14677">
					<ele>292</ele>
					<time>0001-01-01T00:00:00Z</time>
				</trkpt>
				<trkpt lat="37.79634" lon="-25.14748">
					<ele>290</ele>
					<time>0001-01-01T00:00:00Z</time>
				</trkpt>
				<trkpt lat="37.79561" lon="-25.14722">
					<ele>289</ele>
					<time>0001-01-01T00:00:00Z</time>
				</trkpt>
				<trkpt lat="37.79546" lon="-25.14720">
					<ele>288</ele>
					<time>0001-01-01T00:00:00Z</time>
				</trkpt>
				<trkpt lat="37.79525" lon="-25.14744">
					<ele>287</ele>
					<time>0001-01-01T00:00:00Z</time>
				</trkpt>
				<trkpt lat="37.79516" lon="-25.14864">
					<ele>284</ele>
					<time>0001-01-01T00:00:00Z</time>
				</trkpt>
				<trkpt lat="37.79503" lon="-25.14907">
					<ele>281</ele>
					<time>0001-01-01T00:00:00Z</time>
				</trkpt>
				<trkpt lat="37.79497" lon="-25.14939">
					<ele>280</ele>
					<time>0001-01-01T00:00:00Z</time>
				</trkpt>
				<trkpt lat="37.79505" lon="-25.14966">
					<ele>280</ele>
					<time>0001-01-01T00:00:00Z</time>
				</trkpt>
				<trkpt lat="37.79505" lon="-25.15014">
					<ele>278</ele>
					<time>0001-01-01T00:00:00Z</time>
				</trkpt>
				<trkpt lat="37.79476" lon="-25.15042">
					<ele>277</ele>
					<time>0001-01-01T00:00:00Z</time>
				</trkpt>
				<trkpt lat="37.79461" lon="-25.15080">
					<ele>275</ele>
					<time>0001-01-01T00:00:00Z</time>
				</trkpt>
				<trkpt lat="37.79467" lon="-25.15098">
					<ele>274</ele>
					<time>0001-01-01T00:00:00Z</time>
				</trkpt>
				<trkpt lat="37.79463" lon="-25.15164">
					<ele>269</ele>
					<time>0001-01-01T00:00:00Z</time>
				</trkpt>
				<trkpt lat="37.79441" lon="-25.15174">
					<ele>267</ele>
					<time>0001-01-01T00:00:00Z</time>
				</trkpt>
				<trkpt lat="37.79398" lon="-25.15190">
					<ele>264</ele>
					<time>0001-01-01T00:00:00Z</time>
				</trkpt>
				<trkpt lat="37.79394" lon="-25.15227">
					<ele>263</ele>
					<time>0001-01-01T00:00:00Z</time>
				</trkpt>
				<trkpt lat="37.79412" lon="-25.15294">
					<ele>261</ele>
					<time>0001-01-01T00:00:00Z</time>
				</trkpt>
				<trkpt lat="37.79412" lon="-25.15312">
					<ele>261</ele>
					<time>0001-01-01T00:00:00Z</time>
				</trkpt>
				<trkpt lat="37.79400" lon="-25.15332">
					<ele>261</ele>
					<time>0001-01-01T00:00:00Z</time>
				</trkpt>
				<trkpt lat="37.79387" lon="-25.15340">
					<ele>261</ele>
					<time>0001-01-01T00:00:00Z</time>
				</trkpt>
				<trkpt lat="37.79365" lon="-25.15339">
					<ele>259</ele>
					<time>0001-01-01T00:00:00Z</time>
				</trkpt>
				<trkpt lat="37.79347" lon="-25.15344">
					<ele>258</ele>
					<time>0001-01-01T00:00:00Z</time>
				</trkpt>
				<trkpt lat="37.79318" lon="-25.15385">
					<ele>258</ele>
					<time>0001-01-01T00:00:00Z</time>
				</trkpt>
				<trkpt lat="37.79312" lon="-25.15426">
					<ele>256</ele>
					<time>0001-01-01T00:00:00Z</time>
				</trkpt>
				<trkpt lat="37.79317" lon="-25.15452">
					<ele>255</ele>
					<time>0001-01-01T00:00:00Z</time>
				</trkpt>
				<trkpt lat="37.79302" lon="-25.15486">
					<ele>252</ele>
					<time>0001-01-01T00:00:00Z</time>
				</trkpt>
				<trkpt lat="37.79269" lon="-25.15482">
					<ele>249</ele>
					<time>0001-01-01T00:00:00Z</time>
				</trkpt>
				<trkpt lat="37.79237" lon="-25.15481">
					<ele>245</ele>
					<time>0001-01-01T00:00:00Z</time>
				</trkpt>
				<trkpt lat="37.79178" lon="-25.15505">
					<ele>240</ele>
					<time>0001-01-01T00:00:00Z</time>
				</trkpt>
				<trkpt lat="37.79152" lon="-25.15539">
					<ele>238</ele>
					<time>0001-01-01T00:00:00Z</time>
				</trkpt>
				<trkpt lat="37.79118" lon="-25.15578">
					<ele>236</ele>
					<time>0001-01-01T00:00:00Z</time>
				</trkpt>
				<trkpt lat="37.79093" lon="-25.15607">
					<ele>235</ele>
					<time>0001-01-01T00:00:00Z</time>
				</trkpt>
				<trkpt lat="37.79086" lon="-25.15639">
					<ele>233</ele>
					<time>0001-01-01T00:00:00Z</time>
				</trkpt>
				<trkpt lat="37.79035" lon="-25.15706">
					<ele>229</ele>
					<time>0001-01-01T00:00:00Z</time>
				</trkpt>
				<trkpt lat="37.78992" lon="-25.15690">
					<ele>225</ele>
					<time>0001-01-01T00:00:00Z</time>
				</trkpt>
				<trkpt lat="37.78991" lon="-25.15672">
					<ele>224</ele>
					<time>0001-01-01T00:00:00Z</time>
				</trkpt>
				<trkpt lat="37.79033" lon="-25.15475">
					<ele>221</ele>
					<time>0001-01-01T00:00:00Z</time>
				</trkpt>
				<trkpt lat="37.79076" lon="-25.15364">
					<ele>224</ele>
					<time>0001-01-01T00:00:00Z</time>
				</trkpt>
				<trkpt lat="37.79094" lon="-25.15316">
					<ele>226</ele>
					<time>0001-01-01T00:00:00Z</time>
				</trkpt>
				<trkpt lat="37.79126" lon="-25.15152">
					<ele>229</ele>
					<time>0001-01-01T00:00:00Z</time>
				</trkpt>
				<trkpt lat="37.79120" lon="-25.15064">
					<ele>233</ele>
					<time>0001-01-01T00:00:00Z</time>
				</trkpt>
				<trkpt lat="37.79129" lon="-25.14999">
					<ele>238</ele>
					<time>0001-01-01T00:00:00Z</time>
				</trkpt>
				<trkpt lat="37.79094" lon="-25.14979">
					<ele>240</ele>
					<time>0001-01-01T00:00:00Z</time>
				</trkpt>
				<trkpt lat="37.79053" lon="-25.14958">
					<ele>242</ele>
					<time>0001-01-01T00:00:00Z</time>
				</trkpt>
				<trkpt lat="37.79056" lon="-25.14914">
					<ele>247</ele>
					<time>0001-01-01T00:00:00Z</time>
				</trkpt>
				<trkpt lat="37.79087" lon="-25.14826">
					<ele>257</ele>
					<time>0001-01-01T00:00:00Z</time>
				</trkpt>
				<trkpt lat="37.79080" lon="-25.14796">
					<ele>257</ele>
					<time>0001-01-01T00:00:00Z</time>
				</trkpt>
				<trkpt lat="37.79059" lon="-25.14798">
					<ele>259</ele>
					<time>0001-01-01T00:00:00Z</time>
				</trkpt>
				<trkpt lat="37.79004" lon="-25.14845">
					<ele>266</ele>
					<time>0001-01-01T00:00:00Z</time>
				</trkpt>
				<trkpt lat="37.78965" lon="-25.14848">
					<ele>268</ele>
					<time>0001-01-01T00:00:00Z</time>
				</trkpt>
				<trkpt lat="37.78938" lon="-25.14807">
					<ele>270</ele>
					<time>0001-01-01T00:00:00Z</time>
				</trkpt>
				<trkpt lat="37.78929" lon="-25.14732">
					<ele>276</ele>
					<time>0001-01-01T00:00:00Z</time>
				</trkpt>
				<trkpt lat="37.78917" lon="-25.14670">
					<ele>279</ele>
					<time>0001-01-01T00:00:00Z</time>
				</trkpt>
				<trkpt lat="37.78912" lon="-25.14664">
					<ele>280</ele>
					<time>0001-01-01T00:00:00Z</time>
				</trkpt>
				<trkpt lat="37.78914" lon="-25.14657">
					<ele>281</ele>
					<time>0001-01-01T00:00:00Z</time>
				</trkpt>
				<trkpt lat="37.78928" lon="-25.14619">
					<ele>281</ele>
					<time>0001-01-01T00:00:00Z</time>
				</trkpt>
				<trkpt lat="37.78949" lon="-25.14578">
					<ele>281</ele>
					<time>0001-01-01T00:00:00Z</time>
				</trkpt>
				<trkpt lat="37.78961" lon="-25.14545">
					<ele>282</ele>
					<time>0001-01-01T00:00:00Z</time>
				</trkpt>
				<trkpt lat="37.78964" lon="-25.14538">
					<ele>284</ele>
					<time>0001-01-01T00:00:00Z</time>
				</trkpt>
				<trkpt lat="37.78963" lon="-25.14537">
					<ele>285</ele>
					<time>0001-01-01T00:00:00Z</time>
				</trkpt>
				<trkpt lat="37.78964" lon="-25.14538">
					<ele>285</ele>
					<time>0001-01-01T00:00:00Z</time>
				</trkpt>
				<trkpt lat="37.78964" lon="-25.14543">
					<ele>284</ele>
					<time>0001-01-01T00:00:00Z</time>
				</trkpt>
				<trkpt lat="37.78961" lon="-25.14550">
					<ele>283</ele>
					<time>0001-01-01T00:00:00Z</time>
				</trkpt>
				<trkpt lat="37.78943" lon="-25.14593">
					<ele>284</ele>
					<time>0001-01-01T00:00:00Z</time>
				</trkpt>
				<trkpt lat="37.78919" lon="-25.14645">
					<ele>287</ele>
					<time>0001-01-01T00:00:00Z</time>
				</trkpt>
				<trkpt lat="37.78916" lon="-25.14650">
					<ele>288</ele>
					<time>0001-01-01T00:00:00Z</time>
				</trkpt>
				<trkpt lat="37.78897" lon="-25.14658">
					<ele>288</ele>
					<time>0001-01-01T00:00:00Z</time>
				</trkpt>
				<trkpt lat="37.78842" lon="-25.14676">
					<ele>290</ele>
					<time>0001-01-01T00:00:00Z</time>
				</trkpt>
				<trkpt lat="37.78764" lon="-25.14791">
					<ele>294</ele>
					<time>0001-01-01T00:00:00Z</time>
				</trkpt>
				<trkpt lat="37.78727" lon="-25.14859">
					<ele>298</ele>
					<time>0001-01-01T00:00:00Z</time>
				</trkpt>
				<trkpt lat="37.78688" lon="-25.14882">
					<ele>303</ele>
					<time>0001-01-01T00:00:00Z</time>
				</trkpt>
				<trkpt lat="37.78689" lon="-25.14946">
					<ele>307</ele>
					<time>0001-01-01T00:00:00Z</time>
				</trkpt>
				<trkpt lat="37.78691" lon="-25.15018">
					<ele>312</ele>
					<time>0001-01-01T00:00:00Z</time>
				</trkpt>
				<trkpt lat="37.78662" lon="-25.15050">
					<ele>314</ele>
					<time>0001-01-01T00:00:00Z</time>
				</trkpt>
				<trkpt lat="37.78628" lon="-25.15028">
					<ele>315</ele>
					<time>0001-01-01T00:00:00Z</time>
				</trkpt>
				<trkpt lat="37.78598" lon="-25.14963">
					<ele>318</ele>
					<time>0001-01-01T00:00:00Z</time>
				</trkpt>
				<trkpt lat="37.78582" lon="-25.14956">
					<ele>318</ele>
					<time>0001-01-01T00:00:00Z</time>
				</trkpt>
				<trkpt lat="37.78455" lon="-25.15085">
					<ele>326</ele>
					<time>0001-01-01T00:00:00Z</time>
				</trkpt>
				<trkpt lat="37.78420" lon="-25.15062">
					<ele>327</ele>
					<time>0001-01-01T00:00:00Z</time>
				</trkpt>
				<trkpt lat="37.78381" lon="-25.15042">
					<ele>331</ele>
					<time>0001-01-01T00:00:00Z</time>
				</trkpt>
				<trkpt lat="37.78337" lon="-25.15036">
					<ele>337</ele>
					<time>0001-01-01T00:00:00Z</time>
				</trkpt>
				<trkpt lat="37.78292" lon="-25.15062">
					<ele>343</ele>
					<time>0001-01-01T00:00:00Z</time>
				</trkpt>
				<trkpt lat="37.78257" lon="-25.15133">
					<ele>351</ele>
					<time>0001-01-01T00:00:00Z</time>
				</trkpt>
				<trkpt lat="37.78221" lon="-25.15163">
					<ele>354</ele>
					<time>0001-01-01T00:00:00Z</time>
				</trkpt>
				<trkpt lat="37.78195" lon="-25.15205">
					<ele>358</ele>
					<time>0001-01-01T00:00:00Z</time>
				</trkpt>
				<trkpt lat="37.78169" lon="-25.15282">
					<ele>361</ele>
					<time>0001-01-01T00:00:00Z</time>
				</trkpt>
				<trkpt lat="37.78146" lon="-25.15336">
					<ele>364</ele>
					<time>0001-01-01T00:00:00Z</time>
				</trkpt>
				<trkpt lat="37.78118" lon="-25.15397">
					<ele>369</ele>
					<time>0001-01-01T00:00:00Z</time>
				</trkpt>
				<trkpt lat="37.78154" lon="-25.15562">
					<ele>369</ele>
					<time>0001-01-01T00:00:00Z</time>
				</trkpt>
				<trkpt lat="37.78113" lon="-25.15582">
					<ele>374</ele>
					<time>0001-01-01T00:00:00Z</time>
				</trkpt>
				<trkpt lat="37.78090" lon="-25.15570">
					<ele>375</ele>
					<time>0001-01-01T00:00:00Z</time>
				</trkpt>
				<trkpt lat="37.78075" lon="-25.15517">
					<ele>380</ele>
					<time>0001-01-01T00:00:00Z</time>
				</trkpt>
				<trkpt lat="37.78068" lon="-25.15505">
					<ele>381</ele>
					<time>0001-01-01T00:00:00Z</time>
				</trkpt>
				<trkpt lat="37.78009" lon="-25.15467">
					<ele>385</ele>
					<time>0001-01-01T00:00:00Z</time>
				</trkpt>
				<trkpt lat="37.77998" lon="-25.15458">
					<ele>386</ele>
					<time>0001-01-01T00:00:00Z</time>
				</trkpt>
				<trkpt lat="37.77993" lon="-25.15443">
					<ele>387</ele>
					<time>0001-01-01T00:00:00Z</time>
				</trkpt>
				<trkpt lat="37.77982" lon="-25.15364">
					<ele>390</ele>
					<time>0001-01-01T00:00:00Z</time>
				</trkpt>
				<trkpt lat="37.77981" lon="-25.15361">
					<ele>390</ele>
					<time>0001-01-01T00:00:00Z</time>
				</trkpt>
				<trkpt lat="37.77971" lon="-25.15352">
					<ele>392</ele>
					<time>0001-01-01T00:00:00Z</time>
				</trkpt>
				<trkpt lat="37.77936" lon="-25.15308">
					<ele>397</ele>
					<time>0001-01-01T00:00:00Z</time>
				</trkpt>
				<trkpt lat="37.77992" lon="-25.15224">
					<ele>405</ele>
					<time>0001-01-01T00:00:00Z</time>
				</trkpt>
				<trkpt lat="37.77964" lon="-25.15188">
					<ele>405</ele>
					<time>0001-01-01T00:00:00Z</time>
				</trkpt>
				<trkpt lat="37.77930" lon="-25.15160">
					<ele>404</ele>
					<time>0001-01-01T00:00:00Z</time>
				</trkpt>
				<trkpt lat="37.77961" lon="-25.15074">
					<ele>409</ele>
					<time>0001-01-01T00:00:00Z</time>
				</trkpt>
				<trkpt lat="37.77954" lon="-25.15032">
					<ele>411</ele>
					<time>0001-01-01T00:00:00Z</time>
				</trkpt>
				<trkpt lat="37.77978" lon="-25.14968">
					<ele>419</ele>
					<time>0001-01-01T00:00:00Z</time>
				</trkpt>
				<trkpt lat="37.77971" lon="-25.14898">
					<ele>423</ele>
					<time>0001-01-01T00:00:00Z</time>
				</trkpt>
				<trkpt lat="37.77984" lon="-25.14842">
					<ele>429</ele>
					<time>0001-01-01T00:00:00Z</time>
				</trkpt>
				<trkpt lat="37.78005" lon="-25.14784">
					<ele>435</ele>
					<time>0001-01-01T00:00:00Z</time>
				</trkpt>
				<trkpt lat="37.77995" lon="-25.14712">
					<ele>440</ele>
					<time>0001-01-01T00:00:00Z</time>
				</trkpt>
				<trkpt lat="37.78051" lon="-25.14657">
					<ele>447</ele>
					<time>0001-01-01T00:00:00Z</time>
				</trkpt>
				<trkpt lat="37.78075" lon="-25.14611">
					<ele>448</ele>
					<time>0001-01-01T00:00:00Z</time>
				</trkpt>
				<trkpt lat="37.78059" lon="-25.14561">
					<ele>448</ele>
					<time>0001-01-01T00:00:00Z</time>
				</trkpt>
				<trkpt lat="37.78031" lon="-25.14503">
					<ele>452</ele>
					<time>0001-01-01T00:00:00Z</time>
				</trkpt>
				<trkpt lat="37.77968" lon="-25.14483">
					<ele>455</ele>
					<time>0001-01-01T00:00:00Z</time>
				</trkpt>
				<trkpt lat="37.77905" lon="-25.14464">
					<ele>457</ele>
					<time>0001-01-01T00:00:00Z</time>
				</trkpt>
				<trkpt lat="37.77885" lon="-25.14465">
					<ele>457</ele>
					<time>0001-01-01T00:00:00Z</time>
				</trkpt>
				<trkpt lat="37.77810" lon="-25.14547">
					<ele>457</ele>
					<time>0001-01-01T00:00:00Z</time>
				</trkpt>
				<trkpt lat="37.77787" lon="-25.14582">
					<ele>457</ele>
					<time>0001-01-01T00:00:00Z</time>
				</trkpt>
				<trkpt lat="37.77769" lon="-25.14624">
					<ele>456</ele>
					<time>0001-01-01T00:00:00Z</time>
				</trkpt>
				<trkpt lat="37.77727" lon="-25.14634">
					<ele>456</ele>
					<time>0001-01-01T00:00:00Z</time>
				</trkpt>
				<trkpt lat="37.77610" lon="-25.14584">
					<ele>450</ele>
					<time>0001-01-01T00:00:00Z</time>
				</trkpt>
				<trkpt lat="37.77562" lon="-25.14566">
					<ele>449</ele>
					<time>0001-01-01T00:00:00Z</time>
				</trkpt>
				<trkpt lat="37.77530" lon="-25.14605">
					<ele>446</ele>
					<time>0001-01-01T00:00:00Z</time>
				</trkpt>
				<trkpt lat="37.77519" lon="-25.14703">
					<ele>444</ele>
					<time>0001-01-01T00:00:00Z</time>
				</trkpt>
				<trkpt lat="37.77494" lon="-25.14738">
					<ele>443</ele>
					<time>0001-01-01T00:00:00Z</time>
				</trkpt>
				<trkpt lat="37.77478" lon="-25.14739">
					<ele>442</ele>
					<time>0001-01-01T00:00:00Z</time>
				</trkpt>
				<trkpt lat="37.77323" lon="-25.14736">
					<ele>436</ele>
					<time>0001-01-01T00:00:00Z</time>
				</trkpt>
				<trkpt lat="37.77258" lon="-25.14736">
					<ele>434</ele>
					<time>0001-01-01T00:00:00Z</time>
				</trkpt>
				<trkpt lat="37.77225" lon="-25.14753">
					<ele>433</ele>
					<time>0001-01-01T00:00:00Z</time>
				</trkpt>
				<trkpt lat="37.77211" lon="-25.14796">
					<ele>431</ele>
					<time>0001-01-01T00:00:00Z</time>
				</trkpt>
				<trkpt lat="37.77224" lon="-25.14850">
					<ele>429</ele>
					<time>0001-01-01T00:00:00Z</time>
				</trkpt>
				<trkpt lat="37.77231" lon="-25.14868">
					<ele>429</ele>
					<time>0001-01-01T00:00:00Z</time>
				</trkpt>
				<trkpt lat="37.77243" lon="-25.14971">
					<ele>427</ele>
					<time>0001-01-01T00:00:00Z</time>
				</trkpt>
				<trkpt lat="37.77262" lon="-25.15013">
					<ele>426</ele>
					<time>0001-01-01T00:00:00Z</time>
				</trkpt>
				<trkpt lat="37.77279" lon="-25.15087">
					<ele>426</ele>
					<time>0001-01-01T00:00:00Z</time>
				</trkpt>
				<trkpt lat="37.77258" lon="-25.15229">
					<ele>424</ele>
					<time>0001-01-01T00:00:00Z</time>
				</trkpt>
				<trkpt lat="37.77235" lon="-25.15358">
					<ele>416</ele>
					<time>0001-01-01T00:00:00Z</time>
				</trkpt>
				<trkpt lat="37.77238" lon="-25.15373">
					<ele>416</ele>
					<time>0001-01-01T00:00:00Z</time>
				</trkpt>
				<trkpt lat="37.77243" lon="-25.15389">
					<ele>416</ele>
					<time>0001-01-01T00:00:00Z</time>
				</trkpt>
				<trkpt lat="37.77214" lon="-25.15474">
					<ele>413</ele>
					<time>0001-01-01T00:00:00Z</time>
				</trkpt>
				<trkpt lat="37.77218" lon="-25.15497">
					<ele>413</ele>
					<time>0001-01-01T00:00:00Z</time>
				</trkpt>
				<trkpt lat="37.77209" lon="-25.15545">
					<ele>410</ele>
					<time>0001-01-01T00:00:00Z</time>
				</trkpt>
				<trkpt lat="37.77197" lon="-25.15554">
					<ele>410</ele>
					<time>0001-01-01T00:00:00Z</time>
				</trkpt>
				<trkpt lat="37.77183" lon="-25.15581">
					<ele>409</ele>
					<time>0001-01-01T00:00:00Z</time>
				</trkpt>
				<trkpt lat="37.77185" lon="-25.15700">
					<ele>401</ele>
					<time>0001-01-01T00:00:00Z</time>
				</trkpt>
				<trkpt lat="37.77177" lon="-25.15716">
					<ele>400</ele>
					<time>0001-01-01T00:00:00Z</time>
				</trkpt>
				<trkpt lat="37.77132" lon="-25.15706">
					<ele>401</ele>
					<time>0001-01-01T00:00:00Z</time>
				</trkpt>
				<trkpt lat="37.77122" lon="-25.15695">
					<ele>400</ele>
					<time>0001-01-01T00:00:00Z</time>
				</trkpt>
				<trkpt lat="37.77101" lon="-25.15666">
					<ele>400</ele>
					<time>0001-01-01T00:00:00Z</time>
				</trkpt>
				<trkpt lat="37.77041" lon="-25.15550">
					<ele>392</ele>
					<time>0001-01-01T00:00:00Z</time>
				</trkpt>
				<trkpt lat="37.76993" lon="-25.15449">
					<ele>389</ele>
					<time>0001-01-01T00:00:00Z</time>
				</trkpt>
				<trkpt lat="37.76950" lon="-25.15425">
					<ele>390</ele>
					<time>0001-01-01T00:00:00Z</time>
				</trkpt>
				<trkpt lat="37.76939" lon="-25.15427">
					<ele>390</ele>
					<time>0001-01-01T00:00:00Z</time>
				</trkpt>
				<trkpt lat="37.76914" lon="-25.15444">
					<ele>389</ele>
					<time>0001-01-01T00:00:00Z</time>
				</trkpt>
				<trkpt lat="37.76906" lon="-25.15486">
					<ele>387</ele>
					<time>0001-01-01T00:00:00Z</time>
				</trkpt>
				<trkpt lat="37.76917" lon="-25.15620">
					<ele>382</ele>
					<time>0001-01-01T00:00:00Z</time>
				</trkpt>
				<trkpt lat="37.76918" lon="-25.15631">
					<ele>382</ele>
					<time>0001-01-01T00:00:00Z</time>
				</trkpt>
				<trkpt lat="37.76882" lon="-25.15679">
					<ele>379</ele>
					<time>0001-01-01T00:00:00Z</time>
				</trkpt>
				<trkpt lat="37.76845" lon="-25.15669">
					<ele>376</ele>
					<time>0001-01-01T00:00:00Z</time>
				</trkpt>
				<trkpt lat="37.76747" lon="-25.15608">
					<ele>373</ele>
					<time>0001-01-01T00:00:00Z</time>
				</trkpt>
				<trkpt lat="37.76649" lon="-25.15583">
					<ele>368</ele>
					<time>0001-01-01T00:00:00Z</time>
				</trkpt>
				<trkpt lat="37.76534" lon="-25.15602">
					<ele>360</ele>
					<time>0001-01-01T00:00:00Z</time>
				</trkpt>
				<trkpt lat="37.76503" lon="-25.15661">
					<ele>358</ele>
					<time>0001-01-01T00:00:00Z</time>
				</trkpt>
				<trkpt lat="37.76502" lon="-25.15687">
					<ele>356</ele>
					<time>0001-01-01T00:00:00Z</time>
				</trkpt>
				<trkpt lat="37.76520" lon="-25.15851">
					<ele>355</ele>
					<time>0001-01-01T00:00:00Z</time>
				</trkpt>
				<trkpt lat="37.76527" lon="-25.15873">
					<ele>356</ele>
					<time>0001-01-01T00:00:00Z</time>
				</trkpt>
				<trkpt lat="37.76609" lon="-25.15994">
					<ele>365</ele>
					<time>0001-01-01T00:00:00Z</time>
				</trkpt>
				<trkpt lat="37.76635" lon="-25.16041">
					<ele>370</ele>
					<time>0001-01-01T00:00:00Z</time>
				</trkpt>
				<trkpt lat="37.76655" lon="-25.16099">
					<ele>371</ele>
					<time>0001-01-01T00:00:00Z</time>
				</trkpt>
				<trkpt lat="37.76686" lon="-25.16178">
					<ele>377</ele>
					<time>0001-01-01T00:00:00Z</time>
				</trkpt>
				<trkpt lat="37.76726" lon="-25.16237">
					<ele>384</ele>
					<time>0001-01-01T00:00:00Z</time>
				</trkpt>
				<trkpt lat="37.76758" lon="-25.16282">
					<ele>389</ele>
					<time>0001-01-01T00:00:00Z</time>
				</trkpt>
				<trkpt lat="37.76781" lon="-25.16342">
					<ele>389</ele>
					<time>0001-01-01T00:00:00Z</time>
				</trkpt>
				<trkpt lat="37.76770" lon="-25.16411">
					<ele>387</ele>
					<time>0001-01-01T00:00:00Z</time>
				</trkpt>
				<trkpt lat="37.76761" lon="-25.16485">
					<ele>391</ele>
					<time>0001-01-01T00:00:00Z</time>
				</trkpt>
				<trkpt lat="37.76789" lon="-25.16526">
					<ele>399</ele>
					<time>0001-01-01T00:00:00Z</time>
				</trkpt>
				<trkpt lat="37.76840" lon="-25.16560">
					<ele>407</ele>
					<time>0001-01-01T00:00:00Z</time>
				</trkpt>
				<trkpt lat="37.76871" lon="-25.16599">
					<ele>413</ele>
					<time>0001-01-01T00:00:00Z</time>
				</trkpt>
				<trkpt lat="37.76903" lon="-25.16683">
					<ele>415</ele>
					<time>0001-01-01T00:00:00Z</time>
				</trkpt>
				<trkpt lat="37.76935" lon="-25.16770">
					<ele>420</ele>
					<time>0001-01-01T00:00:00Z</time>
				</trkpt>
				<trkpt lat="37.76948" lon="-25.16837">
					<ele>424</ele>
					<time>0001-01-01T00:00:00Z</time>
				</trkpt>
				<trkpt lat="37.76933" lon="-25.16883">
					<ele>425</ele>
					<time>0001-01-01T00:00:00Z</time>
				</trkpt>
				<trkpt lat="37.76886" lon="-25.16918">
					<ele>427</ele>
					<time>0001-01-01T00:00:00Z</time>
				</trkpt>
				<trkpt lat="37.76814" lon="-25.16939">
					<ele>436</ele>
					<time>0001-01-01T00:00:00Z</time>
				</trkpt>
				<trkpt lat="37.76754" lon="-25.16978">
					<ele>439</ele>
					<time>0001-01-01T00:00:00Z</time>
				</trkpt>
				<trkpt lat="37.76722" lon="-25.17044">
					<ele>443</ele>
					<time>0001-01-01T00:00:00Z</time>
				</trkpt>
				<trkpt lat="37.76680" lon="-25.17141">
					<ele>449</ele>
					<time>0001-01-01T00:00:00Z</time>
				</trkpt>
				<trkpt lat="37.76639" lon="-25.17237">
					<ele>450</ele>
					<time>0001-01-01T00:00:00Z</time>
				</trkpt>
				<trkpt lat="37.76640" lon="-25.17260">
					<ele>450</ele>
					<time>0001-01-01T00:00:00Z</time>
				</trkpt>
				<trkpt lat="37.76649" lon="-25.17285">
					<ele>449</ele>
					<time>0001-01-01T00:00:00Z</time>
				</trkpt>
				<trkpt lat="37.76675" lon="-25.17305">
					<ele>448</ele>
					<time>0001-01-01T00:00:00Z</time>
				</trkpt>
				<trkpt lat="37.76787" lon="-25.17344">
					<ele>443</ele>
					<time>0001-01-01T00:00:00Z</time>
				</trkpt>
				<trkpt lat="37.76936" lon="-25.17431">
					<ele>439</ele>
					<time>0001-01-01T00:00:00Z</time>
				</trkpt>
				<trkpt lat="37.76962" lon="-25.17464">
					<ele>438</ele>
					<time>0001-01-01T00:00:00Z</time>
				</trkpt>
				<trkpt lat="37.77001" lon="-25.17643">
					<ele>431</ele>
					<time>0001-01-01T00:00:00Z</time>
				</trkpt>
				<trkpt lat="37.77022" lon="-25.17759">
					<ele>426</ele>
					<time>0001-01-01T00:00:00Z</time>
				</trkpt>
				<trkpt lat="37.77080" lon="-25.17848">
					<ele>424</ele>
					<time>0001-01-01T00:00:00Z</time>
				</trkpt>
				<trkpt lat="37.77118" lon="-25.17866">
					<ele>423</ele>
					<time>0001-01-01T00:00:00Z</time>
				</trkpt>
				<trkpt lat="37.77167" lon="-25.17907">
					<ele>421</ele>
					<time>0001-01-01T00:00:00Z</time>
				</trkpt>
				<trkpt lat="37.77193" lon="-25.17990">
					<ele>417</ele>
					<time>0001-01-01T00:00:00Z</time>
				</trkpt>
				<trkpt lat="37.77240" lon="-25.18028">
					<ele>413</ele>
					<time>0001-01-01T00:00:00Z</time>
				</trkpt>
				<trkpt lat="37.77266" lon="-25.18029">
					<ele>412</ele>
					<time>0001-01-01T00:00:00Z</time>
				</trkpt>
				<trkpt lat="37.77300" lon="-25.18040">
					<ele>410</ele>
					<time>0001-01-01T00:00:00Z</time>
				</trkpt>
				<trkpt lat="37.77364" lon="-25.18175">
					<ele>405</ele>
					<time>0001-01-01T00:00:00Z</time>
				</trkpt>
				<trkpt lat="37.77363" lon="-25.18254">
					<ele>401</ele>
					<time>0001-01-01T00:00:00Z</time>
				</trkpt>
				<trkpt lat="37.77353" lon="-25.18280">
					<ele>400</ele>
					<time>0001-01-01T00:00:00Z</time>
				</trkpt>
				<trkpt lat="37.77360" lon="-25.18358">
					<ele>396</ele>
					<time>0001-01-01T00:00:00Z</time>
				</trkpt>
				<trkpt lat="37.77398" lon="-25.18384">
					<ele>392</ele>
					<time>0001-01-01T00:00:00Z</time>
				</trkpt>
				<trkpt lat="37.77500" lon="-25.18417">
					<ele>387</ele>
					<time>0001-01-01T00:00:00Z</time>
				</trkpt>
				<trkpt lat="37.77578" lon="-25.18492">
					<ele>383</ele>
					<time>0001-01-01T00:00:00Z</time>
				</trkpt>
				<trkpt lat="37.77650" lon="-25.18575">
					<ele>382</ele>
					<time>0001-01-01T00:00:00Z</time>
				</trkpt>
				<trkpt lat="37.77615" lon="-25.18623">
					<ele>382</ele>
					<time>0001-01-01T00:00:00Z</time>
				</trkpt>
				<trkpt lat="37.77603" lon="-25.18629">
					<ele>381</ele>
					<time>0001-01-01T00:00:00Z</time>
				</trkpt>
				<trkpt lat="37.77533" lon="-25.18626">
					<ele>379</ele>
					<time>0001-01-01T00:00:00Z</time>
				</trkpt>
				<trkpt lat="37.77378" lon="-25.18587">
					<ele>377</ele>
					<time>0001-01-01T00:00:00Z</time>
				</trkpt>
				<trkpt lat="37.77356" lon="-25.18588">
					<ele>378</ele>
					<time>0001-01-01T00:00:00Z</time>
				</trkpt>
				<trkpt lat="37.77304" lon="-25.18638">
					<ele>382</ele>
					<time>0001-01-01T00:00:00Z</time>
				</trkpt>
				<trkpt lat="37.77257" lon="-25.18843">
					<ele>388</ele>
					<time>0001-01-01T00:00:00Z</time>
				</trkpt>
				<trkpt lat="37.77296" lon="-25.18879">
					<ele>393</ele>
					<time>0001-01-01T00:00:00Z</time>
				</trkpt>
				<trkpt lat="37.77359" lon="-25.18941">
					<ele>398</ele>
					<time>0001-01-01T00:00:00Z</time>
				</trkpt>
				<trkpt lat="37.77362" lon="-25.19056">
					<ele>399</ele>
					<time>0001-01-01T00:00:00Z</time>
				</trkpt>
				<trkpt lat="37.77333" lon="-25.19131">
					<ele>402</ele>
					<time>0001-01-01T00:00:00Z</time>
				</trkpt>
				<trkpt lat="37.77253" lon="-25.19237">
					<ele>405</ele>
					<time>0001-01-01T00:00:00Z</time>
				</trkpt>
				<trkpt lat="37.77212" lon="-25.19246">
					<ele>407</ele>
					<time>0001-01-01T00:00:00Z</time>
				</trkpt>
				<trkpt lat="37.77200" lon="-25.19238">
					<ele>407</ele>
					<time>0001-01-01T00:00:00Z</time>
				</trkpt>
				<trkpt lat="37.77146" lon="-25.19229">
					<ele>410</ele>
					<time>0001-01-01T00:00:00Z</time>
				</trkpt>
				<trkpt lat="37.77101" lon="-25.19291">
					<ele>413</ele>
					<time>0001-01-01T00:00:00Z</time>
				</trkpt>
				<trkpt lat="37.77048" lon="-25.19369">
					<ele>424</ele>
					<time>0001-01-01T00:00:00Z</time>
				</trkpt>
				<trkpt lat="37.77034" lon="-25.19383">
					<ele>428</ele>
					<time>0001-01-01T00:00:00Z</time>
				</trkpt>
				<trkpt lat="37.76959" lon="-25.19415">
					<ele>429</ele>
					<time>0001-01-01T00:00:00Z</time>
				</trkpt>
				<trkpt lat="37.76944" lon="-25.19439">
					<ele>430</ele>
					<time>0001-01-01T00:00:00Z</time>
				</trkpt>
				<trkpt lat="37.76920" lon="-25.19523">
					<ele>438</ele>
					<time>0001-01-01T00:00:00Z</time>
				</trkpt>
				<trkpt lat="37.76910" lon="-25.19547">
					<ele>439</ele>
					<time>0001-01-01T00:00:00Z</time>
				</trkpt>
				<trkpt lat="37.76849" lon="-25.19571">
					<ele>437</ele>
					<time>0001-01-01T00:00:00Z</time>
				</trkpt>
				<trkpt lat="37.76844" lon="-25.19573">
					<ele>437</ele>
					<time>0001-01-01T00:00:00Z</time>
				</trkpt>
				<trkpt lat="37.76823" lon="-25.19594">
					<ele>436</ele>
					<time>0001-01-01T00:00:00Z</time>
				</trkpt>
				<trkpt lat="37.76764" lon="-25.19732">
					<ele>435</ele>
					<time>0001-01-01T00:00:00Z</time>
				</trkpt>
				<trkpt lat="37.76733" lon="-25.19803">
					<ele>435</ele>
					<time>0001-01-01T00:00:00Z</time>
				</trkpt>
				<trkpt lat="37.76738" lon="-25.19859">
					<ele>435</ele>
					<time>0001-01-01T00:00:00Z</time>
				</trkpt>
				<trkpt lat="37.76760" lon="-25.19880">
					<ele>435</ele>
					<time>0001-01-01T00:00:00Z</time>
				</trkpt>
				<trkpt lat="37.76814" lon="-25.19912">
					<ele>436</ele>
					<time>0001-01-01T00:00:00Z</time>
				</trkpt>
				<trkpt lat="37.76888" lon="-25.20006">
					<ele>439</ele>
					<time>0001-01-01T00:00:00Z</time>
				</trkpt>
				<trkpt lat="37.76925" lon="-25.20062">
					<ele>440</ele>
					<time>0001-01-01T00:00:00Z</time>
				</trkpt>
				<trkpt lat="37.76918" lon="-25.20101">
					<ele>442</ele>
					<time>0001-01-01T00:00:00Z</time>
				</trkpt>
				<trkpt lat="37.76841" lon="-25.20129">
					<ele>444</ele>
					<time>0001-01-01T00:00:00Z</time>
				</trkpt>
				<trkpt lat="37.76742" lon="-25.20140">
					<ele>445</ele>
					<time>0001-01-01T00:00:00Z</time>
				</trkpt>
				<trkpt lat="37.76731" lon="-25.20153">
					<ele>446</ele>
					<time>0001-01-01T00:00:00Z</time>
				</trkpt>
				<trkpt lat="37.76722" lon="-25.20169">
					<ele>447</ele>
					<time>0001-01-01T00:00:00Z</time>
				</trkpt>
				<trkpt lat="37.76698" lon="-25.20238">
					<ele>447</ele>
					<time>0001-01-01T00:00:00Z</time>
				</trkpt>
				<trkpt lat="37.76658" lon="-25.20237">
					<ele>447</ele>
					<time>0001-01-01T00:00:00Z</time>
				</trkpt>
				<trkpt lat="37.76645" lon="-25.20236">
					<ele>447</ele>
					<time>0001-01-01T00:00:00Z</time>
				</trkpt>
				<trkpt lat="37.76625" lon="-25.20246">
					<ele>447</ele>
					<time>0001-01-01T00:00:00Z</time>
				</trkpt>
				<trkpt lat="37.76594" lon="-25.20327">
					<ele>447</ele>
					<time>0001-01-01T00:00:00Z</time>
				</trkpt>
				<trkpt lat="37.76557" lon="-25.20444">
					<ele>446</ele>
					<time>0001-01-01T00:00:00Z</time>
				</trkpt>
				<trkpt lat="37.76559" lon="-25.20591">
					<ele>441</ele>
					<time>0001-01-01T00:00:00Z</time>
				</trkpt>
				<trkpt lat="37.76575" lon="-25.20634">
					<ele>440</ele>
					<time>0001-01-01T00:00:00Z</time>
				</trkpt>
				<trkpt lat="37.76569" lon="-25.20701">
					<ele>438</ele>
					<time>0001-01-01T00:00:00Z</time>
				</trkpt>
				<trkpt lat="37.76554" lon="-25.20741">
					<ele>436</ele>
					<time>0001-01-01T00:00:00Z</time>
				</trkpt>
				<trkpt lat="37.76537" lon="-25.20877">
					<ele>433</ele>
					<time>0001-01-01T00:00:00Z</time>
				</trkpt>
				<trkpt lat="37.76531" lon="-25.20896">
					<ele>432</ele>
					<time>0001-01-01T00:00:00Z</time>
				</trkpt>
				<trkpt lat="37.76499" lon="-25.20959">
					<ele>429</ele>
					<time>0001-01-01T00:00:00Z</time>
				</trkpt>
				<trkpt lat="37.76492" lon="-25.21001">
					<ele>428</ele>
					<time>0001-01-01T00:00:00Z</time>
				</trkpt>
				<trkpt lat="37.76490" lon="-25.21131">
					<ele>424</ele>
					<time>0001-01-01T00:00:00Z</time>
				</trkpt>
				<trkpt lat="37.76466" lon="-25.21165">
					<ele>422</ele>
					<time>0001-01-01T00:00:00Z</time>
				</trkpt>
				<trkpt lat="37.76299" lon="-25.21242">
					<ele>413</ele>
					<time>0001-01-01T00:00:00Z</time>
				</trkpt>
				<trkpt lat="37.76181" lon="-25.21291">
					<ele>411</ele>
					<time>0001-01-01T00:00:00Z</time>
				</trkpt>
				<trkpt lat="37.76135" lon="-25.21341">
					<ele>407</ele>
					<time>0001-01-01T00:00:00Z</time>
				</trkpt>
				<trkpt lat="37.76087" lon="-25.21355">
					<ele>403</ele>
					<time>0001-01-01T00:00:00Z</time>
				</trkpt>
				<trkpt lat="37.75951" lon="-25.21350">
					<ele>398</ele>
					<time>0001-01-01T00:00:00Z</time>
				</trkpt>
				<trkpt lat="37.75910" lon="-25.21421">
					<ele>392</ele>
					<time>0001-01-01T00:00:00Z</time>
				</trkpt>
				<trkpt lat="37.75869" lon="-25.21447">
					<ele>389</ele>
					<time>0001-01-01T00:00:00Z</time>
				</trkpt>
				<trkpt lat="37.75809" lon="-25.21420">
					<ele>383</ele>
					<time>0001-01-01T00:00:00Z</time>
				</trkpt>
				<trkpt lat="37.75755" lon="-25.21417">
					<ele>378</ele>
					<time>0001-01-01T00:00:00Z</time>
				</trkpt>
				<trkpt lat="37.75724" lon="-25.21427">
					<ele>377</ele>
					<time>0001-01-01T00:00:00Z</time>
				</trkpt>
				<trkpt lat="37.75665" lon="-25.21492">
					<ele>372</ele>
					<time>0001-01-01T00:00:00Z</time>
				</trkpt>
				<trkpt lat="37.75647" lon="-25.21526">
					<ele>370</ele>
					<time>0001-01-01T00:00:00Z</time>
				</trkpt>
				<trkpt lat="37.75653" lon="-25.21593">
					<ele>369</ele>
					<time>0001-01-01T00:00:00Z</time>
				</trkpt>
				<trkpt lat="37.75677" lon="-25.21660">
					<ele>366</ele>
					<time>0001-01-01T00:00:00Z</time>
				</trkpt>
				<trkpt lat="37.75649" lon="-25.21716">
					<ele>362</ele>
					<time>0001-01-01T00:00:00Z</time>
				</trkpt>
				<trkpt lat="37.75606" lon="-25.21723">
					<ele>358</ele>
					<time>0001-01-01T00:00:00Z</time>
				</trkpt>
				<trkpt lat="37.75580" lon="-25.21758">
					<ele>353</ele>
					<time>0001-01-01T00:00:00Z</time>
				</trkpt>
				<trkpt lat="37.75570" lon="-25.21812">
					<ele>349</ele>
					<time>0001-01-01T00:00:00Z</time>
				</trkpt>
				<trkpt lat="37.75572" lon="-25.21818">
					<ele>342</ele>
					<time>0001-01-01T00:00:00Z</time>
				</trkpt>
				<trkpt lat="37.75571" lon="-25.21818">
					<ele>342</ele>
					<time>0001-01-01T00:00:00Z</time>
				</trkpt>
				<trkpt lat="37.75560" lon="-25.21826">
					<ele>339</ele>
					<time>0001-01-01T00:00:00Z</time>
				</trkpt>
				<trkpt lat="37.75543" lon="-25.21832">
					<ele>338</ele>
					<time>0001-01-01T00:00:00Z</time>
				</trkpt>
				<trkpt lat="37.75471" lon="-25.21832">
					<ele>332</ele>
					<time>0001-01-01T00:00:00Z</time>
				</trkpt>
				<trkpt lat="37.75460" lon="-25.21850">
					<ele>329</ele>
					<time>0001-01-01T00:00:00Z</time>
				</trkpt>
				<trkpt lat="37.75460" lon="-25.21857">
					<ele>328</ele>
					<time>0001-01-01T00:00:00Z</time>
				</trkpt>
				<trkpt lat="37.75468" lon="-25.21863">
					<ele>327</ele>
					<time>0001-01-01T00:00:00Z</time>
				</trkpt>
				<trkpt lat="37.75467" lon="-25.21864">
					<ele>329</ele>
					<time>0001-01-01T00:00:00Z</time>
				</trkpt>
				<trkpt lat="37.75465" lon="-25.21858">
					<ele>330</ele>
					<time>0001-01-01T00:00:00Z</time>
				</trkpt>
				<trkpt lat="37.75427" lon="-25.21917">
					<ele>326</ele>
					<time>0001-01-01T00:00:00Z</time>
				</trkpt>
				<trkpt lat="37.75378" lon="-25.21996">
					<ele>323</ele>
					<time>0001-01-01T00:00:00Z</time>
				</trkpt>
				<trkpt lat="37.75383" lon="-25.22053">
					<ele>320</ele>
					<time>0001-01-01T00:00:00Z</time>
				</trkpt>
				<trkpt lat="37.75390" lon="-25.22071">
					<ele>320</ele>
					<time>0001-01-01T00:00:00Z</time>
				</trkpt>
				<trkpt lat="37.75393" lon="-25.22085">
					<ele>316</ele>
					<time>0001-01-01T00:00:00Z</time>
				</trkpt>
				<trkpt lat="37.75393" lon="-25.22086">
					<ele>313</ele>
					<time>0001-01-01T00:00:00Z</time>
				</trkpt>
				<trkpt lat="37.75403" lon="-25.22092">
					<ele>311</ele>
					<time>0001-01-01T00:00:00Z</time>
				</trkpt>
				<trkpt lat="37.75411" lon="-25.22096">
					<ele>309</ele>
					<time>0001-01-01T00:00:00Z</time>
				</trkpt>
				<trkpt lat="37.75421" lon="-25.22100">
					<ele>308</ele>
					<time>0001-01-01T00:00:00Z</time>
				</trkpt>
				<trkpt lat="37.75449" lon="-25.22100">
					<ele>305</ele>
					<time>0001-01-01T00:00:00Z</time>
				</trkpt>
				<trkpt lat="37.75474" lon="-25.22095">
					<ele>302</ele>
					<time>0001-01-01T00:00:00Z</time>
				</trkpt>
				<trkpt lat="37.75504" lon="-25.22049">
					<ele>301</ele>
					<time>0001-01-01T00:00:00Z</time>
				</trkpt>
				<trkpt lat="37.75505" lon="-25.21975">
					<ele>298</ele>
					<time>0001-01-01T00:00:00Z</time>
				</trkpt>
				<trkpt lat="37.75533" lon="-25.21916">
					<ele>295</ele>
					<time>0001-01-01T00:00:00Z</time>
				</trkpt>
				<trkpt lat="37.75552" lon="-25.21908">
					<ele>294</ele>
					<time>0001-01-01T00:00:00Z</time>
				</trkpt>
				<trkpt lat="37.75603" lon="-25.21903">
					<ele>290</ele>
					<time>0001-01-01T00:00:00Z</time>
				</trkpt>
				<trkpt lat="37.75638" lon="-25.21884">
					<ele>289</ele>
					<time>0001-01-01T00:00:00Z</time>
				</trkpt>
				<trkpt lat="37.75690" lon="-25.21848">
					<ele>286</ele>
					<time>0001-01-01T00:00:00Z</time>
				</trkpt>
				<trkpt lat="37.75769" lon="-25.21870">
					<ele>282</ele>
					<time>0001-01-01T00:00:00Z</time>
				</trkpt>
				<trkpt lat="37.75854" lon="-25.21846">
					<ele>277</ele>
					<time>0001-01-01T00:00:00Z</time>
				</trkpt>
				<trkpt lat="37.75894" lon="-25.21865">
					<ele>274</ele>
					<time>0001-01-01T00:00:00Z</time>
				</trkpt>
				<trkpt lat="37.75937" lon="-25.21993">
					<ele>264</ele>
					<time>0001-01-01T00:00:00Z</time>
				</trkpt>
				<trkpt lat="37.75942" lon="-25.22050">
					<ele>260</ele>
					<time>0001-01-01T00:00:00Z</time>
				</trkpt>
				<trkpt lat="37.75880" lon="-25.22320">
					<ele>241</ele>
					<time>0001-01-01T00:00:00Z</time>
				</trkpt>
				<trkpt lat="37.75860" lon="-25.22446">
					<ele>234</ele>
					<time>0001-01-01T00:00:00Z</time>
				</trkpt>
				<trkpt lat="37.75805" lon="-25.22506">
					<ele>230</ele>
					<time>0001-01-01T00:00:00Z</time>
				</trkpt>
				<trkpt lat="37.75791" lon="-25.22533">
					<ele>228</ele>
					<time>0001-01-01T00:00:00Z</time>
				</trkpt>
				<trkpt lat="37.75709" lon="-25.22753">
					<ele>214</ele>
					<time>0001-01-01T00:00:00Z</time>
				</trkpt>
				<trkpt lat="37.75724" lon="-25.22806">
					<ele>210</ele>
					<time>0001-01-01T00:00:00Z</time>
				</trkpt>
				<trkpt lat="37.75739" lon="-25.22813">
					<ele>209</ele>
					<time>0001-01-01T00:00:00Z</time>
				</trkpt>
				<trkpt lat="37.75782" lon="-25.22859">
					<ele>204</ele>
					<time>0001-01-01T00:00:00Z</time>
				</trkpt>
				<trkpt lat="37.75796" lon="-25.22884">
					<ele>202</ele>
					<time>0001-01-01T00:00:00Z</time>
				</trkpt>
				<trkpt lat="37.75799" lon="-25.22923">
					<ele>200</ele>
					<time>0001-01-01T00:00:00Z</time>
				</trkpt>
				<trkpt lat="37.75794" lon="-25.22945">
					<ele>199</ele>
					<time>0001-01-01T00:00:00Z</time>
				</trkpt>
				<trkpt lat="37.75766" lon="-25.23003">
					<ele>196</ele>
					<time>0001-01-01T00:00:00Z</time>
				</trkpt>
				<trkpt lat="37.75679" lon="-25.23062">
					<ele>191</ele>
					<time>0001-01-01T00:00:00Z</time>
				</trkpt>
				<trkpt lat="37.75663" lon="-25.23093">
					<ele>189</ele>
					<time>0001-01-01T00:00:00Z</time>
				</trkpt>
				<trkpt lat="37.75625" lon="-25.23199">
					<ele>182</ele>
					<time>0001-01-01T00:00:00Z</time>
				</trkpt>
				<trkpt lat="37.75628" lon="-25.23263">
					<ele>178</ele>
					<time>0001-01-01T00:00:00Z</time>
				</trkpt>
				<trkpt lat="37.75603" lon="-25.23341">
					<ele>174</ele>
					<time>0001-01-01T00:00:00Z</time>
				</trkpt>
				<trkpt lat="37.75598" lon="-25.23401">
					<ele>171</ele>
					<time>0001-01-01T00:00:00Z</time>
				</trkpt>
				<trkpt lat="37.75566" lon="-25.23452">
					<ele>169</ele>
					<time>0001-01-01T00:00:00Z</time>
				</trkpt>
				<trkpt lat="37.75520" lon="-25.23489">
					<ele>166</ele>
					<time>0001-01-01T00:00:00Z</time>
				</trkpt>
				<trkpt lat="37.75506" lon="-25.23512">
					<ele>165</ele>
					<time>0001-01-01T00:00:00Z</time>
				</trkpt>
				<trkpt lat="37.75455" lon="-25.23519">
					<ele>163</ele>
					<time>0001-01-01T00:00:00Z</time>
				</trkpt>
				<trkpt lat="37.75403" lon="-25.23495">
					<ele>160</ele>
					<time>0001-01-01T00:00:00Z</time>
				</trkpt>
				<trkpt lat="37.75373" lon="-25.23461">
					<ele>158</ele>
					<time>0001-01-01T00:00:00Z</time>
				</trkpt>
				<trkpt lat="37.75362" lon="-25.23441">
					<ele>157</ele>
					<time>0001-01-01T00:00:00Z</time>
				</trkpt>
				<trkpt lat="37.75328" lon="-25.23430">
					<ele>155</ele>
					<time>0001-01-01T00:00:00Z</time>
				</trkpt>
				<trkpt lat="37.75266" lon="-25.23438">
					<ele>152</ele>
					<time>0001-01-01T00:00:00Z</time>
				</trkpt>
				<trkpt lat="37.75228" lon="-25.23467">
					<ele>150</ele>
					<time>0001-01-01T00:00:00Z</time>
				</trkpt>
				<trkpt lat="37.75200" lon="-25.23504">
					<ele>148</ele>
					<time>0001-01-01T00:00:00Z</time>
				</trkpt>
				<trkpt lat="37.75150" lon="-25.23504">
					<ele>143</ele>
					<time>0001-01-01T00:00:00Z</time>
				</trkpt>
				<trkpt lat="37.75140" lon="-25.23484">
					<ele>141</ele>
					<time>0001-01-01T00:00:00Z</time>
				</trkpt>
				<trkpt lat="37.75131" lon="-25.23461">
					<ele>140</ele>
					<time>0001-01-01T00:00:00Z</time>
				</trkpt>
				<trkpt lat="37.75091" lon="-25.23454">
					<ele>137</ele>
					<time>0001-01-01T00:00:00Z</time>
				</trkpt>
				<trkpt lat="37.75082" lon="-25.23477">
					<ele>136</ele>
					<time>0001-01-01T00:00:00Z</time>
				</trkpt>
				<trkpt lat="37.75055" lon="-25.23566">
					<ele>131</ele>
					<time>0001-01-01T00:00:00Z</time>
				</trkpt>
				<trkpt lat="37.74968" lon="-25.23703">
					<ele>118</ele>
					<time>0001-01-01T00:00:00Z</time>
				</trkpt>
				<trkpt lat="37.74884" lon="-25.23804">
					<ele>106</ele>
					<time>0001-01-01T00:00:00Z</time>
				</trkpt>
				<trkpt lat="37.74863" lon="-25.23863">
					<ele>102</ele>
					<time>0001-01-01T00:00:00Z</time>
				</trkpt>
				<trkpt lat="37.74869" lon="-25.24015">
					<ele>88</ele>
					<time>0001-01-01T00:00:00Z</time>
				</trkpt>
				<trkpt lat="37.74846" lon="-25.24062">
					<ele>82</ele>
					<time>0001-01-01T00:00:00Z</time>
				</trkpt>
				<trkpt lat="37.74794" lon="-25.24122">
					<ele>73</ele>
					<time>0001-01-01T00:00:00Z</time>
				</trkpt>
				<trkpt lat="37.74774" lon="-25.24163">
					<ele>68</ele>
					<time>0001-01-01T00:00:00Z</time>
				</trkpt>
				<trkpt lat="37.74774" lon="-25.24192">
					<ele>65</ele>
					<time>0001-01-01T00:00:00Z</time>
				</trkpt>
				<trkpt lat="37.74775" lon="-25.24192">
					<ele>64</ele>
					<time>0001-01-01T00:00:00Z</time>
				</trkpt>
				<trkpt lat="37.74783" lon="-25.24196">
					<ele>64</ele>
					<time>0001-01-01T00:00:00Z</time>
				</trkpt>
				<trkpt lat="37.74820" lon="-25.24182">
					<ele>60</ele>
					<time>0001-01-01T00:00:00Z</time>
				</trkpt>
				<trkpt lat="37.74896" lon="-25.24069">
					<ele>52</ele>
					<time>0001-01-01T00:00:00Z</time>
				</trkpt>
				<trkpt lat="37.74993" lon="-25.23954">
					<ele>41</ele>
					<time>0001-01-01T00:00:00Z</time>
				</trkpt>
				<trkpt lat="37.75028" lon="-25.23957">
					<ele>39</ele>
					<time>0001-01-01T00:00:00Z</time>
				</trkpt>
				<trkpt lat="37.75065" lon="-25.23976">
					<ele>36</ele>
					<time>0001-01-01T00:00:00Z</time>
				</trkpt>
				<trkpt lat="37.75095" lon="-25.24021">
					<ele>33</ele>
					<time>0001-01-01T00:00:00Z</time>
				</trkpt>
				<trkpt lat="37.75101" lon="-25.24073">
					<ele>31</ele>
					<time>0001-01-01T00:00:00Z</time>
				</trkpt>
				<trkpt lat="37.75117" lon="-25.24128">
					<ele>27</ele>
					<time>0001-01-01T00:00:00Z</time>
				</trkpt>
				<trkpt lat="37.75128" lon="-25.24160">
					<ele>26</ele>
					<time>0001-01-01T00:00:00Z</time>
				</trkpt>
				<trkpt lat="37.75132" lon="-25.24191">
					<ele>25</ele>
					<time>0001-01-01T00:00:00Z</time>
				</trkpt>
				<trkpt lat="37.75116" lon="-25.24234">
					<ele>24</ele>
					<time>0001-01-01T00:00:00Z</time>
				</trkpt>
				<trkpt lat="37.74985" lon="-25.24376">
					<ele>17</ele>
					<time>0001-01-01T00:00:00Z</time>
				</trkpt>
				<trkpt lat="37.74888" lon="-25.24476">
					<ele>13</ele>
					<time>0001-01-01T00:00:00Z</time>
				</trkpt>
				<trkpt lat="37.74837" lon="-25.24524">
					<ele>12</ele>
					<time>0001-01-01T00:00:00Z</time>
				</trkpt>
				<trkpt lat="37.74760" lon="-25.24567">
					<ele>9</ele>
					<time>0001-01-01T00:00:00Z</time>
				</trkpt>
				<trkpt lat="37.74711" lon="-25.24577">
					<ele>6</ele>
					<time>0001-01-01T00:00:00Z</time>
				</trkpt>
				<trkpt lat="37.74693" lon="-25.24588">
					<ele>6</ele>
					<time>0001-01-01T00:00:00Z</time>
				</trkpt>
				<trkpt lat="37.74689" lon="-25.24617">
					<ele>6</ele>
					<time>0001-01-01T00:00:00Z</time>
				</trkpt>
				<trkpt lat="37.74713" lon="-25.24676">
					<ele>9</ele>
					<time>0001-01-01T00:00:00Z</time>
				</trkpt>
				<trkpt lat="37.74726" lon="-25.24727">
					<ele>12</ele>
					<time>0001-01-01T00:00:00Z</time>
				</trkpt>
				<trkpt lat="37.74739" lon="-25.24778">
					<ele>15</ele>
					<time>0001-01-01T00:00:00Z</time>
				</trkpt>
				<trkpt lat="37.74748" lon="-25.24820">
					<ele>17</ele>
					<time>0001-01-01T00:00:00Z</time>
				</trkpt>
				<trkpt lat="37.74752" lon="-25.24857">
					<ele>21</ele>
					<time>0001-01-01T00:00:00Z</time>
				</trkpt>
				<trkpt lat="37.74750" lon="-25.24903">
					<ele>24</ele>
					<time>0001-01-01T00:00:00Z</time>
				</trkpt>
				<trkpt lat="37.74749" lon="-25.24940">
					<ele>27</ele>
					<time>0001-01-01T00:00:00Z</time>
				</trkpt>
				<trkpt lat="37.74755" lon="-25.24991">
					<ele>31</ele>
					<time>0001-01-01T00:00:00Z</time>
				</trkpt>
				<trkpt lat="37.74758" lon="-25.25004">
					<ele>33</ele>
					<time>0001-01-01T00:00:00Z</time>
				</trkpt>
				<trkpt lat="37.74756" lon="-25.25014">
					<ele>33</ele>
					<time>0001-01-01T00:00:00Z</time>
				</trkpt>
				<trkpt lat="37.74756" lon="-25.25014">
					<ele>35</ele>
					<time>0001-01-01T00:00:00Z</time>
				</trkpt>
				<trkpt lat="37.74762" lon="-25.25023">
					<ele>36</ele>
					<time>0001-01-01T00:00:00Z</time>
				</trkpt>
				<trkpt lat="37.74779" lon="-25.25070">
					<ele>41</ele>
					<time>0001-01-01T00:00:00Z</time>
				</trkpt>
				<trkpt lat="37.74811" lon="-25.25101">
					<ele>47</ele>
					<time>0001-01-01T00:00:00Z</time>
				</trkpt>
				<trkpt lat="37.74843" lon="-25.25121">
					<ele>51</ele>
					<time>0001-01-01T00:00:00Z</time>
				</trkpt>
				<trkpt lat="37.74884" lon="-25.25131">
					<ele>54</ele>
					<time>0001-01-01T00:00:00Z</time>
				</trkpt>
				<trkpt lat="37.74920" lon="-25.25139">
					<ele>60</ele>
					<time>0001-01-01T00:00:00Z</time>
				</trkpt>
				<trkpt lat="37.74944" lon="-25.25158">
					<ele>63</ele>
					<time>0001-01-01T00:00:00Z</time>
				</trkpt>
				<trkpt lat="37.74949" lon="-25.25199">
					<ele>64</ele>
					<time>0001-01-01T00:00:00Z</time>
				</trkpt>
				<trkpt lat="37.74929" lon="-25.25240">
					<ele>68</ele>
					<time>0001-01-01T00:00:00Z</time>
				</trkpt>
				<trkpt lat="37.74908" lon="-25.25281">
					<ele>72</ele>
					<time>0001-01-01T00:00:00Z</time>
				</trkpt>
				<trkpt lat="37.74912" lon="-25.25326">
					<ele>75</ele>
					<time>0001-01-01T00:00:00Z</time>
				</trkpt>
				<trkpt lat="37.74943" lon="-25.25326">
					<ele>78</ele>
					<time>0001-01-01T00:00:00Z</time>
				</trkpt>
				<trkpt lat="37.74972" lon="-25.25288">
					<ele>83</ele>
					<time>0001-01-01T00:00:00Z</time>
				</trkpt>
				<trkpt lat="37.75006" lon="-25.25292">
					<ele>85</ele>
					<time>0001-01-01T00:00:00Z</time>
				</trkpt>
				<trkpt lat="37.75051" lon="-25.25337">
					<ele>89</ele>
					<time>0001-01-01T00:00:00Z</time>
				</trkpt>
				<trkpt lat="37.75054" lon="-25.25339">
					<ele>90</ele>
					<time>0001-01-01T00:00:00Z</time>
				</trkpt>
				<trkpt lat="37.75071" lon="-25.25356">
					<ele>92</ele>
					<time>0001-01-01T00:00:00Z</time>
				</trkpt>
				<trkpt lat="37.75092" lon="-25.25407">
					<ele>94</ele>
					<time>0001-01-01T00:00:00Z</time>
				</trkpt>
				<trkpt lat="37.75093" lon="-25.25460">
					<ele>96</ele>
					<time>0001-01-01T00:00:00Z</time>
				</trkpt>
				<trkpt lat="37.75093" lon="-25.25531">
					<ele>102</ele>
					<time>0001-01-01T00:00:00Z</time>
				</trkpt>
				<trkpt lat="37.75105" lon="-25.25578">
					<ele>103</ele>
					<time>0001-01-01T00:00:00Z</time>
				</trkpt>
				<trkpt lat="37.75117" lon="-25.25598">
					<ele>106</ele>
					<time>0001-01-01T00:00:00Z</time>
				</trkpt>
				<trkpt lat="37.75124" lon="-25.25649">
					<ele>110</ele>
					<time>0001-01-01T00:00:00Z</time>
				</trkpt>
				<trkpt lat="37.75120" lon="-25.25717">
					<ele>116</ele>
					<time>0001-01-01T00:00:00Z</time>
				</trkpt>
				<trkpt lat="37.75134" lon="-25.25774">
					<ele>123</ele>
					<time>0001-01-01T00:00:00Z</time>
				</trkpt>
				<trkpt lat="37.75147" lon="-25.25818">
					<ele>126</ele>
					<time>0001-01-01T00:00:00Z</time>
				</trkpt>
				<trkpt lat="37.75138" lon="-25.25869">
					<ele>129</ele>
					<time>0001-01-01T00:00:00Z</time>
				</trkpt>
				<trkpt lat="37.75101" lon="-25.25883">
					<ele>131</ele>
					<time>0001-01-01T00:00:00Z</time>
				</trkpt>
				<trkpt lat="37.75051" lon="-25.25865">
					<ele>135</ele>
					<time>0001-01-01T00:00:00Z</time>
				</trkpt>
				<trkpt lat="37.74975" lon="-25.25852">
					<ele>141</ele>
					<time>0001-01-01T00:00:00Z</time>
				</trkpt>
				<trkpt lat="37.74943" lon="-25.25817">
					<ele>143</ele>
					<time>0001-01-01T00:00:00Z</time>
				</trkpt>
				<trkpt lat="37.74905" lon="-25.25760">
					<ele>149</ele>
					<time>0001-01-01T00:00:00Z</time>
				</trkpt>
				<trkpt lat="37.74861" lon="-25.25752">
					<ele>154</ele>
					<time>0001-01-01T00:00:00Z</time>
				</trkpt>
				<trkpt lat="37.74818" lon="-25.25785">
					<ele>158</ele>
					<time>0001-01-01T00:00:00Z</time>
				</trkpt>
				<trkpt lat="37.74808" lon="-25.25833">
					<ele>160</ele>
					<time>0001-01-01T00:00:00Z</time>
				</trkpt>
				<trkpt lat="37.74820" lon="-25.25914">
					<ele>164</ele>
					<time>0001-01-01T00:00:00Z</time>
				</trkpt>
				<trkpt lat="37.74837" lon="-25.25993">
					<ele>167</ele>
					<time>0001-01-01T00:00:00Z</time>
				</trkpt>
				<trkpt lat="37.74874" lon="-25.26020">
					<ele>170</ele>
					<time>0001-01-01T00:00:00Z</time>
				</trkpt>
				<trkpt lat="37.74932" lon="-25.26064">
					<ele>174</ele>
					<time>0001-01-01T00:00:00Z</time>
				</trkpt>
				<trkpt lat="37.74982" lon="-25.26124">
					<ele>178</ele>
					<time>0001-01-01T00:00:00Z</time>
				</trkpt>
				<trkpt lat="37.75042" lon="-25.26144">
					<ele>182</ele>
					<time>0001-01-01T00:00:00Z</time>
				</trkpt>
				<trkpt lat="37.75078" lon="-25.26182">
					<ele>185</ele>
					<time>0001-01-01T00:00:00Z</time>
				</trkpt>
				<trkpt lat="37.75072" lon="-25.26236">
					<ele>188</ele>
					<time>0001-01-01T00:00:00Z</time>
				</trkpt>
				<trkpt lat="37.75032" lon="-25.26262">
					<ele>190</ele>
					<time>0001-01-01T00:00:00Z</time>
				</trkpt>
				<trkpt lat="37.74954" lon="-25.26261">
					<ele>196</ele>
					<time>0001-01-01T00:00:00Z</time>
				</trkpt>
				<trkpt lat="37.74909" lon="-25.26276">
					<ele>199</ele>
					<time>0001-01-01T00:00:00Z</time>
				</trkpt>
				<trkpt lat="37.74911" lon="-25.26319">
					<ele>202</ele>
					<time>0001-01-01T00:00:00Z</time>
				</trkpt>
				<trkpt lat="37.74938" lon="-25.26390">
					<ele>207</ele>
					<time>0001-01-01T00:00:00Z</time>
				</trkpt>
				<trkpt lat="37.74975" lon="-25.26428">
					<ele>210</ele>
					<time>0001-01-01T00:00:00Z</time>
				</trkpt>
				<trkpt lat="37.75026" lon="-25.26447">
					<ele>214</ele>
					<time>0001-01-01T00:00:00Z</time>
				</trkpt>
				<trkpt lat="37.75069" lon="-25.26483">
					<ele>219</ele>
					<time>0001-01-01T00:00:00Z</time>
				</trkpt>
				<trkpt lat="37.75085" lon="-25.26535">
					<ele>219</ele>
					<time>0001-01-01T00:00:00Z</time>
				</trkpt>
				<trkpt lat="37.75063" lon="-25.26573">
					<ele>222</ele>
					<time>0001-01-01T00:00:00Z</time>
				</trkpt>
				<trkpt lat="37.75046" lon="-25.26575">
					<ele>224</ele>
					<time>0001-01-01T00:00:00Z</time>
				</trkpt>
				<trkpt lat="37.75019" lon="-25.26518">
					<ele>227</ele>
					<time>0001-01-01T00:00:00Z</time>
				</trkpt>
				<trkpt lat="37.74980" lon="-25.26494">
					<ele>232</ele>
					<time>0001-01-01T00:00:00Z</time>
				</trkpt>
				<trkpt lat="37.74920" lon="-25.26481">
					<ele>234</ele>
					<time>0001-01-01T00:00:00Z</time>
				</trkpt>
				<trkpt lat="37.74871" lon="-25.26491">
					<ele>237</ele>
					<time>0001-01-01T00:00:00Z</time>
				</trkpt>
				<trkpt lat="37.74854" lon="-25.26535">
					<ele>239</ele>
					<time>0001-01-01T00:00:00Z</time>
				</trkpt>
				<trkpt lat="37.74844" lon="-25.26611">
					<ele>240</ele>
					<time>0001-01-01T00:00:00Z</time>
				</trkpt>
				<trkpt lat="37.74843" lon="-25.26621">
					<ele>240</ele>
					<time>0001-01-01T00:00:00Z</time>
				</trkpt>
				<trkpt lat="37.74850" lon="-25.26670">
					<ele>242</ele>
					<time>0001-01-01T00:00:00Z</time>
				</trkpt>
				<trkpt lat="37.74854" lon="-25.26680">
					<ele>242</ele>
					<time>0001-01-01T00:00:00Z</time>
				</trkpt>
				<trkpt lat="37.74868" lon="-25.26702">
					<ele>242</ele>
					<time>0001-01-01T00:00:00Z</time>
				</trkpt>
				<trkpt lat="37.74917" lon="-25.26743">
					<ele>241</ele>
					<time>0001-01-01T00:00:00Z</time>
				</trkpt>
				<trkpt lat="37.74979" lon="-25.26792">
					<ele>239</ele>
					<time>0001-01-01T00:00:00Z</time>
				</trkpt>
				<trkpt lat="37.74974" lon="-25.26836">
					<ele>240</ele>
					<time>0001-01-01T00:00:00Z</time>
				</trkpt>
				<trkpt lat="37.74939" lon="-25.26874">
					<ele>241</ele>
					<time>0001-01-01T00:00:00Z</time>
				</trkpt>
				<trkpt lat="37.74930" lon="-25.26904">
					<ele>241</ele>
					<time>0001-01-01T00:00:00Z</time>
				</trkpt>
				<trkpt lat="37.74941" lon="-25.26988">
					<ele>242</ele>
					<time>0001-01-01T00:00:00Z</time>
				</trkpt>
				<trkpt lat="37.74964" lon="-25.27024">
					<ele>242</ele>
					<time>0001-01-01T00:00:00Z</time>
				</trkpt>
				<trkpt lat="37.74978" lon="-25.27056">
					<ele>243</ele>
					<time>0001-01-01T00:00:00Z</time>
				</trkpt>
				<trkpt lat="37.74980" lon="-25.27080">
					<ele>244</ele>
					<time>0001-01-01T00:00:00Z</time>
				</trkpt>
				<trkpt lat="37.74923" lon="-25.27156">
					<ele>249</ele>
					<time>0001-01-01T00:00:00Z</time>
				</trkpt>
				<trkpt lat="37.74875" lon="-25.27220">
					<ele>252</ele>
					<time>0001-01-01T00:00:00Z</time>
				</trkpt>
				<trkpt lat="37.74822" lon="-25.27297">
					<ele>256</ele>
					<time>0001-01-01T00:00:00Z</time>
				</trkpt>
				<trkpt lat="37.74833" lon="-25.27338">
					<ele>259</ele>
					<time>0001-01-01T00:00:00Z</time>
				</trkpt>
				<trkpt lat="37.74878" lon="-25.27359">
					<ele>258</ele>
					<time>0001-01-01T00:00:00Z</time>
				</trkpt>
				<trkpt lat="37.74914" lon="-25.27362">
					<ele>260</ele>
					<time>0001-01-01T00:00:00Z</time>
				</trkpt>
				<trkpt lat="37.74924" lon="-25.27366">
					<ele>261</ele>
					<time>0001-01-01T00:00:00Z</time>
				</trkpt>
				<trkpt lat="37.75003" lon="-25.27401">
					<ele>263</ele>
					<time>0001-01-01T00:00:00Z</time>
				</trkpt>
				<trkpt lat="37.75050" lon="-25.27442">
					<ele>266</ele>
					<time>0001-01-01T00:00:00Z</time>
				</trkpt>
				<trkpt lat="37.75051" lon="-25.27464">
					<ele>268</ele>
					<time>0001-01-01T00:00:00Z</time>
				</trkpt>
				<trkpt lat="37.75038" lon="-25.27484">
					<ele>269</ele>
					<time>0001-01-01T00:00:00Z</time>
				</trkpt>
				<trkpt lat="37.74994" lon="-25.27536">
					<ele>274</ele>
					<time>0001-01-01T00:00:00Z</time>
				</trkpt>
				<trkpt lat="37.74989" lon="-25.27599">
					<ele>276</ele>
					<time>0001-01-01T00:00:00Z</time>
				</trkpt>
				<trkpt lat="37.75022" lon="-25.27645">
					<ele>278</ele>
					<time>0001-01-01T00:00:00Z</time>
				</trkpt>
				<trkpt lat="37.75096" lon="-25.27697">
					<ele>279</ele>
					<time>0001-01-01T00:00:00Z</time>
				</trkpt>
				<trkpt lat="37.75135" lon="-25.27742">
					<ele>280</ele>
					<time>0001-01-01T00:00:00Z</time>
				</trkpt>
				<trkpt lat="37.75135" lon="-25.27750">
					<ele>281</ele>
					<time>0001-01-01T00:00:00Z</time>
				</trkpt>
				<trkpt lat="37.75093" lon="-25.27785">
					<ele>285</ele>
					<time>0001-01-01T00:00:00Z</time>
				</trkpt>
				<trkpt lat="37.75066" lon="-25.27802">
					<ele>288</ele>
					<time>0001-01-01T00:00:00Z</time>
				</trkpt>
				<trkpt lat="37.75060" lon="-25.27820">
					<ele>289</ele>
					<time>0001-01-01T00:00:00Z</time>
				</trkpt>
				<trkpt lat="37.75077" lon="-25.27869">
					<ele>291</ele>
					<time>0001-01-01T00:00:00Z</time>
				</trkpt>
				<trkpt lat="37.75127" lon="-25.27917">
					<ele>292</ele>
					<time>0001-01-01T00:00:00Z</time>
				</trkpt>
				<trkpt lat="37.75199" lon="-25.27915">
					<ele>294</ele>
					<time>0001-01-01T00:00:00Z</time>
				</trkpt>
				<trkpt lat="37.75257" lon="-25.27917">
					<ele>297</ele>
					<time>0001-01-01T00:00:00Z</time>
				</trkpt>
				<trkpt lat="37.75317" lon="-25.27928">
					<ele>300</ele>
					<time>0001-01-01T00:00:00Z</time>
				</trkpt>
				<trkpt lat="37.75383" lon="-25.27943">
					<ele>304</ele>
					<time>0001-01-01T00:00:00Z</time>
				</trkpt>
				<trkpt lat="37.75435" lon="-25.27959">
					<ele>307</ele>
					<time>0001-01-01T00:00:00Z</time>
				</trkpt>
				<trkpt lat="37.75490" lon="-25.27992">
					<ele>311</ele>
					<time>0001-01-01T00:00:00Z</time>
				</trkpt>
				<trkpt lat="37.75500" lon="-25.28093">
					<ele>318</ele>
					<time>0001-01-01T00:00:00Z</time>
				</trkpt>
				<trkpt lat="37.75488" lon="-25.28148">
					<ele>322</ele>
					<time>0001-01-01T00:00:00Z</time>
				</trkpt>
				<trkpt lat="37.75453" lon="-25.28170">
					<ele>330</ele>
					<time>0001-01-01T00:00:00Z</time>
				</trkpt>
				<trkpt lat="37.75385" lon="-25.28191">
					<ele>338</ele>
					<time>0001-01-01T00:00:00Z</time>
				</trkpt>
				<trkpt lat="37.75369" lon="-25.28235">
					<ele>340</ele>
					<time>0001-01-01T00:00:00Z</time>
				</trkpt>
				<trkpt lat="37.75397" lon="-25.28271">
					<ele>342</ele>
					<time>0001-01-01T00:00:00Z</time>
				</trkpt>
				<trkpt lat="37.75449" lon="-25.28296">
					<ele>340</ele>
					<time>0001-01-01T00:00:00Z</time>
				</trkpt>
				<trkpt lat="37.75510" lon="-25.28323">
					<ele>342</ele>
					<time>0001-01-01T00:00:00Z</time>
				</trkpt>
				<trkpt lat="37.75562" lon="-25.28384">
					<ele>345</ele>
					<time>0001-01-01T00:00:00Z</time>
				</trkpt>
				<trkpt lat="37.75593" lon="-25.28472">
					<ele>350</ele>
					<time>0001-01-01T00:00:00Z</time>
				</trkpt>
				<trkpt lat="37.75622" lon="-25.28542">
					<ele>352</ele>
					<time>0001-01-01T00:00:00Z</time>
				</trkpt>
				<trkpt lat="37.75650" lon="-25.28612">
					<ele>353</ele>
					<time>0001-01-01T00:00:00Z</time>
				</trkpt>
				<trkpt lat="37.75630" lon="-25.28665">
					<ele>350</ele>
					<time>0001-01-01T00:00:00Z</time>
				</trkpt>
				<trkpt lat="37.75626" lon="-25.28669">
					<ele>349</ele>
					<time>0001-01-01T00:00:00Z</time>
				</trkpt>
				<trkpt lat="37.75592" lon="-25.28684">
					<ele>342</ele>
					<time>0001-01-01T00:00:00Z</time>
				</trkpt>
				<trkpt lat="37.75511" lon="-25.28699">
					<ele>340</ele>
					<time>0001-01-01T00:00:00Z</time>
				</trkpt>
				<trkpt lat="37.75461" lon="-25.28750">
					<ele>340</ele>
					<time>0001-01-01T00:00:00Z</time>
				</trkpt>
				<trkpt lat="37.75405" lon="-25.28814">
					<ele>339</ele>
					<time>0001-01-01T00:00:00Z</time>
				</trkpt>
				<trkpt lat="37.75413" lon="-25.28847">
					<ele>337</ele>
					<time>0001-01-01T00:00:00Z</time>
				</trkpt>
				<trkpt lat="37.75431" lon="-25.28807">
					<ele>333</ele>
					<time>0001-01-01T00:00:00Z</time>
				</trkpt>
				<trkpt lat="37.75478" lon="-25.28735">
					<ele>331</ele>
					<time>0001-01-01T00:00:00Z</time>
				</trkpt>
				<trkpt lat="37.75519" lon="-25.28709">
					<ele>328</ele>
					<time>0001-01-01T00:00:00Z</time>
				</trkpt>
				<trkpt lat="37.75550" lon="-25.28721">
					<ele>327</ele>
					<time>0001-01-01T00:00:00Z</time>
				</trkpt>
				<trkpt lat="37.75568" lon="-25.28741">
					<ele>327</ele>
					<time>0001-01-01T00:00:00Z</time>
				</trkpt>
				<trkpt lat="37.75634" lon="-25.28772">
					<ele>323</ele>
					<time>0001-01-01T00:00:00Z</time>
				</trkpt>
				<trkpt lat="37.75660" lon="-25.28775">
					<ele>321</ele>
					<time>0001-01-01T00:00:00Z</time>
				</trkpt>
				<trkpt lat="37.75710" lon="-25.28756">
					<ele>317</ele>
					<time>0001-01-01T00:00:00Z</time>
				</trkpt>
				<trkpt lat="37.75792" lon="-25.28700">
					<ele>310</ele>
					<time>0001-01-01T00:00:00Z</time>
				</trkpt>
				<trkpt lat="37.75843" lon="-25.28714">
					<ele>307</ele>
					<time>0001-01-01T00:00:00Z</time>
				</trkpt>
				<trkpt lat="37.75856" lon="-25.28774">
					<ele>305</ele>
					<time>0001-01-01T00:00:00Z</time>
				</trkpt>
				<trkpt lat="37.75900" lon="-25.28839">
					<ele>303</ele>
					<time>0001-01-01T00:00:00Z</time>
				</trkpt>
				<trkpt lat="37.75975" lon="-25.28798">
					<ele>301</ele>
					<time>0001-01-01T00:00:00Z</time>
				</trkpt>
				<trkpt lat="37.76030" lon="-25.28711">
					<ele>293</ele>
					<time>0001-01-01T00:00:00Z</time>
				</trkpt>
				<trkpt lat="37.76043" lon="-25.28683">
					<ele>292</ele>
					<time>0001-01-01T00:00:00Z</time>
				</trkpt>
				<trkpt lat="37.76109" lon="-25.28650">
					<ele>289</ele>
					<time>0001-01-01T00:00:00Z</time>
				</trkpt>
				<trkpt lat="37.76162" lon="-25.28683">
					<ele>289</ele>
					<time>0001-01-01T00:00:00Z</time>
				</trkpt>
				<trkpt lat="37.76293" lon="-25.28639">
					<ele>289</ele>
					<time>0001-01-01T00:00:00Z</time>
				</trkpt>
				<trkpt lat="37.76314" lon="-25.28622">
					<ele>287</ele>
					<time>0001-01-01T00:00:00Z</time>
				</trkpt>
				<trkpt lat="37.76333" lon="-25.28604">
					<ele>287</ele>
					<time>0001-01-01T00:00:00Z</time>
				</trkpt>
				<trkpt lat="37.76354" lon="-25.28598">
					<ele>285</ele>
					<time>0001-01-01T00:00:00Z</time>
				</trkpt>
				<trkpt lat="37.76377" lon="-25.28639">
					<ele>282</ele>
					<time>0001-01-01T00:00:00Z</time>
				</trkpt>
				<trkpt lat="37.76402" lon="-25.28774">
					<ele>281</ele>
					<time>0001-01-01T00:00:00Z</time>
				</trkpt>
				<trkpt lat="37.76403" lon="-25.28802">
					<ele>279</ele>
					<time>0001-01-01T00:00:00Z</time>
				</trkpt>
				<trkpt lat="37.76424" lon="-25.28850">
					<ele>276</ele>
					<time>0001-01-01T00:00:00Z</time>
				</trkpt>
				<trkpt lat="37.76460" lon="-25.28879">
					<ele>276</ele>
					<time>0001-01-01T00:00:00Z</time>
				</trkpt>
				<trkpt lat="37.76526" lon="-25.28897">
					<ele>272</ele>
					<time>0001-01-01T00:00:00Z</time>
				</trkpt>
				<trkpt lat="37.76567" lon="-25.28925">
					<ele>271</ele>
					<time>0001-01-01T00:00:00Z</time>
				</trkpt>
				<trkpt lat="37.76618" lon="-25.28922">
					<ele>265</ele>
					<time>0001-01-01T00:00:00Z</time>
				</trkpt>
				<trkpt lat="37.76646" lon="-25.28895">
					<ele>260</ele>
					<time>0001-01-01T00:00:00Z</time>
				</trkpt>
				<trkpt lat="37.76661" lon="-25.28873">
					<ele>257</ele>
					<time>0001-01-01T00:00:00Z</time>
				</trkpt>
				<trkpt lat="37.76701" lon="-25.28860">
					<ele>255</ele>
					<time>0001-01-01T00:00:00Z</time>
				</trkpt>
				<trkpt lat="37.76724" lon="-25.28921">
					<ele>255</ele>
					<time>0001-01-01T00:00:00Z</time>
				</trkpt>
				<trkpt lat="37.76733" lon="-25.28990">
					<ele>249</ele>
					<time>0001-01-01T00:00:00Z</time>
				</trkpt>
				<trkpt lat="37.76811" lon="-25.29078">
					<ele>236</ele>
					<time>0001-01-01T00:00:00Z</time>
				</trkpt>
				<trkpt lat="37.76839" lon="-25.29129">
					<ele>227</ele>
					<time>0001-01-01T00:00:00Z</time>
				</trkpt>
				<trkpt lat="37.76949" lon="-25.29354">
					<ele>202</ele>
					<time>0001-01-01T00:00:00Z</time>
				</trkpt>
				<trkpt lat="37.77025" lon="-25.29480">
					<ele>195</ele>
					<time>0001-01-01T00:00:00Z</time>
				</trkpt>
				<trkpt lat="37.77070" lon="-25.29550">
					<ele>194</ele>
					<time>0001-01-01T00:00:00Z</time>
				</trkpt>
				<trkpt lat="37.77072" lon="-25.29554">
					<ele>194</ele>
					<time>0001-01-01T00:00:00Z</time>
				</trkpt>
				<trkpt lat="37.77114" lon="-25.29665">
					<ele>192</ele>
					<time>0001-01-01T00:00:00Z</time>
				</trkpt>
				<trkpt lat="37.77139" lon="-25.29705">
					<ele>192</ele>
					<time>0001-01-01T00:00:00Z</time>
				</trkpt>
				<trkpt lat="37.77153" lon="-25.29716">
					<ele>192</ele>
					<time>0001-01-01T00:00:00Z</time>
				</trkpt>
				<trkpt lat="37.77236" lon="-25.29770">
					<ele>192</ele>
					<time>0001-01-01T00:00:00Z</time>
				</trkpt>
				<trkpt lat="37.77297" lon="-25.29831">
					<ele>193</ele>
					<time>0001-01-01T00:00:00Z</time>
				</trkpt>
				<trkpt lat="37.77349" lon="-25.29907">
					<ele>195</ele>
					<time>0001-01-01T00:00:00Z</time>
				</trkpt>
				<trkpt lat="37.77355" lon="-25.29921">
					<ele>196</ele>
					<time>0001-01-01T00:00:00Z</time>
				</trkpt>
				<trkpt lat="37.77370" lon="-25.29988">
					<ele>198</ele>
					<time>0001-01-01T00:00:00Z</time>
				</trkpt>
				<trkpt lat="37.77369" lon="-25.30020">
					<ele>199</ele>
					<time>0001-01-01T00:00:00Z</time>
				</trkpt>
				<trkpt lat="37.77363" lon="-25.30044">
					<ele>199</ele>
					<time>0001-01-01T00:00:00Z</time>
				</trkpt>
				<trkpt lat="37.77304" lon="-25.30148">
					<ele>198</ele>
					<time>0001-01-01T00:00:00Z</time>
				</trkpt>
				<trkpt lat="37.77246" lon="-25.30254">
					<ele>196</ele>
					<time>0001-01-01T00:00:00Z</time>
				</trkpt>
				<trkpt lat="37.77229" lon="-25.30339">
					<ele>194</ele>
					<time>0001-01-01T00:00:00Z</time>
				</trkpt>
				<trkpt lat="37.77191" lon="-25.30354">
					<ele>192</ele>
					<time>0001-01-01T00:00:00Z</time>
				</trkpt>
				<trkpt lat="37.77185" lon="-25.30351">
					<ele>192</ele>
					<time>0001-01-01T00:00:00Z</time>
				</trkpt>
				<trkpt lat="37.77157" lon="-25.30340">
					<ele>191</ele>
					<time>0001-01-01T00:00:00Z</time>
				</trkpt>
				<trkpt lat="37.77100" lon="-25.30350">
					<ele>190</ele>
					<time>0001-01-01T00:00:00Z</time>
				</trkpt>
				<trkpt lat="37.77075" lon="-25.30366">
					<ele>189</ele>
					<time>0001-01-01T00:00:00Z</time>
				</trkpt>
				<trkpt lat="37.77057" lon="-25.30396">
					<ele>189</ele>
					<time>0001-01-01T00:00:00Z</time>
				</trkpt>
				<trkpt lat="37.77026" lon="-25.30504">
					<ele>189</ele>
					<time>0001-01-01T00:00:00Z</time>
				</trkpt>
				<trkpt lat="37.77027" lon="-25.30599">
					<ele>190</ele>
					<time>0001-01-01T00:00:00Z</time>
				</trkpt>
				<trkpt lat="37.77047" lon="-25.30652">
					<ele>190</ele>
					<time>0001-01-01T00:00:00Z</time>
				</trkpt>
				<trkpt lat="37.77081" lon="-25.30689">
					<ele>189</ele>
					<time>0001-01-01T00:00:00Z</time>
				</trkpt>
				<trkpt lat="37.77091" lon="-25.30711">
					<ele>189</ele>
					<time>0001-01-01T00:00:00Z</time>
				</trkpt>
				<trkpt lat="37.77126" lon="-25.30841">
					<ele>191</ele>
					<time>0001-01-01T00:00:00Z</time>
				</trkpt>
				<trkpt lat="37.77163" lon="-25.30972">
					<ele>192</ele>
					<time>0001-01-01T00:00:00Z</time>
				</trkpt>
				<trkpt lat="37.77164" lon="-25.30979">
					<ele>192</ele>
					<time>0001-01-01T00:00:00Z</time>
				</trkpt>
				<trkpt lat="37.77189" lon="-25.31073">
					<ele>193</ele>
					<time>0001-01-01T00:00:00Z</time>
				</trkpt>
				<trkpt lat="37.77210" lon="-25.31082">
					<ele>193</ele>
					<time>0001-01-01T00:00:00Z</time>
				</trkpt>
				<trkpt lat="37.77217" lon="-25.31083">
					<ele>194</ele>
					<time>0001-01-01T00:00:00Z</time>
				</trkpt>
				<trkpt lat="37.77245" lon="-25.31106">
					<ele>197</ele>
					<time>0001-01-01T00:00:00Z</time>
				</trkpt>
				<trkpt lat="37.77276" lon="-25.31128">
					<ele>201</ele>
					<time>0001-01-01T00:00:00Z</time>
				</trkpt>
				<trkpt lat="37.77327" lon="-25.31122">
					<ele>201</ele>
					<time>0001-01-01T00:00:00Z</time>
				</trkpt>
				<trkpt lat="37.77345" lon="-25.31114">
					<ele>202</ele>
					<time>0001-01-01T00:00:00Z</time>
				</trkpt>
				<trkpt lat="37.77385" lon="-25.31135">
					<ele>203</ele>
					<time>0001-01-01T00:00:00Z</time>
				</trkpt>
				<trkpt lat="37.77402" lon="-25.31142">
					<ele>203</ele>
					<time>0001-01-01T00:00:00Z</time>
				</trkpt>
				<trkpt lat="37.77407" lon="-25.31138">
					<ele>202</ele>
					<time>0001-01-01T00:00:00Z</time>
				</trkpt>
				<trkpt lat="37.77411" lon="-25.31087">
					<ele>202</ele>
					<time>0001-01-01T00:00:00Z</time>
				</trkpt>
				<trkpt lat="37.77418" lon="-25.31035">
					<ele>204</ele>
					<time>0001-01-01T00:00:00Z</time>
				</trkpt>
				<trkpt lat="37.77419" lon="-25.31034">
					<ele>203</ele>
					<time>0001-01-01T00:00:00Z</time>
				</trkpt>
				<trkpt lat="37.77437" lon="-25.31041">
					<ele>205</ele>
					<time>0001-01-01T00:00:00Z</time>
				</trkpt>
				<trkpt lat="37.77430" lon="-25.31038">
					<ele>205</ele>
					<time>0001-01-01T00:00:00Z</time>
				</trkpt>
				<trkpt lat="37.77428" lon="-25.31031">
					<ele>205</ele>
					<time>0001-01-01T00:00:00Z</time>
				</trkpt>
				<trkpt lat="37.77427" lon="-25.31035">
					<ele>205</ele>
					<time>0001-01-01T00:00:00Z</time>
				</trkpt>
				<trkpt lat="37.77423" lon="-25.31048">
					<ele>204</ele>
					<time>0001-01-01T00:00:00Z</time>
				</trkpt>
				<trkpt lat="37.77414" lon="-25.31134">
					<ele>205</ele>
					<time>0001-01-01T00:00:00Z</time>
				</trkpt>
				<trkpt lat="37.77413" lon="-25.31141">
					<ele>203</ele>
					<time>0001-01-01T00:00:00Z</time>
				</trkpt>
				<trkpt lat="37.77424" lon="-25.31150">
					<ele>203</ele>
					<time>0001-01-01T00:00:00Z</time>
				</trkpt>
				<trkpt lat="37.77509" lon="-25.31189">
					<ele>202</ele>
					<time>0001-01-01T00:00:00Z</time>
				</trkpt>
				<trkpt lat="37.77517" lon="-25.31193">
					<ele>202</ele>
					<time>0001-01-01T00:00:00Z</time>
				</trkpt>
				<trkpt lat="37.77551" lon="-25.31208">
					<ele>202</ele>
					<time>0001-01-01T00:00:00Z</time>
				</trkpt>
				<trkpt lat="37.77558" lon="-25.31213">
					<ele>202</ele>
					<time>0001-01-01T00:00:00Z</time>
				</trkpt>
				<trkpt lat="37.77588" lon="-25.31241">
					<ele>202</ele>
					<time>0001-01-01T00:00:00Z</time>
				</trkpt>
				<trkpt lat="37.77617" lon="-25.31266">
					<ele>201</ele>
					<time>0001-01-01T00:00:00Z</time>
				</trkpt>
				<trkpt lat="37.77618" lon="-25.31293">
					<ele>200</ele>
					<time>0001-01-01T00:00:00Z</time>
				</trkpt>
				<trkpt lat="37.77582" lon="-25.31426">
					<ele>202</ele>
					<time>0001-01-01T00:00:00Z</time>
				</trkpt>
				<trkpt lat="37.77533" lon="-25.31506">
					<ele>202</ele>
					<time>0001-01-01T00:00:00Z</time>
				</trkpt>
				<trkpt lat="37.77497" lon="-25.31528">
					<ele>204</ele>
					<time>0001-01-01T00:00:00Z</time>
				</trkpt>
				<trkpt lat="37.77459" lon="-25.31541">
					<ele>207</ele>
					<time>0001-01-01T00:00:00Z</time>
				</trkpt>
				<trkpt lat="37.77427" lon="-25.31538">
					<ele>209</ele>
					<time>0001-01-01T00:00:00Z</time>
				</trkpt>
				<trkpt lat="37.77380" lon="-25.31561">
					<ele>208</ele>
					<time>0001-01-01T00:00:00Z</time>
				</trkpt>
				<trkpt lat="37.77353" lon="-25.31589">
					<ele>207</ele>
					<time>0001-01-01T00:00:00Z</time>
				</trkpt>
				<trkpt lat="37.77350" lon="-25.31588">
					<ele>208</ele>
					<time>0001-01-01T00:00:00Z</time>
				</trkpt>
				<trkpt lat="37.77327" lon="-25.31620">
					<ele>209</ele>
					<time>0001-01-01T00:00:00Z</time>
				</trkpt>
				<trkpt lat="37.77329" lon="-25.31648">
					<ele>209</ele>
					<time>0001-01-01T00:00:00Z</time>
				</trkpt>
				<trkpt lat="37.77330" lon="-25.31667">
					<ele>210</ele>
					<time>0001-01-01T00:00:00Z</time>
				</trkpt>
				<trkpt lat="37.77329" lon="-25.31670">
					<ele>209</ele>
					<time>0001-01-01T00:00:00Z</time>
				</trkpt>
				<trkpt lat="37.77326" lon="-25.31666">
					<ele>209</ele>
					<time>0001-01-01T00:00:00Z</time>
				</trkpt>
				<trkpt lat="37.77322" lon="-25.31613">
					<ele>210</ele>
					<time>0001-01-01T00:00:00Z</time>
				</trkpt>
				<trkpt lat="37.77320" lon="-25.31605">
					<ele>211</ele>
					<time>0001-01-01T00:00:00Z</time>
				</trkpt>
				<trkpt lat="37.77335" lon="-25.31587">
					<ele>209</ele>
					<time>0001-01-01T00:00:00Z</time>
				</trkpt>
				<trkpt lat="37.77331" lon="-25.31565">
					<ele>210</ele>
					<time>0001-01-01T00:00:00Z</time>
				</trkpt>
				<trkpt lat="37.77321" lon="-25.31547">
					<ele>211</ele>
					<time>0001-01-01T00:00:00Z</time>
				</trkpt>
				<trkpt lat="37.77317" lon="-25.31532">
					<ele>211</ele>
					<time>0001-01-01T00:00:00Z</time>
				</trkpt>
				<trkpt lat="37.77315" lon="-25.31506">
					<ele>213</ele>
					<time>0001-01-01T00:00:00Z</time>
				</trkpt>
				<trkpt lat="37.77319" lon="-25.31525">
					<ele>210</ele>
					<time>0001-01-01T00:00:00Z</time>
				</trkpt>
				<trkpt lat="37.77321" lon="-25.31535">
					<ele>213</ele>
					<time>0001-01-01T00:00:00Z</time>
				</trkpt>
				<trkpt lat="37.77310" lon="-25.31524">
					<ele>207</ele>
					<time>0001-01-01T00:00:00Z</time>
				</trkpt>
				<trkpt lat="37.77310" lon="-25.31492">
					<ele>209</ele>
					<time>0001-01-01T00:00:00Z</time>
				</trkpt>
				<trkpt lat="37.77308" lon="-25.31415">
					<ele>209</ele>
					<time>0001-01-01T00:00:00Z</time>
				</trkpt>
				<trkpt lat="37.77307" lon="-25.31397">
					<ele>210</ele>
					<time>0001-01-01T00:00:00Z</time>
				</trkpt>
				<trkpt lat="37.77303" lon="-25.31282">
					<ele>203</ele>
					<time>0001-01-01T00:00:00Z</time>
				</trkpt>
				<trkpt lat="37.77310" lon="-25.31223">
					<ele>202</ele>
					<time>0001-01-01T00:00:00Z</time>
				</trkpt>
				<trkpt lat="37.77334" lon="-25.31133">
					<ele>206</ele>
					<time>0001-01-01T00:00:00Z</time>
				</trkpt>
				<trkpt lat="37.77338" lon="-25.31116">
					<ele>206</ele>
					<time>0001-01-01T00:00:00Z</time>
				</trkpt>
				<trkpt lat="37.77364" lon="-25.31120">
					<ele>207</ele>
					<time>0001-01-01T00:00:00Z</time>
				</trkpt>
				<trkpt lat="37.77466" lon="-25.31170">
					<ele>207</ele>
					<time>0001-01-01T00:00:00Z</time>
				</trkpt>
				<trkpt lat="37.77584" lon="-25.31225">
					<ele>206</ele>
					<time>0001-01-01T00:00:00Z</time>
				</trkpt>
				<trkpt lat="37.77604" lon="-25.31243">
					<ele>205</ele>
					<time>0001-01-01T00:00:00Z</time>
				</trkpt>
				<trkpt lat="37.77615" lon="-25.31297">
					<ele>203</ele>
					<time>0001-01-01T00:00:00Z</time>
				</trkpt>
				<trkpt lat="37.77580" lon="-25.31427">
					<ele>203</ele>
					<time>0001-01-01T00:00:00Z</time>
				</trkpt>
				<trkpt lat="37.77568" lon="-25.31455">
					<ele>204</ele>
					<time>0001-01-01T00:00:00Z</time>
				</trkpt>
				<trkpt lat="37.77489" lon="-25.31522">
					<ele>202</ele>
					<time>0001-01-01T00:00:00Z</time>
				</trkpt>
				<trkpt lat="37.77424" lon="-25.31549">
					<ele>207</ele>
					<time>0001-01-01T00:00:00Z</time>
				</trkpt>
				<trkpt lat="37.77370" lon="-25.31581">
					<ele>205</ele>
					<time>0001-01-01T00:00:00Z</time>
				</trkpt>
				<trkpt lat="37.77357" lon="-25.31595">
					<ele>204</ele>
					<time>0001-01-01T00:00:00Z</time>
				</trkpt>
				<trkpt lat="37.77343" lon="-25.31605">
					<ele>204</ele>
					<time>0001-01-01T00:00:00Z</time>
				</trkpt>
				<trkpt lat="37.77331" lon="-25.31629">
					<ele>204</ele>
					<time>0001-01-01T00:00:00Z</time>
				</trkpt>
				<trkpt lat="37.77332" lon="-25.31664">
					<ele>205</ele>
					<time>0001-01-01T00:00:00Z</time>
				</trkpt>
				<trkpt lat="37.77332" lon="-25.31678">
					<ele>206</ele>
					<time>0001-01-01T00:00:00Z</time>
				</trkpt>
				<trkpt lat="37.77287" lon="-25.31724">
					<ele>211</ele>
					<time>0001-01-01T00:00:00Z</time>
				</trkpt>
				<trkpt lat="37.77226" lon="-25.31777">
					<ele>216</ele>
					<time>0001-01-01T00:00:00Z</time>
				</trkpt>
				<trkpt lat="37.77176" lon="-25.31825">
					<ele>224</ele>
					<time>0001-01-01T00:00:00Z</time>
				</trkpt>
				<trkpt lat="37.77116" lon="-25.31863">
					<ele>229</ele>
					<time>0001-01-01T00:00:00Z</time>
				</trkpt>
				<trkpt lat="37.77062" lon="-25.31898">
					<ele>232</ele>
					<time>0001-01-01T00:00:00Z</time>
				</trkpt>
				<trkpt lat="37.77037" lon="-25.31956">
					<ele>236</ele>
					<time>0001-01-01T00:00:00Z</time>
				</trkpt>
				<trkpt lat="37.77001" lon="-25.31991">
					<ele>242</ele>
					<time>0001-01-01T00:00:00Z</time>
				</trkpt>
				<trkpt lat="37.77024" lon="-25.32097">
					<ele>239</ele>
					<time>0001-01-01T00:00:00Z</time>
				</trkpt>
				<trkpt lat="37.77066" lon="-25.32163">
					<ele>238</ele>
					<time>0001-01-01T00:00:00Z</time>
				</trkpt>
				<trkpt lat="37.77034" lon="-25.32179">
					<ele>240</ele>
					<time>0001-01-01T00:00:00Z</time>
				</trkpt>
				<trkpt lat="37.77005" lon="-25.32138">
					<ele>242</ele>
					<time>0001-01-01T00:00:00Z</time>
				</trkpt>
				<trkpt lat="37.76996" lon="-25.32106">
					<ele>245</ele>
					<time>0001-01-01T00:00:00Z</time>
				</trkpt>
				<trkpt lat="37.76983" lon="-25.32100">
					<ele>247</ele>
					<time>0001-01-01T00:00:00Z</time>
				</trkpt>
				<trkpt lat="37.76931" lon="-25.32089">
					<ele>252</ele>
					<time>0001-01-01T00:00:00Z</time>
				</trkpt>
				<trkpt lat="37.76845" lon="-25.32031">
					<ele>261</ele>
					<time>0001-01-01T00:00:00Z</time>
				</trkpt>
				<trkpt lat="37.76793" lon="-25.32019">
					<ele>263</ele>
					<time>0001-01-01T00:00:00Z</time>
				</trkpt>
				<trkpt lat="37.76733" lon="-25.32016">
					<ele>261</ele>
					<time>0001-01-01T00:00:00Z</time>
				</trkpt>
				<trkpt lat="37.76701" lon="-25.32022">
					<ele>261</ele>
					<time>0001-01-01T00:00:00Z</time>
				</trkpt>
				<trkpt lat="37.76703" lon="-25.32073">
					<ele>261</ele>
					<time>0001-01-01T00:00:00Z</time>
				</trkpt>
				<trkpt lat="37.76730" lon="-25.32120">
					<ele>265</ele>
					<time>0001-01-01T00:00:00Z</time>
				</trkpt>
				<trkpt lat="37.76732" lon="-25.32172">
					<ele>266</ele>
					<time>0001-01-01T00:00:00Z</time>
				</trkpt>
				<trkpt lat="37.76728" lon="-25.32261">
					<ele>273</ele>
					<time>0001-01-01T00:00:00Z</time>
				</trkpt>
				<trkpt lat="37.76707" lon="-25.32304">
					<ele>273</ele>
					<time>0001-01-01T00:00:00Z</time>
				</trkpt>
				<trkpt lat="37.76701" lon="-25.32310">
					<ele>273</ele>
					<time>0001-01-01T00:00:00Z</time>
				</trkpt>
				<trkpt lat="37.76620" lon="-25.32344">
					<ele>274</ele>
					<time>0001-01-01T00:00:00Z</time>
				</trkpt>
				<trkpt lat="37.76602" lon="-25.32351">
					<ele>274</ele>
					<time>0001-01-01T00:00:00Z</time>
				</trkpt>
				<trkpt lat="37.76580" lon="-25.32381">
					<ele>276</ele>
					<time>0001-01-01T00:00:00Z</time>
				</trkpt>
				<trkpt lat="37.76554" lon="-25.32483">
					<ele>277</ele>
					<time>0001-01-01T00:00:00Z</time>
				</trkpt>
				<trkpt lat="37.76549" lon="-25.32538">
					<ele>279</ele>
					<time>0001-01-01T00:00:00Z</time>
				</trkpt>
				<trkpt lat="37.76542" lon="-25.32559">
					<ele>281</ele>
					<time>0001-01-01T00:00:00Z</time>
				</trkpt>
				<trkpt lat="37.76497" lon="-25.32649">
					<ele>282</ele>
					<time>0001-01-01T00:00:00Z</time>
				</trkpt>
				<trkpt lat="37.76437" lon="-25.32731">
					<ele>285</ele>
					<time>0001-01-01T00:00:00Z</time>
				</trkpt>
				<trkpt lat="37.76390" lon="-25.32780">
					<ele>286</ele>
					<time>0001-01-01T00:00:00Z</time>
				</trkpt>
				<trkpt lat="37.76302" lon="-25.32857">
					<ele>286</ele>
					<time>0001-01-01T00:00:00Z</time>
				</trkpt>
				<trkpt lat="37.76217" lon="-25.32889">
					<ele>285</ele>
					<time>0001-01-01T00:00:00Z</time>
				</trkpt>
				<trkpt lat="37.76188" lon="-25.32876">
					<ele>286</ele>
					<time>0001-01-01T00:00:00Z</time>
				</trkpt>
				<trkpt lat="37.76144" lon="-25.32802">
					<ele>286</ele>
					<time>0001-01-01T00:00:00Z</time>
				</trkpt>
				<trkpt lat="37.76106" lon="-25.32675">
					<ele>285</ele>
					<time>0001-01-01T00:00:00Z</time>
				</trkpt>
				<trkpt lat="37.76035" lon="-25.32599">
					<ele>289</ele>
					<time>0001-01-01T00:00:00Z</time>
				</trkpt>
				<trkpt lat="37.75911" lon="-25.32503">
					<ele>285</ele>
					<time>0001-01-01T00:00:00Z</time>
				</trkpt>
				<trkpt lat="37.75819" lon="-25.32473">
					<ele>285</ele>
					<time>0001-01-01T00:00:00Z</time>
				</trkpt>
				<trkpt lat="37.75686" lon="-25.32473">
					<ele>285</ele>
					<time>0001-01-01T00:00:00Z</time>
				</trkpt>
				<trkpt lat="37.75587" lon="-25.32488">
					<ele>288</ele>
					<time>0001-01-01T00:00:00Z</time>
				</trkpt>
				<trkpt lat="37.75458" lon="-25.32520">
					<ele>287</ele>
					<time>0001-01-01T00:00:00Z</time>
				</trkpt>
				<trkpt lat="37.75341" lon="-25.32555">
					<ele>288</ele>
					<time>0001-01-01T00:00:00Z</time>
				</trkpt>
				<trkpt lat="37.75246" lon="-25.32573">
					<ele>285</ele>
					<time>0001-01-01T00:00:00Z</time>
				</trkpt>
				<trkpt lat="37.75039" lon="-25.32613">
					<ele>284</ele>
					<time>0001-01-01T00:00:00Z</time>
				</trkpt>
				<trkpt lat="37.74911" lon="-25.32673">
					<ele>285</ele>
					<time>0001-01-01T00:00:00Z</time>
				</trkpt>
				<trkpt lat="37.74566" lon="-25.32836">
					<ele>287</ele>
					<time>0001-01-01T00:00:00Z</time>
				</trkpt>
				<trkpt lat="37.74433" lon="-25.32899">
					<ele>288</ele>
					<time>0001-01-01T00:00:00Z</time>
				</trkpt>
				<trkpt lat="37.74326" lon="-25.32919">
					<ele>289</ele>
					<time>0001-01-01T00:00:00Z</time>
				</trkpt>
				<trkpt lat="37.74276" lon="-25.32923">
					<ele>289</ele>
					<time>0001-01-01T00:00:00Z</time>
				</trkpt>
				<trkpt lat="37.74185" lon="-25.32927">
					<ele>289</ele>
					<time>0001-01-01T00:00:00Z</time>
				</trkpt>
				<trkpt lat="37.74112" lon="-25.32933">
					<ele>292</ele>
					<time>0001-01-01T00:00:00Z</time>
				</trkpt>
				<trkpt lat="37.74098" lon="-25.32934">
					<ele>292</ele>
					<time>0001-01-01T00:00:00Z</time>
				</trkpt>
				<trkpt lat="37.74044" lon="-25.32939">
					<ele>292</ele>
					<time>0001-01-01T00:00:00Z</time>
				</trkpt>
				<trkpt lat="37.73968" lon="-25.32944">
					<ele>294</ele>
					<time>0001-01-01T00:00:00Z</time>
				</trkpt>
				<trkpt lat="37.73857" lon="-25.32960">
					<ele>299</ele>
					<time>0001-01-01T00:00:00Z</time>
				</trkpt>
				<trkpt lat="37.73770" lon="-25.32975">
					<ele>305</ele>
					<time>0001-01-01T00:00:00Z</time>
				</trkpt>
				<trkpt lat="37.73659" lon="-25.32945">
					<ele>307</ele>
					<time>0001-01-01T00:00:00Z</time>
				</trkpt>
				<trkpt lat="37.73646" lon="-25.32961">
					<ele>308</ele>
					<time>0001-01-01T00:00:00Z</time>
				</trkpt>
				<trkpt lat="37.73603" lon="-25.33056">
					<ele>312</ele>
					<time>0001-01-01T00:00:00Z</time>
				</trkpt>
				<trkpt lat="37.73563" lon="-25.33109">
					<ele>314</ele>
					<time>0001-01-01T00:00:00Z</time>
				</trkpt>
				<trkpt lat="37.73523" lon="-25.33108">
					<ele>317</ele>
					<time>0001-01-01T00:00:00Z</time>
				</trkpt>
				<trkpt lat="37.73432" lon="-25.33077">
					<ele>319</ele>
					<time>0001-01-01T00:00:00Z</time>
				</trkpt>
				<trkpt lat="37.73409" lon="-25.33120">
					<ele>326</ele>
					<time>0001-01-01T00:00:00Z</time>
				</trkpt>
				<trkpt lat="37.73408" lon="-25.33181">
					<ele>336</ele>
					<time>0001-01-01T00:00:00Z</time>
				</trkpt>
				<trkpt lat="37.73421" lon="-25.33245">
					<ele>342</ele>
					<time>0001-01-01T00:00:00Z</time>
				</trkpt>
				<trkpt lat="37.73446" lon="-25.33295">
					<ele>346</ele>
					<time>0001-01-01T00:00:00Z</time>
				</trkpt>
				<trkpt lat="37.73472" lon="-25.33332">
					<ele>351</ele>
					<time>0001-01-01T00:00:00Z</time>
				</trkpt>
				<trkpt lat="37.73512" lon="-25.33390">
					<ele>356</ele>
					<time>0001-01-01T00:00:00Z</time>
				</trkpt>
				<trkpt lat="37.73549" lon="-25.33452">
					<ele>360</ele>
					<time>0001-01-01T00:00:00Z</time>
				</trkpt>
				<trkpt lat="37.73594" lon="-25.33514">
					<ele>366</ele>
					<time>0001-01-01T00:00:00Z</time>
				</trkpt>
				<trkpt lat="37.73604" lon="-25.33572">
					<ele>367</ele>
					<time>0001-01-01T00:00:00Z</time>
				</trkpt>
				<trkpt lat="37.73631" lon="-25.33650">
					<ele>374</ele>
					<time>0001-01-01T00:00:00Z</time>
				</trkpt>
				<trkpt lat="37.73646" lon="-25.33681">
					<ele>376</ele>
					<time>0001-01-01T00:00:00Z</time>
				</trkpt>
				<trkpt lat="37.73626" lon="-25.33714">
					<ele>379</ele>
					<time>0001-01-01T00:00:00Z</time>
				</trkpt>
				<trkpt lat="37.73614" lon="-25.33719">
					<ele>379</ele>
					<time>0001-01-01T00:00:00Z</time>
				</trkpt>
				<trkpt lat="37.73601" lon="-25.33711">
					<ele>379</ele>
					<time>0001-01-01T00:00:00Z</time>
				</trkpt>
				<trkpt lat="37.73557" lon="-25.33679">
					<ele>383</ele>
					<time>0001-01-01T00:00:00Z</time>
				</trkpt>
				<trkpt lat="37.73551" lon="-25.33706">
					<ele>386</ele>
					<time>0001-01-01T00:00:00Z</time>
				</trkpt>
				<trkpt lat="37.73572" lon="-25.33736">
					<ele>390</ele>
					<time>0001-01-01T00:00:00Z</time>
				</trkpt>
				<trkpt lat="37.73605" lon="-25.33779">
					<ele>396</ele>
					<time>0001-01-01T00:00:00Z</time>
				</trkpt>
				<trkpt lat="37.73650" lon="-25.33830">
					<ele>400</ele>
					<time>0001-01-01T00:00:00Z</time>
				</trkpt>
				<trkpt lat="37.73701" lon="-25.33863">
					<ele>402</ele>
					<time>0001-01-01T00:00:00Z</time>
				</trkpt>
				<trkpt lat="37.73740" lon="-25.33908">
					<ele>404</ele>
					<time>0001-01-01T00:00:00Z</time>
				</trkpt>
				<trkpt lat="37.73720" lon="-25.33956">
					<ele>407</ele>
					<time>0001-01-01T00:00:00Z</time>
				</trkpt>
				<trkpt lat="37.73710" lon="-25.34012">
					<ele>413</ele>
					<time>0001-01-01T00:00:00Z</time>
				</trkpt>
				<trkpt lat="37.73692" lon="-25.34061">
					<ele>416</ele>
					<time>0001-01-01T00:00:00Z</time>
				</trkpt>
				<trkpt lat="37.73646" lon="-25.34083">
					<ele>419</ele>
					<time>0001-01-01T00:00:00Z</time>
				</trkpt>
				<trkpt lat="37.73661" lon="-25.34118">
					<ele>421</ele>
					<time>0001-01-01T00:00:00Z</time>
				</trkpt>
				<trkpt lat="37.73724" lon="-25.34141">
					<ele>423</ele>
					<time>0001-01-01T00:00:00Z</time>
				</trkpt>
				<trkpt lat="37.73781" lon="-25.34163">
					<ele>425</ele>
					<time>0001-01-01T00:00:00Z</time>
				</trkpt>
				<trkpt lat="37.73818" lon="-25.34207">
					<ele>429</ele>
					<time>0001-01-01T00:00:00Z</time>
				</trkpt>
				<trkpt lat="37.73862" lon="-25.34246">
					<ele>439</ele>
					<time>0001-01-01T00:00:00Z</time>
				</trkpt>
				<trkpt lat="37.73915" lon="-25.34273">
					<ele>442</ele>
					<time>0001-01-01T00:00:00Z</time>
				</trkpt>
				<trkpt lat="37.73955" lon="-25.34296">
					<ele>444</ele>
					<time>0001-01-01T00:00:00Z</time>
				</trkpt>
				<trkpt lat="37.73969" lon="-25.34352">
					<ele>449</ele>
					<time>0001-01-01T00:00:00Z</time>
				</trkpt>
				<trkpt lat="37.73975" lon="-25.34407">
					<ele>450</ele>
					<time>0001-01-01T00:00:00Z</time>
				</trkpt>
				<trkpt lat="37.73958" lon="-25.34463">
					<ele>455</ele>
					<time>0001-01-01T00:00:00Z</time>
				</trkpt>
				<trkpt lat="37.73923" lon="-25.34518">
					<ele>459</ele>
					<time>0001-01-01T00:00:00Z</time>
				</trkpt>
				<trkpt lat="37.73934" lon="-25.34562">
					<ele>462</ele>
					<time>0001-01-01T00:00:00Z</time>
				</trkpt>
				<trkpt lat="37.73975" lon="-25.34604">
					<ele>464</ele>
					<time>0001-01-01T00:00:00Z</time>
				</trkpt>
				<trkpt lat="37.73980" lon="-25.34617">
					<ele>465</ele>
					<time>0001-01-01T00:00:00Z</time>
				</trkpt>
				<trkpt lat="37.73975" lon="-25.34635">
					<ele>465</ele>
					<time>0001-01-01T00:00:00Z</time>
				</trkpt>
				<trkpt lat="37.73937" lon="-25.34698">
					<ele>470</ele>
					<time>0001-01-01T00:00:00Z</time>
				</trkpt>
				<trkpt lat="37.73931" lon="-25.34776">
					<ele>475</ele>
					<time>0001-01-01T00:00:00Z</time>
				</trkpt>
				<trkpt lat="37.73917" lon="-25.34839">
					<ele>479</ele>
					<time>0001-01-01T00:00:00Z</time>
				</trkpt>
				<trkpt lat="37.73874" lon="-25.34849">
					<ele>483</ele>
					<time>0001-01-01T00:00:00Z</time>
				</trkpt>
				<trkpt lat="37.73854" lon="-25.34852">
					<ele>483</ele>
					<time>0001-01-01T00:00:00Z</time>
				</trkpt>
				<trkpt lat="37.73836" lon="-25.34863">
					<ele>483</ele>
					<time>0001-01-01T00:00:00Z</time>
				</trkpt>
				<trkpt lat="37.73829" lon="-25.34870">
					<ele>483</ele>
					<time>0001-01-01T00:00:00Z</time>
				</trkpt>
				<trkpt lat="37.73824" lon="-25.34912">
					<ele>483</ele>
					<time>0001-01-01T00:00:00Z</time>
				</trkpt>
				<trkpt lat="37.73856" lon="-25.35031">
					<ele>488</ele>
					<time>0001-01-01T00:00:00Z</time>
				</trkpt>
				<trkpt lat="37.73910" lon="-25.35124">
					<ele>490</ele>
					<time>0001-01-01T00:00:00Z</time>
				</trkpt>
				<trkpt lat="37.73937" lon="-25.35135">
					<ele>491</ele>
					<time>0001-01-01T00:00:00Z</time>
				</trkpt>
				<trkpt lat="37.73952" lon="-25.35175">
					<ele>491</ele>
					<time>0001-01-01T00:00:00Z</time>
				</trkpt>
				<trkpt lat="37.73935" lon="-25.35276">
					<ele>494</ele>
					<time>0001-01-01T00:00:00Z</time>
				</trkpt>
				<trkpt lat="37.73921" lon="-25.35310">
					<ele>495</ele>
					<time>0001-01-01T00:00:00Z</time>
				</trkpt>
				<trkpt lat="37.73918" lon="-25.35347">
					<ele>496</ele>
					<time>0001-01-01T00:00:00Z</time>
				</trkpt>
				<trkpt lat="37.73914" lon="-25.35349">
					<ele>496</ele>
					<time>0001-01-01T00:00:00Z</time>
				</trkpt>
				<trkpt lat="37.73913" lon="-25.35350">
					<ele>497</ele>
					<time>0001-01-01T00:00:00Z</time>
				</trkpt>
				<trkpt lat="37.73915" lon="-25.35349">
					<ele>495</ele>
					<time>0001-01-01T00:00:00Z</time>
				</trkpt>
				<trkpt lat="37.73917" lon="-25.35349">
					<ele>495</ele>
					<time>0001-01-01T00:00:00Z</time>
				</trkpt>
				<trkpt lat="37.73920" lon="-25.35350">
					<ele>495</ele>
					<time>0001-01-01T00:00:00Z</time>
				</trkpt>
				<trkpt lat="37.73937" lon="-25.35398">
					<ele>496</ele>
					<time>0001-01-01T00:00:00Z</time>
				</trkpt>
				<trkpt lat="37.73962" lon="-25.35457">
					<ele>498</ele>
					<time>0001-01-01T00:00:00Z</time>
				</trkpt>
				<trkpt lat="37.73965" lon="-25.35461">
					<ele>498</ele>
					<time>0001-01-01T00:00:00Z</time>
				</trkpt>
				<trkpt lat="37.73974" lon="-25.35468">
					<ele>499</ele>
					<time>0001-01-01T00:00:00Z</time>
				</trkpt>
				<trkpt lat="37.74003" lon="-25.35474">
					<ele>499</ele>
					<time>0001-01-01T00:00:00Z</time>
				</trkpt>
				<trkpt lat="37.74096" lon="-25.35460">
					<ele>494</ele>
					<time>0001-01-01T00:00:00Z</time>
				</trkpt>
				<trkpt lat="37.74156" lon="-25.35499">
					<ele>492</ele>
					<time>0001-01-01T00:00:00Z</time>
				</trkpt>
				<trkpt lat="37.74164" lon="-25.35536">
					<ele>491</ele>
					<time>0001-01-01T00:00:00Z</time>
				</trkpt>
				<trkpt lat="37.74165" lon="-25.35560">
					<ele>491</ele>
					<time>0001-01-01T00:00:00Z</time>
				</trkpt>
				<trkpt lat="37.74143" lon="-25.35600">
					<ele>491</ele>
					<time>0001-01-01T00:00:00Z</time>
				</trkpt>
				<trkpt lat="37.74100" lon="-25.35637">
					<ele>491</ele>
					<time>0001-01-01T00:00:00Z</time>
				</trkpt>
				<trkpt lat="37.74042" lon="-25.35747">
					<ele>492</ele>
					<time>0001-01-01T00:00:00Z</time>
				</trkpt>
				<trkpt lat="37.74050" lon="-25.35815">
					<ele>492</ele>
					<time>0001-01-01T00:00:00Z</time>
				</trkpt>
				<trkpt lat="37.74056" lon="-25.35822">
					<ele>491</ele>
					<time>0001-01-01T00:00:00Z</time>
				</trkpt>
				<trkpt lat="37.74157" lon="-25.35898">
					<ele>486</ele>
					<time>0001-01-01T00:00:00Z</time>
				</trkpt>
				<trkpt lat="37.74263" lon="-25.35934">
					<ele>483</ele>
					<time>0001-01-01T00:00:00Z</time>
				</trkpt>
				<trkpt lat="37.74363" lon="-25.36006">
					<ele>477</ele>
					<time>0001-01-01T00:00:00Z</time>
				</trkpt>
				<trkpt lat="37.74474" lon="-25.36062">
					<ele>473</ele>
					<time>0001-01-01T00:00:00Z</time>
				</trkpt>
				<trkpt lat="37.74528" lon="-25.36092">
					<ele>471</ele>
					<time>0001-01-01T00:00:00Z</time>
				</trkpt>
				<trkpt lat="37.74520" lon="-25.36144">
					<ele>469</ele>
					<time>0001-01-01T00:00:00Z</time>
				</trkpt>
				<trkpt lat="37.74505" lon="-25.36181">
					<ele>468</ele>
					<time>0001-01-01T00:00:00Z</time>
				</trkpt>
				<trkpt lat="37.74470" lon="-25.36217">
					<ele>465</ele>
					<time>0001-01-01T00:00:00Z</time>
				</trkpt>
				<trkpt lat="37.74411" lon="-25.36254">
					<ele>460</ele>
					<time>0001-01-01T00:00:00Z</time>
				</trkpt>
				<trkpt lat="37.74377" lon="-25.36333">
					<ele>453</ele>
					<time>0001-01-01T00:00:00Z</time>
				</trkpt>
				<trkpt lat="37.74363" lon="-25.36428">
					<ele>449</ele>
					<time>0001-01-01T00:00:00Z</time>
				</trkpt>
				<trkpt lat="37.74374" lon="-25.36504">
					<ele>444</ele>
					<time>0001-01-01T00:00:00Z</time>
				</trkpt>
				<trkpt lat="37.74391" lon="-25.36558">
					<ele>443</ele>
					<time>0001-01-01T00:00:00Z</time>
				</trkpt>
				<trkpt lat="37.74374" lon="-25.36620">
					<ele>440</ele>
					<time>0001-01-01T00:00:00Z</time>
				</trkpt>
				<trkpt lat="37.74296" lon="-25.36741">
					<ele>430</ele>
					<time>0001-01-01T00:00:00Z</time>
				</trkpt>
				<trkpt lat="37.74292" lon="-25.36802">
					<ele>426</ele>
					<time>0001-01-01T00:00:00Z</time>
				</trkpt>
				<trkpt lat="37.74343" lon="-25.36859">
					<ele>424</ele>
					<time>0001-01-01T00:00:00Z</time>
				</trkpt>
				<trkpt lat="37.74378" lon="-25.36940">
					<ele>423</ele>
					<time>0001-01-01T00:00:00Z</time>
				</trkpt>
				<trkpt lat="37.74361" lon="-25.36981">
					<ele>422</ele>
					<time>0001-01-01T00:00:00Z</time>
				</trkpt>
				<trkpt lat="37.74346" lon="-25.37009">
					<ele>419</ele>
					<time>0001-01-01T00:00:00Z</time>
				</trkpt>
				<trkpt lat="37.74335" lon="-25.37093">
					<ele>415</ele>
					<time>0001-01-01T00:00:00Z</time>
				</trkpt>
				<trkpt lat="37.74350" lon="-25.37213">
					<ele>412</ele>
					<time>0001-01-01T00:00:00Z</time>
				</trkpt>
				<trkpt lat="37.74326" lon="-25.37283">
					<ele>408</ele>
					<time>0001-01-01T00:00:00Z</time>
				</trkpt>
				<trkpt lat="37.74316" lon="-25.37292">
					<ele>407</ele>
					<time>0001-01-01T00:00:00Z</time>
				</trkpt>
				<trkpt lat="37.74198" lon="-25.37407">
					<ele>398</ele>
					<time>0001-01-01T00:00:00Z</time>
				</trkpt>
				<trkpt lat="37.74151" lon="-25.37419">
					<ele>396</ele>
					<time>0001-01-01T00:00:00Z</time>
				</trkpt>
				<trkpt lat="37.74072" lon="-25.37382">
					<ele>393</ele>
					<time>0001-01-01T00:00:00Z</time>
				</trkpt>
				<trkpt lat="37.74014" lon="-25.37392">
					<ele>389</ele>
					<time>0001-01-01T00:00:00Z</time>
				</trkpt>
				<trkpt lat="37.74009" lon="-25.37406">
					<ele>388</ele>
					<time>0001-01-01T00:00:00Z</time>
				</trkpt>
				<trkpt lat="37.73958" lon="-25.37546">
					<ele>381</ele>
					<time>0001-01-01T00:00:00Z</time>
				</trkpt>
				<trkpt lat="37.73908" lon="-25.37603">
					<ele>376</ele>
					<time>0001-01-01T00:00:00Z</time>
				</trkpt>
				<trkpt lat="37.73736" lon="-25.37697">
					<ele>364</ele>
					<time>0001-01-01T00:00:00Z</time>
				</trkpt>
				<trkpt lat="37.73700" lon="-25.37764">
					<ele>360</ele>
					<time>0001-01-01T00:00:00Z</time>
				</trkpt>
				<trkpt lat="37.73639" lon="-25.38040">
					<ele>348</ele>
					<time>0001-01-01T00:00:00Z</time>
				</trkpt>
				<trkpt lat="37.73588" lon="-25.38276">
					<ele>341</ele>
					<time>0001-01-01T00:00:00Z</time>
				</trkpt>
				<trkpt lat="37.73544" lon="-25.38336">
					<ele>337</ele>
					<time>0001-01-01T00:00:00Z</time>
				</trkpt>
				<trkpt lat="37.73285" lon="-25.38560">
					<ele>318</ele>
					<time>0001-01-01T00:00:00Z</time>
				</trkpt>
				<trkpt lat="37.73261" lon="-25.38653">
					<ele>313</ele>
					<time>0001-01-01T00:00:00Z</time>
				</trkpt>
				<trkpt lat="37.73264" lon="-25.38671">
					<ele>312</ele>
					<time>0001-01-01T00:00:00Z</time>
				</trkpt>
				<trkpt lat="37.73268" lon="-25.38706">
					<ele>310</ele>
					<time>0001-01-01T00:00:00Z</time>
				</trkpt>
				<trkpt lat="37.73240" lon="-25.38804">
					<ele>305</ele>
					<time>0001-01-01T00:00:00Z</time>
				</trkpt>
				<trkpt lat="37.73232" lon="-25.38818">
					<ele>304</ele>
					<time>0001-01-01T00:00:00Z</time>
				</trkpt>
				<trkpt lat="37.73211" lon="-25.38842">
					<ele>302</ele>
					<time>0001-01-01T00:00:00Z</time>
				</trkpt>
				<trkpt lat="37.73188" lon="-25.38908">
					<ele>299</ele>
					<time>0001-01-01T00:00:00Z</time>
				</trkpt>
				<trkpt lat="37.73180" lon="-25.38961">
					<ele>296</ele>
					<time>0001-01-01T00:00:00Z</time>
				</trkpt>
				<trkpt lat="37.73133" lon="-25.39021">
					<ele>291</ele>
					<time>0001-01-01T00:00:00Z</time>
				</trkpt>
				<trkpt lat="37.73081" lon="-25.38999">
					<ele>287</ele>
					<time>0001-01-01T00:00:00Z</time>
				</trkpt>
				<trkpt lat="37.73069" lon="-25.38988">
					<ele>287</ele>
					<time>0001-01-01T00:00:00Z</time>
				</trkpt>
				<trkpt lat="37.73028" lon="-25.38941">
					<ele>283</ele>
					<time>0001-01-01T00:00:00Z</time>
				</trkpt>
				<trkpt lat="37.72967" lon="-25.38927">
					<ele>279</ele>
					<time>0001-01-01T00:00:00Z</time>
				</trkpt>
				<trkpt lat="37.72954" lon="-25.38935">
					<ele>279</ele>
					<time>0001-01-01T00:00:00Z</time>
				</trkpt>
				<trkpt lat="37.72933" lon="-25.38955">
					<ele>277</ele>
					<time>0001-01-01T00:00:00Z</time>
				</trkpt>
				<trkpt lat="37.72867" lon="-25.38984">
					<ele>272</ele>
					<time>0001-01-01T00:00:00Z</time>
				</trkpt>
				<trkpt lat="37.72815" lon="-25.38994">
					<ele>267</ele>
					<time>0001-01-01T00:00:00Z</time>
				</trkpt>
				<trkpt lat="37.72775" lon="-25.39043">
					<ele>263</ele>
					<time>0001-01-01T00:00:00Z</time>
				</trkpt>
				<trkpt lat="37.72793" lon="-25.39097">
					<ele>260</ele>
					<time>0001-01-01T00:00:00Z</time>
				</trkpt>
				<trkpt lat="37.72816" lon="-25.39134">
					<ele>257</ele>
					<time>0001-01-01T00:00:00Z</time>
				</trkpt>
				<trkpt lat="37.72827" lon="-25.39209">
					<ele>253</ele>
					<time>0001-01-01T00:00:00Z</time>
				</trkpt>
				<trkpt lat="37.72795" lon="-25.39436">
					<ele>243</ele>
					<time>0001-01-01T00:00:00Z</time>
				</trkpt>
				<trkpt lat="37.72762" lon="-25.39583">
					<ele>235</ele>
					<time>0001-01-01T00:00:00Z</time>
				</trkpt>
				<trkpt lat="37.72759" lon="-25.39657">
					<ele>231</ele>
					<time>0001-01-01T00:00:00Z</time>
				</trkpt>
				<trkpt lat="37.72712" lon="-25.39706">
					<ele>227</ele>
					<time>0001-01-01T00:00:00Z</time>
				</trkpt>
				<trkpt lat="37.72674" lon="-25.39720">
					<ele>225</ele>
					<time>0001-01-01T00:00:00Z</time>
				</trkpt>
				<trkpt lat="37.72596" lon="-25.39814">
					<ele>219</ele>
					<time>0001-01-01T00:00:00Z</time>
				</trkpt>
				<trkpt lat="37.72579" lon="-25.39839">
					<ele>218</ele>
					<time>0001-01-01T00:00:00Z</time>
				</trkpt>
				<trkpt lat="37.72572" lon="-25.39931">
					<ele>213</ele>
					<time>0001-01-01T00:00:00Z</time>
				</trkpt>
				<trkpt lat="37.72608" lon="-25.40139">
					<ele>203</ele>
					<time>0001-01-01T00:00:00Z</time>
				</trkpt>
				<trkpt lat="37.72635" lon="-25.40191">
					<ele>201</ele>
					<time>0001-01-01T00:00:00Z</time>
				</trkpt>
				<trkpt lat="37.72679" lon="-25.40246">
					<ele>198</ele>
					<time>0001-01-01T00:00:00Z</time>
				</trkpt>
				<trkpt lat="37.72685" lon="-25.40318">
					<ele>194</ele>
					<time>0001-01-01T00:00:00Z</time>
				</trkpt>
				<trkpt lat="37.72675" lon="-25.40364">
					<ele>192</ele>
					<time>0001-01-01T00:00:00Z</time>
				</trkpt>
				<trkpt lat="37.72698" lon="-25.40432">
					<ele>189</ele>
					<time>0001-01-01T00:00:00Z</time>
				</trkpt>
				<trkpt lat="37.72707" lon="-25.40442">
					<ele>188</ele>
					<time>0001-01-01T00:00:00Z</time>
				</trkpt>
				<trkpt lat="37.72737" lon="-25.40468">
					<ele>186</ele>
					<time>0001-01-01T00:00:00Z</time>
				</trkpt>
				<trkpt lat="37.72762" lon="-25.40520">
					<ele>183</ele>
					<time>0001-01-01T00:00:00Z</time>
				</trkpt>
				<trkpt lat="37.72788" lon="-25.40621">
					<ele>178</ele>
					<time>0001-01-01T00:00:00Z</time>
				</trkpt>
				<trkpt lat="37.72762" lon="-25.40680">
					<ele>175</ele>
					<time>0001-01-01T00:00:00Z</time>
				</trkpt>
				<trkpt lat="37.72751" lon="-25.40684">
					<ele>175</ele>
					<time>0001-01-01T00:00:00Z</time>
				</trkpt>
				<trkpt lat="37.72600" lon="-25.40752">
					<ele>162</ele>
					<time>0001-01-01T00:00:00Z</time>
				</trkpt>
				<trkpt lat="37.72515" lon="-25.40836">
					<ele>152</ele>
					<time>0001-01-01T00:00:00Z</time>
				</trkpt>
				<trkpt lat="37.72517" lon="-25.40897">
					<ele>148</ele>
					<time>0001-01-01T00:00:00Z</time>
				</trkpt>
				<trkpt lat="37.72526" lon="-25.40906">
					<ele>147</ele>
					<time>0001-01-01T00:00:00Z</time>
				</trkpt>
				<trkpt lat="37.72560" lon="-25.40942">
					<ele>145</ele>
					<time>0001-01-01T00:00:00Z</time>
				</trkpt>
				<trkpt lat="37.72580" lon="-25.41023">
					<ele>141</ele>
					<time>0001-01-01T00:00:00Z</time>
				</trkpt>
				<trkpt lat="37.72580" lon="-25.41069">
					<ele>140</ele>
					<time>0001-01-01T00:00:00Z</time>
				</trkpt>
				<trkpt lat="37.72545" lon="-25.41151">
					<ele>136</ele>
					<time>0001-01-01T00:00:00Z</time>
				</trkpt>
				<trkpt lat="37.72547" lon="-25.41219">
					<ele>133</ele>
					<time>0001-01-01T00:00:00Z</time>
				</trkpt>
				<trkpt lat="37.72560" lon="-25.41242">
					<ele>132</ele>
					<time>0001-01-01T00:00:00Z</time>
				</trkpt>
				<trkpt lat="37.72571" lon="-25.41294">
					<ele>129</ele>
					<time>0001-01-01T00:00:00Z</time>
				</trkpt>
				<trkpt lat="37.72537" lon="-25.41321">
					<ele>127</ele>
					<time>0001-01-01T00:00:00Z</time>
				</trkpt>
				<trkpt lat="37.72501" lon="-25.41331">
					<ele>124</ele>
					<time>0001-01-01T00:00:00Z</time>
				</trkpt>
				<trkpt lat="37.72464" lon="-25.41388">
					<ele>120</ele>
					<time>0001-01-01T00:00:00Z</time>
				</trkpt>
				<trkpt lat="37.72462" lon="-25.41404">
					<ele>119</ele>
					<time>0001-01-01T00:00:00Z</time>
				</trkpt>
				<trkpt lat="37.72447" lon="-25.41573">
					<ele>112</ele>
					<time>0001-01-01T00:00:00Z</time>
				</trkpt>
				<trkpt lat="37.72407" lon="-25.41609">
					<ele>107</ele>
					<time>0001-01-01T00:00:00Z</time>
				</trkpt>
				<trkpt lat="37.72374" lon="-25.41571">
					<ele>103</ele>
					<time>0001-01-01T00:00:00Z</time>
				</trkpt>
				<trkpt lat="37.72370" lon="-25.41557">
					<ele>102</ele>
					<time>0001-01-01T00:00:00Z</time>
				</trkpt>
				<trkpt lat="37.72356" lon="-25.41501">
					<ele>99</ele>
					<time>0001-01-01T00:00:00Z</time>
				</trkpt>
				<trkpt lat="37.72314" lon="-25.41481">
					<ele>94</ele>
					<time>0001-01-01T00:00:00Z</time>
				</trkpt>
				<trkpt lat="37.72293" lon="-25.41509">
					<ele>91</ele>
					<time>0001-01-01T00:00:00Z</time>
				</trkpt>
				<trkpt lat="37.72283" lon="-25.41536">
					<ele>90</ele>
					<time>0001-01-01T00:00:00Z</time>
				</trkpt>
				<trkpt lat="37.72275" lon="-25.41646">
					<ele>85</ele>
					<time>0001-01-01T00:00:00Z</time>
				</trkpt>
				<trkpt lat="37.72310" lon="-25.41719">
					<ele>81</ele>
					<time>0001-01-01T00:00:00Z</time>
				</trkpt>
				<trkpt lat="37.72316" lon="-25.41785">
					<ele>78</ele>
					<time>0001-01-01T00:00:00Z</time>
				</trkpt>
				<trkpt lat="37.72300" lon="-25.41824">
					<ele>78</ele>
					<time>0001-01-01T00:00:00Z</time>
				</trkpt>
				<trkpt lat="37.72249" lon="-25.41935">
					<ele>73</ele>
					<time>0001-01-01T00:00:00Z</time>
				</trkpt>
				<trkpt lat="37.72245" lon="-25.41946">
					<ele>73</ele>
					<time>0001-01-01T00:00:00Z</time>
				</trkpt>
				<trkpt lat="37.72236" lon="-25.41982">
					<ele>71</ele>
					<time>0001-01-01T00:00:00Z</time>
				</trkpt>
				<trkpt lat="37.72225" lon="-25.42020">
					<ele>69</ele>
					<time>0001-01-01T00:00:00Z</time>
				</trkpt>
				<trkpt lat="37.72201" lon="-25.42070">
					<ele>65</ele>
					<time>0001-01-01T00:00:00Z</time>
				</trkpt>
				<trkpt lat="37.72181" lon="-25.42198">
					<ele>57</ele>
					<time>0001-01-01T00:00:00Z</time>
				</trkpt>
				<trkpt lat="37.72137" lon="-25.42420">
					<ele>56</ele>
					<time>0001-01-01T00:00:00Z</time>
				</trkpt>
				<trkpt lat="37.72114" lon="-25.42476">
					<ele>55</ele>
					<time>0001-01-01T00:00:00Z</time>
				</trkpt>
				<trkpt lat="37.72022" lon="-25.42566">
					<ele>47</ele>
					<time>0001-01-01T00:00:00Z</time>
				</trkpt>
				<trkpt lat="37.71936" lon="-25.42650">
					<ele>40</ele>
					<time>0001-01-01T00:00:00Z</time>
				</trkpt>
				<trkpt lat="37.71910" lon="-25.42703">
					<ele>37</ele>
					<time>0001-01-01T00:00:00Z</time>
				</trkpt>
				<trkpt lat="37.71883" lon="-25.42785">
					<ele>35</ele>
					<time>0001-01-01T00:00:00Z</time>
				</trkpt>
				<trkpt lat="37.71861" lon="-25.42845">
					<ele>33</ele>
					<time>0001-01-01T00:00:00Z</time>
				</trkpt>
				<trkpt lat="37.71773" lon="-25.43014">
					<ele>28</ele>
					<time>0001-01-01T00:00:00Z</time>
				</trkpt>
				<trkpt lat="37.71707" lon="-25.43139">
					<ele>32</ele>
					<time>0001-01-01T00:00:00Z</time>
				</trkpt>
				<trkpt lat="37.71690" lon="-25.43160">
					<ele>32</ele>
					<time>0001-01-01T00:00:00Z</time>
				</trkpt>
				<trkpt lat="37.71640" lon="-25.43194">
					<ele>29</ele>
					<time>0001-01-01T00:00:00Z</time>
				</trkpt>
				<trkpt lat="37.71621" lon="-25.43257">
					<ele>28</ele>
					<time>0001-01-01T00:00:00Z</time>
				</trkpt>
				<trkpt lat="37.71631" lon="-25.43581">
					<ele>35</ele>
					<time>0001-01-01T00:00:00Z</time>
				</trkpt>
				<trkpt lat="37.71607" lon="-25.43722">
					<ele>39</ele>
					<time>0001-01-01T00:00:00Z</time>
				</trkpt>
				<trkpt lat="37.71582" lon="-25.43857">
					<ele>37</ele>
					<time>0001-01-01T00:00:00Z</time>
				</trkpt>
				<trkpt lat="37.71620" lon="-25.44024">
					<ele>40</ele>
					<time>0001-01-01T00:00:00Z</time>
				</trkpt>
				<trkpt lat="37.71637" lon="-25.44110">
					<ele>41</ele>
					<time>0001-01-01T00:00:00Z</time>
				</trkpt>
				<trkpt lat="37.71654" lon="-25.44199">
					<ele>42</ele>
					<time>0001-01-01T00:00:00Z</time>
				</trkpt>
				<trkpt lat="37.71682" lon="-25.44241">
					<ele>42</ele>
					<time>0001-01-01T00:00:00Z</time>
				</trkpt>
				<trkpt lat="37.71659" lon="-25.44278">
					<ele>41</ele>
					<time>0001-01-01T00:00:00Z</time>
				</trkpt>
				<trkpt lat="37.71660" lon="-25.44328">
					<ele>41</ele>
					<time>0001-01-01T00:00:00Z</time>
				</trkpt>
				<trkpt lat="37.71698" lon="-25.44449">
					<ele>46</ele>
					<time>0001-01-01T00:00:00Z</time>
				</trkpt>
				<trkpt lat="37.71719" lon="-25.44517">
					<ele>49</ele>
					<time>0001-01-01T00:00:00Z</time>
				</trkpt>
				<trkpt lat="37.71745" lon="-25.44597">
					<ele>54</ele>
					<time>0001-01-01T00:00:00Z</time>
				</trkpt>
				<trkpt lat="37.71774" lon="-25.44678">
					<ele>59</ele>
					<time>0001-01-01T00:00:00Z</time>
				</trkpt>
				<trkpt lat="37.71804" lon="-25.44773">
					<ele>67</ele>
					<time>0001-01-01T00:00:00Z</time>
				</trkpt>
				<trkpt lat="37.71830" lon="-25.44854">
					<ele>71</ele>
					<time>0001-01-01T00:00:00Z</time>
				</trkpt>
				<trkpt lat="37.71856" lon="-25.44932">
					<ele>73</ele>
					<time>0001-01-01T00:00:00Z</time>
				</trkpt>
				<trkpt lat="37.71856" lon="-25.44933">
					<ele>73</ele>
					<time>0001-01-01T00:00:00Z</time>
				</trkpt>
				<trkpt lat="37.71857" lon="-25.44932">
					<ele>75</ele>
					<time>0001-01-01T00:00:00Z</time>
				</trkpt>
				<trkpt lat="37.71869" lon="-25.44974">
					<ele>73</ele>
					<time>0001-01-01T00:00:00Z</time>
				</trkpt>
				<trkpt lat="37.71905" lon="-25.45089">
					<ele>71</ele>
					<time>0001-01-01T00:00:00Z</time>
				</trkpt>
				<trkpt lat="37.71931" lon="-25.45255">
					<ele>69</ele>
					<time>0001-01-01T00:00:00Z</time>
				</trkpt>
				<trkpt lat="37.71933" lon="-25.45418">
					<ele>74</ele>
					<time>0001-01-01T00:00:00Z</time>
				</trkpt>
				<trkpt lat="37.71934" lon="-25.45556">
					<ele>78</ele>
					<time>0001-01-01T00:00:00Z</time>
				</trkpt>
				<trkpt lat="37.71937" lon="-25.45688">
					<ele>81</ele>
					<time>0001-01-01T00:00:00Z</time>
				</trkpt>
				<trkpt lat="37.71937" lon="-25.45773">
					<ele>84</ele>
					<time>0001-01-01T00:00:00Z</time>
				</trkpt>
				<trkpt lat="37.71939" lon="-25.45856">
					<ele>87</ele>
					<time>0001-01-01T00:00:00Z</time>
				</trkpt>
				<trkpt lat="37.71944" lon="-25.45958">
					<ele>85</ele>
					<time>0001-01-01T00:00:00Z</time>
				</trkpt>
				<trkpt lat="37.71948" lon="-25.46041">
					<ele>81</ele>
					<time>0001-01-01T00:00:00Z</time>
				</trkpt>
				<trkpt lat="37.71921" lon="-25.46097">
					<ele>79</ele>
					<time>0001-01-01T00:00:00Z</time>
				</trkpt>
				<trkpt lat="37.71889" lon="-25.46131">
					<ele>79</ele>
					<time>0001-01-01T00:00:00Z</time>
				</trkpt>
				<trkpt lat="37.71818" lon="-25.46148">
					<ele>82</ele>
					<time>0001-01-01T00:00:00Z</time>
				</trkpt>
				<trkpt lat="37.71796" lon="-25.46152">
					<ele>83</ele>
					<time>0001-01-01T00:00:00Z</time>
				</trkpt>
				<trkpt lat="37.71762" lon="-25.46184">
					<ele>89</ele>
					<time>0001-01-01T00:00:00Z</time>
				</trkpt>
				<trkpt lat="37.71749" lon="-25.46239">
					<ele>92</ele>
					<time>0001-01-01T00:00:00Z</time>
				</trkpt>
				<trkpt lat="37.71744" lon="-25.46300">
					<ele>96</ele>
					<time>0001-01-01T00:00:00Z</time>
				</trkpt>
				<trkpt lat="37.71763" lon="-25.46374">
					<ele>99</ele>
					<time>0001-01-01T00:00:00Z</time>
				</trkpt>
				<trkpt lat="37.71764" lon="-25.46398">
					<ele>98</ele>
					<time>0001-01-01T00:00:00Z</time>
				</trkpt>
				<trkpt lat="37.71743" lon="-25.46454">
					<ele>96</ele>
					<time>0001-01-01T00:00:00Z</time>
				</trkpt>
				<trkpt lat="37.71661" lon="-25.46542">
					<ele>89</ele>
					<time>0001-01-01T00:00:00Z</time>
				</trkpt>
				<trkpt lat="37.71618" lon="-25.46557">
					<ele>86</ele>
					<time>0001-01-01T00:00:00Z</time>
				</trkpt>
				<trkpt lat="37.71509" lon="-25.46558">
					<ele>76</ele>
					<time>0001-01-01T00:00:00Z</time>
				</trkpt>
				<trkpt lat="37.71474" lon="-25.46605">
					<ele>70</ele>
					<time>0001-01-01T00:00:00Z</time>
				</trkpt>
				<trkpt lat="37.71497" lon="-25.46651">
					<ele>66</ele>
					<time>0001-01-01T00:00:00Z</time>
				</trkpt>
				<trkpt lat="37.71534" lon="-25.46655">
					<ele>64</ele>
					<time>0001-01-01T00:00:00Z</time>
				</trkpt>
				<trkpt lat="37.71559" lon="-25.46656">
					<ele>61</ele>
					<time>0001-01-01T00:00:00Z</time>
				</trkpt>
				<trkpt lat="37.71668" lon="-25.46693">
					<ele>53</ele>
					<time>0001-01-01T00:00:00Z</time>
				</trkpt>
				<trkpt lat="37.71700" lon="-25.46731">
					<ele>50</ele>
					<time>0001-01-01T00:00:00Z</time>
				</trkpt>
				<trkpt lat="37.71697" lon="-25.46800">
					<ele>49</ele>
					<time>0001-01-01T00:00:00Z</time>
				</trkpt>
				<trkpt lat="37.71672" lon="-25.46819">
					<ele>48</ele>
					<time>0001-01-01T00:00:00Z</time>
				</trkpt>
				<trkpt lat="37.71600" lon="-25.46820">
					<ele>45</ele>
					<time>0001-01-01T00:00:00Z</time>
				</trkpt>
				<trkpt lat="37.71557" lon="-25.46861">
					<ele>41</ele>
					<time>0001-01-01T00:00:00Z</time>
				</trkpt>
				<trkpt lat="37.71556" lon="-25.46876">
					<ele>40</ele>
					<time>0001-01-01T00:00:00Z</time>
				</trkpt>
				<trkpt lat="37.71604" lon="-25.47034">
					<ele>34</ele>
					<time>0001-01-01T00:00:00Z</time>
				</trkpt>
				<trkpt lat="37.71679" lon="-25.47259">
					<ele>27</ele>
					<time>0001-01-01T00:00:00Z</time>
				</trkpt>
				<trkpt lat="37.71758" lon="-25.47478">
					<ele>23</ele>
					<time>0001-01-01T00:00:00Z</time>
				</trkpt>
				<trkpt lat="37.71791" lon="-25.47600">
					<ele>23</ele>
					<time>0001-01-01T00:00:00Z</time>
				</trkpt>
				<trkpt lat="37.71785" lon="-25.47639">
					<ele>23</ele>
					<time>0001-01-01T00:00:00Z</time>
				</trkpt>
				<trkpt lat="37.71717" lon="-25.47750">
					<ele>22</ele>
					<time>0001-01-01T00:00:00Z</time>
				</trkpt>
				<trkpt lat="37.71696" lon="-25.47794">
					<ele>22</ele>
					<time>0001-01-01T00:00:00Z</time>
				</trkpt>
				<trkpt lat="37.71692" lon="-25.47810">
					<ele>21</ele>
					<time>0001-01-01T00:00:00Z</time>
				</trkpt>
				<trkpt lat="37.71707" lon="-25.47888">
					<ele>19</ele>
					<time>0001-01-01T00:00:00Z</time>
				</trkpt>
				<trkpt lat="37.71712" lon="-25.47895">
					<ele>19</ele>
					<time>0001-01-01T00:00:00Z</time>
				</trkpt>
				<trkpt lat="37.71810" lon="-25.48024">
					<ele>20</ele>
					<time>0001-01-01T00:00:00Z</time>
				</trkpt>
				<trkpt lat="37.71838" lon="-25.48058">
					<ele>21</ele>
					<time>0001-01-01T00:00:00Z</time>
				</trkpt>
				<trkpt lat="37.71880" lon="-25.48085">
					<ele>22</ele>
					<time>0001-01-01T00:00:00Z</time>
				</trkpt>
				<trkpt lat="37.71933" lon="-25.48116">
					<ele>25</ele>
					<time>0001-01-01T00:00:00Z</time>
				</trkpt>
				<trkpt lat="37.71955" lon="-25.48169">
					<ele>29</ele>
					<time>0001-01-01T00:00:00Z</time>
				</trkpt>
				<trkpt lat="37.71938" lon="-25.48224">
					<ele>33</ele>
					<time>0001-01-01T00:00:00Z</time>
				</trkpt>
				<trkpt lat="37.71896" lon="-25.48291">
					<ele>38</ele>
					<time>0001-01-01T00:00:00Z</time>
				</trkpt>
				<trkpt lat="37.71873" lon="-25.48312">
					<ele>39</ele>
					<time>0001-01-01T00:00:00Z</time>
				</trkpt>
				<trkpt lat="37.71864" lon="-25.48323">
					<ele>39</ele>
					<time>0001-01-01T00:00:00Z</time>
				</trkpt>
				<trkpt lat="37.71811" lon="-25.48416">
					<ele>35</ele>
					<time>0001-01-01T00:00:00Z</time>
				</trkpt>
				<trkpt lat="37.71802" lon="-25.48431">
					<ele>35</ele>
					<time>0001-01-01T00:00:00Z</time>
				</trkpt>
				<trkpt lat="37.71712" lon="-25.48521">
					<ele>26</ele>
					<time>0001-01-01T00:00:00Z</time>
				</trkpt>
				<trkpt lat="37.71670" lon="-25.48608">
					<ele>20</ele>
					<time>0001-01-01T00:00:00Z</time>
				</trkpt>
				<trkpt lat="37.71634" lon="-25.48650">
					<ele>16</ele>
					<time>0001-01-01T00:00:00Z</time>
				</trkpt>
				<trkpt lat="37.71609" lon="-25.48702">
					<ele>15</ele>
					<time>0001-01-01T00:00:00Z</time>
				</trkpt>
				<trkpt lat="37.71571" lon="-25.48876">
					<ele>14</ele>
					<time>0001-01-01T00:00:00Z</time>
				</trkpt>
				<trkpt lat="37.71552" lon="-25.48959">
					<ele>17</ele>
					<time>0001-01-01T00:00:00Z</time>
				</trkpt>
				<trkpt lat="37.71552" lon="-25.49004">
					<ele>21</ele>
					<time>0001-01-01T00:00:00Z</time>
				</trkpt>
				<trkpt lat="37.71570" lon="-25.49028">
					<ele>24</ele>
					<time>0001-01-01T00:00:00Z</time>
				</trkpt>
				<trkpt lat="37.71595" lon="-25.49036">
					<ele>25</ele>
					<time>0001-01-01T00:00:00Z</time>
				</trkpt>
				<trkpt lat="37.71628" lon="-25.49042">
					<ele>29</ele>
					<time>0001-01-01T00:00:00Z</time>
				</trkpt>
				<trkpt lat="37.71654" lon="-25.49056">
					<ele>33</ele>
					<time>0001-01-01T00:00:00Z</time>
				</trkpt>
				<trkpt lat="37.71673" lon="-25.49100">
					<ele>38</ele>
					<time>0001-01-01T00:00:00Z</time>
				</trkpt>
				<trkpt lat="37.71679" lon="-25.49159">
					<ele>42</ele>
					<time>0001-01-01T00:00:00Z</time>
				</trkpt>
				<trkpt lat="37.71684" lon="-25.49209">
					<ele>48</ele>
					<time>0001-01-01T00:00:00Z</time>
				</trkpt>
				<trkpt lat="37.71710" lon="-25.49261">
					<ele>53</ele>
					<time>0001-01-01T00:00:00Z</time>
				</trkpt>
				<trkpt lat="37.71736" lon="-25.49313">
					<ele>59</ele>
					<time>0001-01-01T00:00:00Z</time>
				</trkpt>
				<trkpt lat="37.71728" lon="-25.49369">
					<ele>68</ele>
					<time>0001-01-01T00:00:00Z</time>
				</trkpt>
				<trkpt lat="37.71700" lon="-25.49402">
					<ele>69</ele>
					<time>0001-01-01T00:00:00Z</time>
				</trkpt>
				<trkpt lat="37.71655" lon="-25.49398">
					<ele>68</ele>
					<time>0001-01-01T00:00:00Z</time>
				</trkpt>
				<trkpt lat="37.71623" lon="-25.49364">
					<ele>64</ele>
					<time>0001-01-01T00:00:00Z</time>
				</trkpt>
				<trkpt lat="37.71593" lon="-25.49326">
					<ele>64</ele>
					<time>0001-01-01T00:00:00Z</time>
				</trkpt>
				<trkpt lat="37.71567" lon="-25.49308">
					<ele>72</ele>
					<time>0001-01-01T00:00:00Z</time>
				</trkpt>
				<trkpt lat="37.71539" lon="-25.49305">
					<ele>79</ele>
					<time>0001-01-01T00:00:00Z</time>
				</trkpt>
				<trkpt lat="37.71517" lon="-25.49322">
					<ele>83</ele>
					<time>0001-01-01T00:00:00Z</time>
				</trkpt>
				<trkpt lat="37.71498" lon="-25.49355">
					<ele>89</ele>
					<time>0001-01-01T00:00:00Z</time>
				</trkpt>
				<trkpt lat="37.71497" lon="-25.49403">
					<ele>94</ele>
					<time>0001-01-01T00:00:00Z</time>
				</trkpt>
				<trkpt lat="37.71512" lon="-25.49438">
					<ele>100</ele>
					<time>0001-01-01T00:00:00Z</time>
				</trkpt>
				<trkpt lat="37.71535" lon="-25.49462">
					<ele>105</ele>
					<time>0001-01-01T00:00:00Z</time>
				</trkpt>
				<trkpt lat="37.71572" lon="-25.49493">
					<ele>110</ele>
					<time>0001-01-01T00:00:00Z</time>
				</trkpt>
				<trkpt lat="37.71604" lon="-25.49519">
					<ele>115</ele>
					<time>0001-01-01T00:00:00Z</time>
				</trkpt>
				<trkpt lat="37.71626" lon="-25.49538">
					<ele>116</ele>
					<time>0001-01-01T00:00:00Z</time>
				</trkpt>
				<trkpt lat="37.71648" lon="-25.49556">
					<ele>118</ele>
					<time>0001-01-01T00:00:00Z</time>
				</trkpt>
				<trkpt lat="37.71676" lon="-25.49582">
					<ele>123</ele>
					<time>0001-01-01T00:00:00Z</time>
				</trkpt>
				<trkpt lat="37.71706" lon="-25.49624">
					<ele>128</ele>
					<time>0001-01-01T00:00:00Z</time>
				</trkpt>
				<trkpt lat="37.71718" lon="-25.49659">
					<ele>134</ele>
					<time>0001-01-01T00:00:00Z</time>
				</trkpt>
				<trkpt lat="37.71724" lon="-25.49721">
					<ele>141</ele>
					<time>0001-01-01T00:00:00Z</time>
				</trkpt>
				<trkpt lat="37.71723" lon="-25.49768">
					<ele>147</ele>
					<time>0001-01-01T00:00:00Z</time>
				</trkpt>
				<trkpt lat="37.71721" lon="-25.49807">
					<ele>152</ele>
					<time>0001-01-01T00:00:00Z</time>
				</trkpt>
				<trkpt lat="37.71720" lon="-25.49870">
					<ele>155</ele>
					<time>0001-01-01T00:00:00Z</time>
				</trkpt>
				<trkpt lat="37.71719" lon="-25.49940">
					<ele>159</ele>
					<time>0001-01-01T00:00:00Z</time>
				</trkpt>
				<trkpt lat="37.71742" lon="-25.50016">
					<ele>162</ele>
					<time>0001-01-01T00:00:00Z</time>
				</trkpt>
				<trkpt lat="37.71783" lon="-25.50105">
					<ele>163</ele>
					<time>0001-01-01T00:00:00Z</time>
				</trkpt>
				<trkpt lat="37.71806" lon="-25.50176">
					<ele>162</ele>
					<time>0001-01-01T00:00:00Z</time>
				</trkpt>
				<trkpt lat="37.71833" lon="-25.50328">
					<ele>148</ele>
					<time>0001-01-01T00:00:00Z</time>
				</trkpt>
				<trkpt lat="37.71857" lon="-25.50456">
					<ele>137</ele>
					<time>0001-01-01T00:00:00Z</time>
				</trkpt>
				<trkpt lat="37.71882" lon="-25.50505">
					<ele>132</ele>
					<time>0001-01-01T00:00:00Z</time>
				</trkpt>
				<trkpt lat="37.71918" lon="-25.50551">
					<ele>127</ele>
					<time>0001-01-01T00:00:00Z</time>
				</trkpt>
				<trkpt lat="37.71984" lon="-25.50705">
					<ele>115</ele>
					<time>0001-01-01T00:00:00Z</time>
				</trkpt>
				<trkpt lat="37.72062" lon="-25.50885">
					<ele>111</ele>
					<time>0001-01-01T00:00:00Z</time>
				</trkpt>
				<trkpt lat="37.72127" lon="-25.50969">
					<ele>104</ele>
					<time>0001-01-01T00:00:00Z</time>
				</trkpt>
				<trkpt lat="37.72126" lon="-25.51015">
					<ele>102</ele>
					<time>0001-01-01T00:00:00Z</time>
				</trkpt>
				<trkpt lat="37.72107" lon="-25.51033">
					<ele>101</ele>
					<time>0001-01-01T00:00:00Z</time>
				</trkpt>
				<trkpt lat="37.72054" lon="-25.51090">
					<ele>97</ele>
					<time>0001-01-01T00:00:00Z</time>
				</trkpt>
				<trkpt lat="37.72025" lon="-25.51118">
					<ele>97</ele>
					<time>0001-01-01T00:00:00Z</time>
				</trkpt>
				<trkpt lat="37.72020" lon="-25.51119">
					<ele>94</ele>
					<time>0001-01-01T00:00:00Z</time>
				</trkpt>
				<trkpt lat="37.72017" lon="-25.51119">
					<ele>94</ele>
					<time>0001-01-01T00:00:00Z</time>
				</trkpt>
				<trkpt lat="37.71986" lon="-25.51146">
					<ele>95</ele>
					<time>0001-01-01T00:00:00Z</time>
				</trkpt>
				<trkpt lat="37.71929" lon="-25.51200">
					<ele>93</ele>
					<time>0001-01-01T00:00:00Z</time>
				</trkpt>
				<trkpt lat="37.71870" lon="-25.51208">
					<ele>93</ele>
					<time>0001-01-01T00:00:00Z</time>
				</trkpt>
				<trkpt lat="37.71806" lon="-25.51223">
					<ele>90</ele>
					<time>0001-01-01T00:00:00Z</time>
				</trkpt>
				<trkpt lat="37.71723" lon="-25.51214">
					<ele>80</ele>
					<time>0001-01-01T00:00:00Z</time>
				</trkpt>
				<trkpt lat="37.71662" lon="-25.51170">
					<ele>75</ele>
					<time>0001-01-01T00:00:00Z</time>
				</trkpt>
				<trkpt lat="37.71628" lon="-25.51112">
					<ele>71</ele>
					<time>0001-01-01T00:00:00Z</time>
				</trkpt>
				<trkpt lat="37.71584" lon="-25.51090">
					<ele>68</ele>
					<time>0001-01-01T00:00:00Z</time>
				</trkpt>
				<trkpt lat="37.71561" lon="-25.51095">
					<ele>67</ele>
					<time>0001-01-01T00:00:00Z</time>
				</trkpt>
				<trkpt lat="37.71529" lon="-25.51073">
					<ele>65</ele>
					<time>0001-01-01T00:00:00Z</time>
				</trkpt>
				<trkpt lat="37.71475" lon="-25.50994">
					<ele>63</ele>
					<time>0001-01-01T00:00:00Z</time>
				</trkpt>
				<trkpt lat="37.71442" lon="-25.50968">
					<ele>63</ele>
					<time>0001-01-01T00:00:00Z</time>
				</trkpt>
				<trkpt lat="37.71404" lon="-25.50887">
					<ele>64</ele>
					<time>0001-01-01T00:00:00Z</time>
				</trkpt>
				<trkpt lat="37.71401" lon="-25.50875">
					<ele>63</ele>
					<time>0001-01-01T00:00:00Z</time>
				</trkpt>
				<trkpt lat="37.71398" lon="-25.50788">
					<ele>61</ele>
					<time>0001-01-01T00:00:00Z</time>
				</trkpt>
				<trkpt lat="37.71377" lon="-25.50688">
					<ele>55</ele>
					<time>0001-01-01T00:00:00Z</time>
				</trkpt>
				<trkpt lat="37.71357" lon="-25.50652">
					<ele>53</ele>
					<time>0001-01-01T00:00:00Z</time>
				</trkpt>
				<trkpt lat="37.71256" lon="-25.50546">
					<ele>47</ele>
					<time>0001-01-01T00:00:00Z</time>
				</trkpt>
				<trkpt lat="37.71239" lon="-25.50526">
					<ele>46</ele>
					<time>0001-01-01T00:00:00Z</time>
				</trkpt>
				<trkpt lat="37.71214" lon="-25.50478">
					<ele>45</ele>
					<time>0001-01-01T00:00:00Z</time>
				</trkpt>
				<trkpt lat="37.71200" lon="-25.50369">
					<ele>43</ele>
					<time>0001-01-01T00:00:00Z</time>
				</trkpt>
				<trkpt lat="37.71204" lon="-25.50345">
					<ele>44</ele>
					<time>0001-01-01T00:00:00Z</time>
				</trkpt>
				<trkpt lat="37.71235" lon="-25.50273">
					<ele>45</ele>
					<time>0001-01-01T00:00:00Z</time>
				</trkpt>
				<trkpt lat="37.71244" lon="-25.50246">
					<ele>43</ele>
					<time>0001-01-01T00:00:00Z</time>
				</trkpt>
				<trkpt lat="37.71250" lon="-25.50222">
					<ele>42</ele>
					<time>0001-01-01T00:00:00Z</time>
				</trkpt>
				<trkpt lat="37.71244" lon="-25.50217">
					<ele>41</ele>
					<time>0001-01-01T00:00:00Z</time>
				</trkpt>
				<trkpt lat="37.71206" lon="-25.50216">
					<ele>39</ele>
					<time>0001-01-01T00:00:00Z</time>
				</trkpt>
				<trkpt lat="37.71153" lon="-25.50210">
					<ele>39</ele>
					<time>0001-01-01T00:00:00Z</time>
				</trkpt>
				<trkpt lat="37.71117" lon="-25.50206">
					<ele>36</ele>
					<time>0001-01-01T00:00:00Z</time>
				</trkpt>
				<trkpt lat="37.71109" lon="-25.50205">
					<ele>36</ele>
					<time>0001-01-01T00:00:00Z</time>
				</trkpt>
				<trkpt lat="37.71093" lon="-25.50205">
					<ele>36</ele>
					<time>0001-01-01T00:00:00Z</time>
				</trkpt>
				<trkpt lat="37.71092" lon="-25.50202">
					<ele>35</ele>
					<time>0001-01-01T00:00:00Z</time>
				</trkpt>
				<trkpt lat="37.71092" lon="-25.50179">
					<ele>32</ele>
					<time>0001-01-01T00:00:00Z</time>
				</trkpt>
				<trkpt lat="37.71095" lon="-25.50175">
					<ele>32</ele>
					<time>0001-01-01T00:00:00Z</time>
				</trkpt>
				<trkpt lat="37.71097" lon="-25.50168">
					<ele>32</ele>
					<time>0001-01-01T00:00:00Z</time>
				</trkpt>
				<trkpt lat="37.71100" lon="-25.50169">
					<ele>32</ele>
					<time>0001-01-01T00:00:00Z</time>
				</trkpt>
				<trkpt lat="37.71102" lon="-25.50165">
					<ele>35</ele>
					<time>0001-01-01T00:00:00Z</time>
				</trkpt>
		</trkseg>
	</trk>
</gpx>
